[[{"header":{"parameterUnit":"m.s-1","parameterCategory":1,"la1":30.6,"la2":29.2853,"lo1":-89.7004,"lo2":-87.6739,"dy":0.0162,"dx":0.0183,"nx":112,"ny":82,"refTime":"2026-04-26T12:00:00:Z","depth":0,"parameterNumber":2,"parameterNumberName":"U-component_of_WINDS"},"data":[0.0,0.0,0.0,0.0,0.0,0.0,0.0,0.0,0.0,0.0,0.0,0.0,0.0,0.0,0.0,0.0,0.0,0.0,0.0,0.0,0.0,0.0,0.0,0.0,0.0,0.0,0.0,0.0,0.0,0.0,0.0,0.0,0.0,0.0,0.0,0.0,0.0,0.0,0.0,0.0,0.0,0.0,0.0,0.0,0.0,0.0,0.0,0.0,0.0,0.0,0.0,0.0,0.0,0.0,0.0,0.0,0.0,0.0,0.0,0.0,0.0,0.0,0.0,0.0,0.0,0.0,0.0,0.0,0.0,0.0,0.0,0.0,0.0,0.0,0.0,0.0,0.0,0.0,0.0,0.0,0.0,0.0,0.0,0.0,0.0,0.0,0.0,0.0,0.0,0.0,-5.3217,-5.495,-5.7464,-5.9331,-6.0072,-5.8544,-5.5713,-5.1489,0.0,0.0,0.0,0.0,0.0,0.0,0.0,0.0,0.0,0.0,0.0,0.0,0.0,0.0,0.0,0.0,0.0,0.0,0.0,0.0,0.0,0.0,0.0,0.0,0.0,0.0,0.0,0.0,0.0,0.0,0.0,0.0,0.0,0.0,0.0,0.0,0.0,0.0,0.0,0.0,0.0,0.0,0.0,0.0,0.0,0.0,0.0,0.0,0.0,0.0,0.0,0.0,0.0,0.0,0.0,0.0,0.0,0.0,0.0,0.0,0.0,0.0,0.0,0.0,0.0,0.0,0.0,0.0,0.0,0.0,0.0,0.0,0.0,0.0,0.0,0.0,0.0,0.0,0.0,0.0,0.0,0.0,0.0,0.0,0.0,0.0,0.0,0.0,0.0,0.0,0.0,0.0,0.0,0.0,0.0,0.0,0.0,0.0,0.0,0.0,0.0,0.0,0.0,0.0,-5.3809,-5.8014,-5.8309,-5.8417,-5.8988,-5.7076,-5.4462,-5.1185,0.0,0.0,0.0,0.0,0.0,0.0,0.0,0.0,0.0,0.0,0.0,0.0,0.0,0.0,0.0,0.0,0.0,0.0,0.0,0.0,0.0,0.0,0.0,0.0,0.0,0.0,0.0,0.0,0.0,0.0,0.0,0.0,0.0,0.0,0.0,0.0,0.0,0.0,0.0,0.0,0.0,0.0,0.0,0.0,0.0,0.0,0.0,0.0,0.0,0.0,0.0,0.0,0.0,0.0,0.0,0.0,0.0,0.0,0.0,0.0,0.0,0.0,0.0,0.0,0.0,0.0,0.0,0.0,0.0,0.0,0.0,0.0,0.0,0.0,0.0,0.0,0.0,0.0,0.0,0.0,0.0,0.0,0.0,0.0,0.0,0.0,0.0,0.0,0.0,0.0,0.0,0.0,0.0,0.0,0.0,0.0,0.0,0.0,0.0,0.0,0.0,0.0,0.0,-5.3013,-5.4857,-5.8776,-5.8492,-5.8103,-5.8402,-5.6697,-5.4151,-5.0682,-4.9815,0.0,0.0,0.0,0.0,0.0,0.0,0.0,0.0,0.0,0.0,0.0,0.0,0.0,0.0,0.0,0.0,0.0,0.0,0.0,0.0,0.0,0.0,0.0,0.0,0.0,0.0,0.0,0.0,0.0,0.0,0.0,0.0,0.0,0.0,0.0,0.0,0.0,0.0,0.0,0.0,0.0,0.0,0.0,0.0,0.0,0.0,0.0,0.0,0.0,0.0,0.0,0.0,0.0,0.0,0.0,0.0,0.0,0.0,0.0,0.0,0.0,0.0,0.0,0.0,0.0,0.0,0.0,0.0,0.0,0.0,0.0,0.0,0.0,0.0,0.0,0.0,0.0,0.0,0.0,0.0,0.0,0.0,0.0,0.0,0.0,0.0,0.0,0.0,0.0,0.0,0.0,0.0,0.0,0.0,0.0,0.0,0.0,0.0,0.0,0.0,0.0,0.0,-5.4825,-5.6198,-5.8657,-5.8229,-5.7777,-5.7786,-5.6049,-5.3559,-5.028,-4.9065,0.0,0.0,0.0,0.0,0.0,0.0,0.0,0.0,0.0,0.0,0.0,0.0,0.0,0.0,0.0,0.0,0.0,0.0,0.0,0.0,0.0,0.0,0.0,0.0,0.0,0.0,0.0,0.0,0.0,0.0,0.0,0.0,0.0,0.0,0.0,0.0,0.0,0.0,0.0,0.0,0.0,0.0,0.0,0.0,0.0,0.0,0.0,0.0,0.0,0.0,0.0,0.0,0.0,0.0,0.0,0.0,0.0,0.0,0.0,0.0,0.0,0.0,0.0,0.0,0.0,0.0,0.0,0.0,0.0,0.0,0.0,0.0,0.0,0.0,0.0,0.0,0.0,0.0,0.0,0.0,0.0,0.0,0.0,0.0,0.0,0.0,0.0,0.0,0.0,0.0,0.0,0.0,0.0,0.0,0.0,0.0,0.0,0.0,0.0,0.0,0.0,0.0,-5.5833,-5.7831,-5.8052,-5.7534,-5.7058,-5.6821,-5.4356,-5.2004,-5.0126,-4.8097,0.0,0.0,0.0,0.0,0.0,0.0,0.0,0.0,0.0,0.0,0.0,0.0,0.0,0.0,0.0,0.0,0.0,0.0,0.0,0.0,0.0,0.0,0.0,0.0,0.0,0.0,0.0,0.0,0.0,0.0,0.0,0.0,0.0,0.0,0.0,0.0,0.0,0.0,0.0,0.0,0.0,0.0,0.0,0.0,0.0,0.0,0.0,0.0,0.0,0.0,0.0,0.0,0.0,0.0,0.0,0.0,0.0,0.0,0.0,0.0,0.0,0.0,0.0,0.0,0.0,0.0,0.0,0.0,0.0,0.0,0.0,0.0,0.0,0.0,0.0,0.0,0.0,0.0,0.0,0.0,0.0,0.0,0.0,0.0,0.0,0.0,0.0,0.0,0.0,0.0,0.0,0.0,0.0,0.0,0.0,0.0,0.0,0.0,0.0,0.0,0.0,0.0,-5.3771,-5.5616,0.0,-5.6448,-5.6095,-5.5634,-5.4103,-5.2067,-4.953,0.0,0.0,0.0,0.0,0.0,0.0,0.0,0.0,0.0,0.0,0.0,0.0,0.0,0.0,0.0,0.0,0.0,0.0,0.0,0.0,0.0,0.0,0.0,0.0,0.0,0.0,0.0,0.0,0.0,0.0,0.0,0.0,0.0,0.0,0.0,0.0,0.0,0.0,0.0,0.0,0.0,0.0,0.0,0.0,0.0,0.0,0.0,0.0,0.0,0.0,0.0,0.0,0.0,0.0,0.0,0.0,0.0,0.0,0.0,0.0,0.0,0.0,0.0,0.0,0.0,0.0,0.0,0.0,0.0,0.0,0.0,0.0,0.0,0.0,0.0,0.0,0.0,0.0,0.0,0.0,0.0,0.0,0.0,0.0,0.0,0.0,0.0,0.0,0.0,0.0,0.0,0.0,0.0,0.0,0.0,0.0,0.0,0.0,0.0,0.0,0.0,0.0,-5.0982,-5.281,-5.4423,0.0,-5.5452,-5.5021,-5.4818,-5.3393,-5.1501,-4.9151,0.0,0.0,0.0,0.0,0.0,0.0,0.0,0.0,0.0,0.0,0.0,0.0,0.0,0.0,0.0,0.0,0.0,0.0,0.0,0.0,0.0,0.0,0.0,0.0,0.0,0.0,0.0,0.0,0.0,0.0,0.0,0.0,0.0,0.0,0.0,0.0,0.0,0.0,0.0,0.0,0.0,0.0,0.0,0.0,0.0,0.0,0.0,0.0,0.0,0.0,0.0,0.0,0.0,0.0,0.0,0.0,0.0,0.0,0.0,0.0,0.0,0.0,0.0,0.0,0.0,0.0,0.0,0.0,0.0,0.0,0.0,0.0,0.0,0.0,0.0,0.0,0.0,0.0,0.0,0.0,0.0,0.0,0.0,0.0,0.0,0.0,0.0,0.0,0.0,0.0,0.0,0.0,0.0,0.0,0.0,0.0,0.0,0.0,0.0,0.0,0.0,0.0,-5.1904,-5.3532,-5.4943,-5.5861,-5.4624,-5.3922,-5.452,-5.2018,-5.0,0.0,0.0,0.0,0.0,0.0,0.0,0.0,0.0,0.0,0.0,0.0,0.0,0.0,0.0,0.0,0.0,0.0,0.0,0.0,0.0,0.0,0.0,0.0,0.0,0.0,0.0,0.0,0.0,0.0,0.0,0.0,0.0,0.0,0.0,0.0,0.0,0.0,0.0,0.0,0.0,0.0,0.0,0.0,0.0,0.0,0.0,0.0,0.0,0.0,0.0,0.0,0.0,0.0,0.0,0.0,0.0,0.0,0.0,0.0,0.0,0.0,0.0,0.0,0.0,0.0,0.0,0.0,0.0,0.0,0.0,0.0,0.0,0.0,0.0,0.0,0.0,0.0,0.0,0.0,0.0,0.0,0.0,0.0,0.0,0.0,0.0,0.0,0.0,0.0,0.0,0.0,0.0,0.0,0.0,0.0,0.0,0.0,0.0,0.0,0.0,0.0,0.0,0.0,-4.967,-5.2255,-5.4055,-5.4343,-5.3873,-5.3462,-5.3222,-5.1813,-4.9978,-4.7597,0.0,0.0,0.0,0.0,0.0,0.0,0.0,0.0,0.0,0.0,0.0,0.0,0.0,0.0,0.0,0.0,0.0,0.0,0.0,0.0,0.0,0.0,0.0,0.0,0.0,0.0,0.0,0.0,0.0,0.0,0.0,0.0,0.0,0.0,0.0,0.0,0.0,0.0,0.0,0.0,0.0,0.0,0.0,0.0,0.0,0.0,0.0,0.0,0.0,0.0,0.0,0.0,0.0,0.0,0.0,0.0,0.0,0.0,0.0,0.0,0.0,0.0,0.0,0.0,0.0,0.0,0.0,0.0,0.0,0.0,0.0,0.0,0.0,0.0,0.0,0.0,0.0,0.0,0.0,0.0,0.0,0.0,0.0,0.0,0.0,0.0,0.0,0.0,0.0,0.0,0.0,0.0,0.0,0.0,0.0,0.0,0.0,0.0,0.0,0.0,0.0,0.0,-4.8325,-5.0673,-5.2384,-5.277,-5.244,-5.211,-5.2039,-5.1265,-4.9763,-4.7394,0.0,0.0,0.0,0.0,0.0,0.0,0.0,0.0,0.0,0.0,0.0,0.0,0.0,0.0,0.0,0.0,0.0,0.0,0.0,0.0,0.0,0.0,0.0,0.0,0.0,0.0,0.0,0.0,0.0,0.0,0.0,0.0,0.0,0.0,0.0,0.0,0.0,0.0,0.0,0.0,0.0,0.0,0.0,0.0,0.0,0.0,0.0,0.0,0.0,0.0,0.0,0.0,0.0,0.0,0.0,0.0,0.0,0.0,0.0,0.0,0.0,0.0,0.0,0.0,0.0,0.0,0.0,0.0,0.0,0.0,0.0,0.0,0.0,0.0,0.0,0.0,0.0,0.0,0.0,0.0,0.0,0.0,0.0,0.0,0.0,0.0,0.0,0.0,0.0,0.0,0.0,0.0,0.0,0.0,0.0,0.0,0.0,0.0,0.0,0.0,0.0,0.0,-4.7706,-4.9147,-5.0462,-5.1383,-5.0704,-5.0439,-5.1065,-5.0473,-4.9407,-4.7787,0.0,0.0,0.0,0.0,0.0,0.0,0.0,0.0,0.0,0.0,0.0,0.0,0.0,0.0,0.0,0.0,0.0,0.0,0.0,0.0,0.0,0.0,0.0,0.0,0.0,0.0,0.0,0.0,0.0,0.0,0.0,0.0,0.0,0.0,0.0,0.0,0.0,0.0,0.0,0.0,0.0,0.0,0.0,0.0,0.0,0.0,0.0,0.0,0.0,0.0,0.0,0.0,0.0,0.0,0.0,0.0,0.0,0.0,0.0,0.0,-5.1192,0.0,0.0,0.0,0.0,0.0,0.0,0.0,0.0,0.0,0.0,0.0,0.0,0.0,0.0,0.0,0.0,0.0,0.0,0.0,0.0,0.0,0.0,0.0,0.0,0.0,0.0,0.0,0.0,0.0,0.0,0.0,0.0,0.0,0.0,0.0,0.0,0.0,0.0,0.0,0.0,0.0,-4.7716,-4.9688,-5.1036,-5.1248,-5.1065,-5.0794,-5.0371,-5.0185,-4.8968,-4.6346,-4.5331,0.0,0.0,0.0,0.0,0.0,0.0,0.0,0.0,0.0,0.0,0.0,0.0,0.0,0.0,0.0,0.0,0.0,0.0,0.0,0.0,0.0,0.0,0.0,0.0,0.0,0.0,0.0,0.0,0.0,0.0,0.0,0.0,0.0,0.0,0.0,0.0,0.0,0.0,0.0,0.0,0.0,0.0,0.0,0.0,0.0,0.0,0.0,0.0,0.0,0.0,0.0,0.0,0.0,0.0,0.0,0.0,0.0,0.0,0.0,0.0,-5.1587,0.0,0.0,0.0,0.0,0.0,0.0,0.0,0.0,0.0,0.0,0.0,0.0,0.0,0.0,0.0,0.0,0.0,0.0,0.0,0.0,0.0,0.0,0.0,0.0,0.0,0.0,0.0,0.0,0.0,0.0,0.0,0.0,0.0,0.0,0.0,0.0,0.0,0.0,0.0,0.0,-4.621,-4.8562,-5.0016,-4.963,-4.9596,-4.9323,-4.8578,-4.8832,-4.8088,-4.5838,-4.4993,0.0,0.0,0.0,0.0,0.0,0.0,0.0,0.0,0.0,0.0,0.0,0.0,0.0,0.0,0.0,0.0,0.0,0.0,0.0,0.0,0.0,0.0,0.0,0.0,0.0,0.0,0.0,0.0,0.0,0.0,0.0,0.0,0.0,0.0,0.0,0.0,0.0,0.0,0.0,0.0,0.0,0.0,0.0,0.0,0.0,0.0,0.0,0.0,0.0,0.0,0.0,0.0,0.0,-5.5422,-5.5842,-5.588,-5.7275,-5.7218,-5.5982,-5.4871,-5.3939,-5.3118,-5.1862,0.0,0.0,0.0,0.0,0.0,0.0,0.0,0.0,0.0,0.0,0.0,0.0,0.0,0.0,0.0,0.0,0.0,0.0,0.0,0.0,0.0,0.0,0.0,0.0,-4.951,-4.877,0.0,0.0,0.0,0.0,0.0,0.0,0.0,0.0,0.0,0.0,0.0,0.0,-4.4953,-4.7327,-4.8731,-4.7973,-4.7889,-4.7614,-4.6853,-4.7361,-4.7141,-4.5788,-4.4993,-4.3988,0.0,0.0,0.0,0.0,0.0,0.0,0.0,0.0,0.0,0.0,0.0,0.0,0.0,0.0,0.0,0.0,0.0,0.0,0.0,0.0,0.0,0.0,0.0,0.0,0.0,0.0,0.0,0.0,0.0,0.0,0.0,0.0,-4.7749,-4.8141,0.0,0.0,0.0,0.0,0.0,0.0,0.0,0.0,0.0,0.0,0.0,0.0,0.0,-5.3015,-5.376,-5.5307,-5.6148,-5.6282,-5.7141,-5.7562,-5.7581,-5.7791,-5.8154,-5.8599,-5.8424,0.0,-5.4396,-5.3461,0.0,0.0,0.0,0.0,0.0,0.0,0.0,0.0,0.0,0.0,0.0,0.0,0.0,0.0,0.0,0.0,0.0,0.0,0.0,0.0,0.0,0.0,-5.1107,-5.1899,-5.2015,-5.154,0.0,-4.7938,-4.6097,-4.4911,-4.4876,0.0,0.0,0.0,0.0,0.0,0.0,0.0,-4.6329,-4.797,-4.8731,-4.7973,-4.7889,-4.7614,-4.6853,-4.6887,-4.6583,-4.5754,-4.4993,-4.4181,-4.3274,-4.1847,0.0,0.0,0.0,0.0,0.0,0.0,0.0,0.0,0.0,0.0,0.0,0.0,0.0,0.0,0.0,0.0,0.0,0.0,0.0,0.0,0.0,0.0,0.0,0.0,0.0,0.0,0.0,0.0,0.0,-4.7735,-4.9015,-4.9128,-4.993,-4.9921,0.0,0.0,0.0,0.0,0.0,0.0,0.0,0.0,0.0,-5.231,-5.3593,-5.4658,-5.5498,-5.6721,-5.7562,-5.802,-5.8402,-5.8822,-5.93,-5.93,-5.9491,-5.9835,-5.9835,-5.9097,-5.7767,-5.5951,-5.4258,-5.2702,0.0,0.0,0.0,0.0,-5.0112,-5.0166,-5.0615,-5.0524,0.0,-5.0148,0.0,0.0,0.0,0.0,0.0,0.0,0.0,0.0,0.0,0.0,-5.1484,-5.2299,-5.2154,-5.1629,-5.0945,-4.955,-4.7982,0.0,-4.6163,-4.5593,-4.3844,0.0,0.0,0.0,0.0,-4.5128,-4.5506,-4.6836,-4.7479,-4.6752,-4.6667,-4.6363,-4.5647,-4.594,-4.5872,-4.5111,-4.4784,-4.4445,-4.4079,-4.2625,-4.166,0.0,0.0,0.0,0.0,0.0,0.0,0.0,0.0,0.0,0.0,0.0,0.0,0.0,0.0,0.0,0.0,0.0,0.0,0.0,0.0,0.0,0.0,0.0,0.0,0.0,0.0,0.0,0.0,-4.8863,-5.0125,-5.0229,-5.0992,-5.1169,0.0,0.0,0.0,0.0,0.0,0.0,-5.255,-5.3045,-5.3487,-5.3869,-5.5479,-5.6625,-5.7218,-5.8096,-5.8842,-5.9434,-5.9434,-5.9778,-6.0403,-6.0403,-6.0403,-6.0403,-6.0403,-6.0403,-6.0213,-5.7863,-5.5977,-5.4383,-5.2959,-5.1964,-5.1348,-5.1325,-5.1194,-5.1104,-5.1701,-5.1629,-5.123,-5.0832,0.0,-4.9894,-4.8677,0.0,0.0,0.0,0.0,-4.9528,-5.0941,-5.1285,-5.1448,-5.2045,-5.1737,-5.1176,-5.076,-5.0216,-4.9332,0.0,-4.7496,-4.6874,-4.4991,0.0,0.0,0.0,0.0,-4.5194,-4.4908,-4.5991,-4.6515,-4.5788,-4.5703,-4.5399,-4.4666,-4.5094,-4.5179,-4.4632,-4.4615,-4.4615,-4.4615,-4.3515,-4.2777,-4.2591,0.0,0.0,0.0,0.0,0.0,0.0,0.0,0.0,0.0,0.0,0.0,0.0,0.0,0.0,0.0,0.0,0.0,0.0,0.0,0.0,0.0,0.0,0.0,0.0,0.0,0.0,0.0,0.0,0.0,-5.1123,-5.1906,0.0,0.0,0.0,0.0,-5.22,-5.3596,-5.4371,-5.4371,-5.6476,-5.7322,-5.6518,-5.8066,-5.8923,-5.8962,-5.9835,-6.0288,-6.0332,-6.0332,-6.0365,-6.0403,-6.0403,-6.0403,-6.0403,-6.0403,-6.0403,-6.027,-5.8487,-5.7679,-5.7398,-5.5544,-5.4807,-5.4766,-5.4683,-5.4182,-5.353,-5.3566,-5.257,-5.1411,-5.2136,-5.1339,-5.0093,-5.0003,-4.9456,0.0,0.0,-4.9456,-5.0238,-5.1067,-5.1285,-5.1303,-5.1339,-5.1321,-5.0868,-4.9343,-4.8981,-4.8927,0.0,-4.8797,-4.8355,-4.6989,0.0,-4.5556,-4.5183,-4.5234,-4.5383,-4.5591,-4.6312,-4.6515,-4.5788,-4.5703,-4.5399,-4.4666,-4.4632,-4.4649,-4.4615,-4.4615,-4.4615,-4.4615,-4.453,-4.4113,-4.3341,-4.1914,0.0,0.0,0.0,0.0,0.0,0.0,0.0,0.0,0.0,0.0,0.0,0.0,0.0,0.0,0.0,0.0,0.0,0.0,0.0,0.0,0.0,0.0,0.0,0.0,0.0,0.0,0.0,0.0,-5.2098,-5.3812,0.0,-5.3116,-5.3599,-5.4022,-5.4134,-5.5438,-5.6265,-5.6306,-5.7915,-5.8687,-5.8381,-5.9393,-5.9931,-5.9931,-6.0236,-6.0403,-6.0403,-6.0403,-6.0403,-6.0403,-6.0403,-6.0403,-6.0403,-6.0403,-6.0403,-6.0323,-5.9433,-5.8588,-5.7698,-5.6678,-5.5757,-5.5002,-5.4937,-5.4399,-5.3693,-5.3693,-5.2987,-5.2118,-5.2408,-5.1756,-5.0873,-5.0873,-5.0307,-4.9782,-5.0307,-5.0651,-5.1049,-5.1846,-5.1683,-5.1285,-5.1285,-5.0506,-4.9601,-4.9018,-4.8475,-4.8113,-4.8113,-4.8113,-4.7979,-4.7483,-4.7194,-4.6689,-4.5723,-4.5709,-4.5553,-4.4824,-4.5099,-4.5077,-4.4288,-4.4688,-4.4902,-4.4632,-4.4615,-4.4615,-4.4615,-4.4615,-4.4615,-4.4615,-4.4615,-4.4215,-4.3409,-4.2422,-4.095,0.0,0.0,0.0,0.0,0.0,0.0,0.0,0.0,0.0,0.0,0.0,0.0,0.0,0.0,0.0,0.0,0.0,0.0,0.0,0.0,0.0,0.0,0.0,0.0,0.0,0.0,-5.2263,-5.257,-5.4344,-5.5244,-5.444,-5.5338,-5.5857,-5.5629,-5.6906,-5.7726,-5.778,-5.9044,-5.9766,-5.9766,-6.0193,-6.0431,-6.0431,-6.0403,-6.0403,-6.0403,-6.0403,-6.0403,-6.0403,-6.0403,-6.0403,-6.0403,-6.0403,-6.0403,-6.0375,-6.0114,-5.9335,-5.8222,-5.7691,-5.6834,-5.5873,-5.5789,-5.5039,-5.4037,-5.3476,-5.2951,-5.2498,-5.2498,-5.2136,-5.1701,-5.1701,-5.1321,-5.1036,-5.1538,-5.1701,-5.1756,-5.2027,-5.1701,-5.1158,-5.0615,-4.9691,-4.8818,-4.8547,-4.8076,-4.7717,-4.7717,-4.7717,-4.7717,-4.7717,-4.7717,-4.7198,-4.5681,-4.5629,-4.5204,-4.3743,-4.3715,-4.3707,-4.3426,-4.3876,-4.4327,-4.4581,-4.4333,-4.4299,-4.4581,-4.4124,-4.3955,-4.4181,-4.3944,-4.3555,-4.3047,-4.2049,-4.0696,-3.8988,0.0,0.0,0.0,0.0,0.0,0.0,0.0,0.0,0.0,0.0,0.0,0.0,0.0,0.0,0.0,0.0,0.0,0.0,0.0,0.0,0.0,0.0,0.0,-4.8736,-5.0252,-5.1709,-5.2545,-5.3442,-5.4332,-5.5257,-5.5357,-5.5728,-5.6547,-5.7882,-5.8674,-5.8706,-5.9957,-6.0678,-6.0697,-6.0578,-6.0499,-6.0499,-6.0431,-6.0403,-6.0403,-6.0403,-6.0403,-6.0403,-6.0403,-6.0403,-6.0403,-6.0403,-6.0403,-6.0403,-6.0403,-5.9922,-5.914,-5.8611,-5.809,-5.7577,-5.7419,-5.6315,-5.4653,-5.3041,-5.2498,-5.2498,-5.2498,-5.2498,-5.2498,-5.2498,-5.2498,-5.2498,-5.2498,-5.248,-5.2281,-5.1484,-5.1249,-5.0832,-4.9253,-4.8873,-4.8637,-4.788,-4.7717,-4.7678,-4.7681,-4.7663,-4.7663,-4.7663,-4.7624,-4.7021,-4.5276,-4.5022,0.0,-4.2575,-4.2383,-4.2661,-4.3295,-4.3386,-4.3724,-4.4513,-4.3826,-4.3724,-4.4513,-4.3132,-4.2625,-4.3325,-4.2675,-4.2286,-4.2286,-4.0857,-3.9757,-3.9022,0.0,0.0,0.0,0.0,0.0,0.0,0.0,0.0,0.0,0.0,0.0,0.0,0.0,0.0,0.0,0.0,0.0,0.0,0.0,0.0,0.0,-4.7944,-4.9658,-4.9393,-5.1617,-5.3347,-5.3589,-5.4936,-5.5953,-5.6216,-5.6762,-5.6977,-5.6626,-5.742,-5.8145,-5.8674,-5.9465,-6.0148,-6.0678,-6.0578,-6.0499,-6.0499,-6.0431,-6.0403,-6.0403,-6.0403,-6.0403,-6.0403,-6.0403,-6.0403,-6.0403,-6.0403,-6.0403,-6.0403,-6.0403,-5.9922,-5.9197,-5.8932,-5.8317,-5.7528,-5.6782,-5.548,-5.3892,-5.286,-5.2498,-5.2498,-5.2498,-5.2498,-5.2498,-5.2498,-5.2498,-5.2498,-5.2498,-5.2063,-5.1574,-5.1357,-5.0434,-4.9456,-4.8999,-4.8438,-4.7989,-4.7753,-4.7717,-4.7536,-4.6939,-4.683,-4.683,-4.683,-4.6359,-4.5789,-4.5288,-4.5378,0.0,-4.3308,-4.424,-4.4358,-4.2499,-4.3314,-4.3911,-4.3735,-4.3047,-4.2912,-4.369,-4.2828,-4.2388,-4.2591,-4.2405,-4.2286,-4.2286,-4.0857,-4.0011,0.0,0.0,0.0,0.0,0.0,0.0,0.0,0.0,0.0,0.0,0.0,0.0,0.0,0.0,0.0,0.0,0.0,0.0,0.0,0.0,0.0,0.0,-4.8694,-5.0574,-5.0379,-5.1835,-5.3171,-5.3912,-5.4888,-5.5806,-5.6528,-5.7016,-5.7094,-5.6645,-5.7225,-5.7925,-5.8654,-5.9295,-5.9965,-6.0678,-6.061,-6.0565,-6.0499,-6.0458,-6.0431,-6.0403,-6.0403,-6.0403,-6.0403,-6.0403,-6.0403,0.0,-6.0403,-6.0403,-6.0403,-6.0403,-5.9809,0.0,0.0,0.0,0.0,0.0,-5.4544,-5.3585,-5.277,-5.2498,-5.2498,-5.2498,-5.2498,-5.2498,-5.2498,-5.2498,-5.2426,-5.2082,-5.1647,-5.114,-5.047,-4.9601,-4.8818,-4.8475,-4.8022,-4.7717,-4.7717,-4.7446,-4.7065,-4.6595,-4.5961,0.0,-4.549,-4.5399,-4.5231,-4.5029,-4.5136,-4.4844,-4.3744,-4.4331,-4.4334,-4.3,-4.3477,-4.3873,-4.3904,-4.2912,0.0,0.0,0.0,-4.1399,-4.1399,-4.1399,0.0,0.0,0.0,0.0,0.0,0.0,0.0,0.0,-3.9022,-3.8937,0.0,0.0,0.0,0.0,0.0,0.0,0.0,0.0,0.0,0.0,0.0,0.0,0.0,0.0,0.0,0.0,-4.9293,-5.1394,-5.1394,-5.1394,-5.2058,-5.3795,-5.401,-5.4674,-5.643,-5.6606,-5.6606,-5.6606,-5.7127,-5.777,-5.8499,0.0,0.0,0.0,0.0,-6.054,-6.0512,-6.0499,-6.0472,-6.0403,-6.0403,-6.0403,-6.0403,-6.0403,-6.0403,-6.0403,-6.0403,-6.0403,-6.0403,-6.0288,-5.9511,-5.8397,-5.8724,-5.7726,-5.5918,-5.4319,-5.3663,-5.3458,-5.2752,0.0,0.0,-5.2498,-5.2498,-5.2498,-5.2498,-5.2426,-5.2208,-5.1484,-5.1158,-5.0705,-4.9253,-4.8818,-4.8565,-4.788,-4.7717,-4.7681,-4.7591,-4.7011,-4.645,-4.6269,-4.5073,-4.4059,-4.3969,-4.4548,-4.4917,-4.4578,-4.4603,-4.447,-4.3918,-4.3598,-4.3511,-4.3793,0.0,0.0,-4.4175,-4.2905,-4.2371,-4.3115,-4.1221,-4.0096,-4.0096,-4.0096,-4.0096,-4.0096,-4.0096,-4.0096,-4.0096,-4.0096,-4.0096,-4.0079,-3.8751,-3.8497,0.0,0.0,0.0,0.0,0.0,0.0,0.0,0.0,0.0,0.0,0.0,0.0,0.0,0.0,0.0,-4.8964,-5.0356,-5.1394,-5.1394,-5.1394,-5.2058,-5.3795,-5.401,-5.4674,-5.643,-5.6606,-5.6606,-5.6606,-5.6569,-5.6865,-5.7612,-5.7663,-5.8308,-5.9692,-5.9672,-5.9957,-6.0559,-6.0525,-6.0472,-6.0403,0.0,0.0,-6.0403,-6.0403,-6.0403,-6.0403,-6.0403,-6.0403,-6.0365,-5.9644,-5.8639,-5.7459,-5.6799,-5.5686,-5.441,-5.3958,-5.3352,-5.2715,-5.2552,-5.2498,-5.2498,-5.2498,-5.2498,-5.2498,-5.2498,-5.2045,0.0,-5.1339,-5.0361,-4.9289,-4.8981,-4.842,-4.7877,-4.7732,-4.7717,-4.7515,-4.6884,-4.6613,-4.6124,-4.482,-4.4313,-4.3878,-4.3245,-4.3263,-4.3551,-4.4124,-4.4755,-4.4775,-4.3654,-4.452,-4.4288,-4.1726,-4.1953,-4.2158,-4.1873,-4.1035,-4.0832,-4.1593,-4.0688,-4.0096,-4.0096,-4.0096,-4.0096,-4.0096,-4.0096,-4.0096,-4.0096,-4.0096,-4.0096,-4.0096,-3.9808,-3.9757,0.0,0.0,0.0,0.0,0.0,0.0,0.0,0.0,0.0,0.0,0.0,-4.6297,-4.7235,0.0,-4.9684,-5.0436,-5.1023,-5.1394,-5.1394,-5.1394,-5.1921,-5.3385,-5.4049,-5.4986,-5.6469,-5.6606,-5.6555,-5.6469,-5.6352,-5.6591,-5.7253,-5.7235,-5.7892,-5.94,-5.9422,-5.9772,-6.0533,-6.0512,-6.0472,-6.0403,-6.0403,-6.0403,-6.0403,-6.0403,-6.0403,-6.0403,-6.0403,-6.0141,-5.9644,-5.8364,-5.7277,-5.6319,-5.5379,-5.4712,-5.4209,-5.3472,-5.2903,-5.2498,-5.2498,-5.2498,-5.2498,-5.2498,-5.2498,-5.2426,-5.2009,-5.1611,-5.1122,-5.0325,-4.9528,-4.88,-4.8384,-4.7986,-4.7717,-4.7717,-4.7391,-4.6993,-4.6595,-4.587,-4.5055,-4.4258,-4.3769,-4.3371,-4.2973,-4.2901,-4.3173,-4.3969,-4.444,-4.4536,-4.4046,-4.4467,-4.4055,-4.2165,-4.2062,-4.2023,-4.1771,-4.1068,-4.0646,-4.0646,-4.0316,-4.0096,-4.0096,-4.0096,-4.0096,-4.0096,-4.0096,-4.0096,-4.0096,-4.0096,-4.0096,-4.0096,-4.0096,-4.0096,0.0,0.0,0.0,0.0,0.0,0.0,0.0,-4.4808,-4.4559,-4.4045,-4.576,-4.7418,-4.7677,-4.9006,-5.0343,-5.1171,-5.1335,-5.1362,-5.1401,-5.1408,-5.1746,-5.2661,-5.3971,-5.5279,-5.6489,-5.6558,-5.6475,-5.6316,-5.6257,-5.6433,-5.693,-5.6915,-5.7534,-5.8884,-5.8942,-5.935,-6.0263,-6.0263,-6.03,-6.0403,-6.0403,-6.0403,-6.0403,-6.0403,-6.0313,-6.0141,-5.9969,-5.9415,-5.8517,-5.716,-5.6111,-5.5281,-5.4451,-5.4224,-5.4232,-5.3032,-5.2559,-5.2498,-5.2498,-5.2498,-5.2498,-5.2498,-5.2498,-5.2353,-5.1538,-5.1176,-5.076,-4.9311,-4.8782,-4.8511,-4.788,-4.7717,-4.7717,-4.7717,-4.7102,-4.6468,-4.6305,-4.5128,-4.4041,-4.3896,-4.3354,-4.2901,-4.2901,-4.2901,-4.3173,-4.3969,-4.4095,-4.4175,-4.4332,-4.3925,-4.3348,-4.2728,-4.2194,-4.1863,-4.1863,-4.1322,-4.073,-4.0146,-4.0096,-4.0096,-4.0096,-4.0096,-4.0096,-4.0096,-4.0096,-4.0096,-4.0096,-4.0096,-4.0096,-4.0096,-4.0096,-4.0096,-4.1227,-4.0924,-4.0975,-4.2828,-4.2884,-4.3093,0.0,-4.5341,-4.5001,-4.5729,-4.6741,-4.7694,-4.8424,-4.9301,-5.0178,-5.0927,-5.1146,-5.1253,-5.137,-5.1405,-5.1451,-5.1585,-5.3481,-5.5279,-5.6489,-5.6443,-5.632,-5.6292,-5.6078,-5.5968,-5.6051,-5.5924,-5.6312,-5.7242,-5.728,-5.7962,-5.9409,-5.9428,-5.9746,-6.0403,-6.0403,-6.0403,-6.0403,-6.0403,-5.9969,-5.9224,-5.8498,-5.7695,-5.6855,-5.6683,-5.5921,-5.4829,-5.4416,-5.3981,-5.3476,-5.2831,-5.2559,-5.2498,-5.2498,-5.2498,-5.2498,-5.2498,-5.2498,-5.2353,-5.1538,-5.0818,-5.0035,-4.9144,-4.8384,-4.7805,-4.7735,-4.7717,-4.7717,-4.7717,-4.7102,-4.6305,-4.5599,-4.4729,-4.3878,-4.3173,-4.2955,-4.2901,-4.2901,-4.2901,-4.3173,-4.3969,-4.4095,-4.3976,-4.3581,-4.3134,-4.2357,-4.1183,-4.0616,-4.035,-4.035,-4.0282,-4.0197,-4.0113,-4.0096,-4.0096,-4.0096,-4.0096,-4.0096,-4.0096,-4.0096,-4.0096,-4.0096,-4.0096,-4.0096,-4.0096,-4.0096,-4.0096,-4.0891,-4.1589,-4.241,-4.3222,-4.3898,-4.4635,-4.5733,-4.6119,-4.6207,-4.6013,-4.7529,-4.883,-4.8623,-4.9659,-5.0636,-5.0956,-5.1047,-5.1137,-5.1254,-5.1351,-5.1393,-5.1403,-5.4041,-5.5996,-5.6393,-5.6352,-5.6242,-5.6078,-5.5959,-5.5863,-5.5789,-5.5737,-5.6088,-5.6964,-5.6959,-5.7486,-5.8591,-5.9039,-5.9375,-5.9644,-6.016,-6.0122,-5.9644,-5.9644,-5.9185,-5.8345,-5.7504,-5.6931,-5.6549,-5.6091,-5.5361,-5.4495,-5.4277,-5.372,-5.303,-5.2809,-5.2622,-5.2498,-5.2498,-5.2498,-5.2498,-5.2498,-5.2172,-5.1647,-5.0854,-5.0035,-4.9238,-4.842,-4.795,-4.7717,-4.7717,-4.7717,-4.7591,-4.712,-4.6395,-4.558,-4.4784,-4.3969,-4.3299,-4.2973,-4.2901,-4.2901,-4.2901,-4.2901,-4.2846,-4.2719,-4.3099,-4.3236,-4.2759,-4.2533,-4.2,-4.0931,-4.0377,-4.0096,-4.0096,-4.0096,-4.0096,-4.0096,-3.9706,-3.9469,-3.9469,-3.9469,-3.9469,-3.9469,-3.9893,-4.0096,-4.0096,-4.0096,-4.0096,-4.0096,-4.0096,-4.0096,-4.0984,-4.1873,-4.2855,-4.334,-4.418,-4.493,-4.5148,-4.5886,-4.6341,-4.5646,-4.7441,-4.9012,-4.8532,-4.9627,-5.0681,-5.088,-5.0946,-5.0992,-5.105,-5.1198,-5.1268,-5.1217,-5.4246,-5.6666,-5.747,-5.6745,-5.6123,-5.5932,-5.5863,-5.5789,-5.5714,-5.5703,-5.5992,-5.6618,-5.6582,-5.6936,-5.7728,-5.826,-5.8616,-5.8784,-5.9415,-5.9376,-5.8765,-5.8517,-5.8096,-5.7485,-5.6645,-5.6262,-5.6224,-5.5651,-5.5028,-5.4413,-5.4225,-5.3683,-5.2987,-5.285,-5.2667,-5.2498,-5.2498,-5.2498,-5.2462,-5.2226,-5.1756,-5.1104,-5.0071,-4.9365,-4.8728,-4.7935,-4.7717,-4.7717,-4.7717,-4.7554,-4.7228,-4.6649,-4.5725,-4.4802,-4.4222,-4.3462,-4.2901,-4.2901,-4.2901,-4.2901,-4.2901,-4.2719,-4.2375,-4.1795,-4.2013,-4.219,-4.2078,-4.2032,-4.1652,-4.0707,-4.0303,-4.0096,-4.0096,-4.0096,-4.0011,-3.9808,-3.9317,-3.8903,-3.87,-3.87,-3.87,-3.87,-3.9208,-3.9503,-3.9503,-3.9503,-3.9605,-3.9808,-3.9808,-3.991,-4.2144,-4.1621,-4.1457,-4.3012,-4.2853,-4.251,-4.3214,-4.4056,-4.4694,-4.4729,-4.6094,-4.7486,-4.8181,-4.9042,-4.9876,-5.0586,-5.0827,-5.0863,-5.072,-5.0894,-5.0945,-5.0745,-5.3676,-5.704,-6.0336,-5.7828,-5.5984,-5.5907,-5.5779,-5.5695,-5.5703,-5.5703,-5.5703,-5.5742,-5.5742,-5.6079,-5.6834,-5.6853,-5.7232,-5.7944,-5.7963,-5.7963,-5.7905,-5.7065,-5.6658,-5.6587,-5.5785,-5.5441,-5.5441,-5.5422,-5.5173,-5.4746,-5.4413,-5.3961,-5.3431,-5.2965,-5.2667,-5.2498,-5.2498,-5.2498,-5.2371,-5.1574,-5.1303,-5.0995,-4.942,-4.8909,-4.8728,-4.7935,-4.7717,-4.7717,-4.7717,-4.712,-4.654,-4.6504,-4.5291,-4.4132,-4.4095,-4.3462,-4.2901,-4.2901,-4.2901,-4.2901,-4.2901,-4.2248,-4.1723,-4.1705,-4.1053,-4.0854,-4.1614,-4.1594,-4.1162,-4.0204,-4.0096,-4.0096,-4.0096,-4.0096,-3.9791,-3.9073,-3.9005,-3.8684,-3.7973,-3.7939,-3.7939,-3.7939,-3.7973,-3.7973,-3.7973,-3.7973,-3.8328,-3.9022,-3.9022,-3.9436,-4.2194,-4.2469,-4.2829,-4.3291,-4.3167,-4.2981,-4.3238,-4.3911,-4.4472,-4.4491,-4.5873,-4.7284,-4.8037,-4.9351,-5.0412,-5.0664,-5.1665,-5.202,-5.0864,-5.0766,-5.1592,-5.3769,-5.5006,-5.6146,-5.7292,-5.7486,0.0,-5.6675,-5.6603,-5.631,-5.5722,-5.5703,-5.5703,-5.5703,-5.5703,-5.5783,-5.5945,-5.6508,-5.6887,-5.7027,-5.7027,-5.7027,-5.7008,-5.6186,-5.5804,-5.5785,-5.5517,-5.5403,-5.5403,-5.5403,-5.5154,-5.4761,-5.443,-5.3961,-5.3451,-5.3072,-5.2783,-5.2559,-5.2503,-5.2136,-5.1647,-5.1375,-5.0578,-4.9619,-4.9054,-4.8529,-4.8061,-4.779,-4.7717,-4.7591,-4.7047,-4.6703,-4.6232,-4.5164,-4.4476,-4.3951,-4.3407,-4.31,-4.2901,-4.2901,-4.2901,-4.2719,-4.2212,-4.1868,-4.1343,-4.0329,-4.0544,-4.093,-4.1199,-4.1133,-4.0902,-4.0604,-3.9853,-3.9385,-3.9385,-3.892,-3.8531,-3.8294,-3.7804,-3.7438,-3.7161,-3.7161,-3.7161,-3.7161,-3.7652,-3.7905,-3.7905,-3.7905,-3.8278,-3.8988,-3.8988,-3.9394,-4.2976,-4.3152,-4.3194,-4.3325,-4.2876,-4.248,-4.2718,-4.3364,-4.4014,-4.4291,-4.575,-4.7196,-4.7951,-4.926,-5.0346,-5.0654,-5.1856,-5.225,-5.0885,-5.07,-5.1497,-5.3664,-5.4962,-5.6173,-5.7396,-5.7987,0.0,-5.7206,-5.6772,-5.6291,-5.5722,-5.5703,-5.5703,-5.5703,-5.5703,-5.5649,-5.5504,-5.6048,-5.6275,-5.6167,-5.6167,-5.6167,-5.6148,-5.5651,-5.5403,-5.5403,-5.5403,-5.5403,-5.5403,-5.5403,-5.526,-5.4976,-5.4607,-5.4173,-5.3627,-5.2972,-5.2498,-5.2209,-5.2155,-5.1783,-5.1194,-5.0633,-4.9745,-4.8837,-4.8547,-4.8094,-4.7717,-4.7717,-4.7717,-4.7518,-4.6721,-4.6287,-4.5743,-4.4403,-4.3878,-4.3516,-4.3009,-4.2901,-4.2901,-4.2901,-4.2665,-4.2321,-4.1795,-4.1234,-4.0456,-3.9152,-3.9641,-4.019,-4.0316,-4.0762,-4.0926,-4.058,-3.9632,-3.8988,-3.8988,-3.8328,-3.7787,-3.7516,-3.7043,-3.6677,-3.6366,-3.6366,-3.6366,-3.6366,-3.684,-3.707,-3.707,-3.707,-3.7601,-3.8616,-3.8616,-3.914,-4.4334,-4.3649,-4.2578,-4.3149,-4.2105,-4.107,-4.1674,-4.2508,-4.3374,-4.4143,-4.5643,-4.7086,-4.7952,-4.8856,-4.974,-5.0616,-5.151,-5.1798,-5.0951,-5.091,-5.0917,-5.0841,-5.3719,-5.6975,-6.0222,-5.9183,0.0,-5.736,0.0,-5.5742,-5.5703,-5.5703,-5.5703,-5.5703,-5.5703,-5.5649,-5.5504,-5.5492,-5.547,-5.5403,-5.5403,-5.5403,-5.5403,-5.5403,-5.5403,-5.5403,-5.5403,-5.5403,-5.5403,-5.5403,-5.5403,-5.5364,-5.4962,-5.4503,-5.3899,-5.266,-5.1885,-5.1427,-5.1391,-5.1306,-5.0923,-4.942,-4.8873,-4.8692,-4.7913,-4.7717,-4.7717,-4.7717,-4.7717,-4.7518,-4.6667,-4.587,-4.5091,-4.424,-4.3463,-4.2901,-4.2901,-4.2901,-4.2901,-4.2901,-4.223,-4.1632,-4.1632,-4.0365,-3.9079,-3.8317,-3.842,-3.872,-3.9094,-4.042,-4.1012,-4.0178,-3.9351,-3.8886,-3.8886,-3.821,-3.7483,-3.6795,-3.6745,-3.64,-3.5633,-3.56,-3.56,-3.56,-3.56,-3.56,-3.56,-3.56,-3.6377,-3.7905,-3.7905,-3.8684,-4.4305,-4.3807,-4.303,-4.3195,-4.2898,-4.244,-4.1932,-4.2951,-4.4047,-4.4259,-4.5163,-4.6374,-4.7836,-4.9336,-5.0644,-5.1471,-5.3356,-5.4222,-5.2769,-5.3643,-5.396,-5.2709,-5.4421,-5.6028,-5.6923,-5.7783,-5.7698,0.0,-5.6472,-5.6387,-5.5722,-5.5703,-5.5703,-5.5703,-5.5703,-5.5649,-5.5504,-5.5446,-5.5409,-5.5403,-5.5403,-5.5403,-5.5403,-5.5403,-5.5403,-5.5403,-5.5403,-5.5403,-5.5403,-5.5403,-5.5403,-5.5364,-5.4962,-5.4195,-5.3271,-5.2605,-5.1639,-5.059,-4.9944,-4.9637,-4.9456,-4.9018,-4.8475,-4.7989,-4.7751,-4.7717,-4.7717,-4.7717,-4.7717,-4.7391,-4.5979,-4.5454,-4.4947,-4.3534,-4.3064,-4.2901,-4.2901,-4.2901,-4.2901,-4.2901,-4.1778,-4.08,-4.08,-3.9532,-3.8444,-3.8227,-3.8456,-3.8911,-3.9522,-3.9406,-3.9404,-3.9759,-3.8329,-3.7371,-3.7371,-3.6637,-3.6107,-3.5926,-3.591,-3.5802,-3.56,-3.56,-3.56,-3.56,-3.56,-3.56,-3.56,-3.56,-3.6377,-3.7905,-3.7905,-3.8684,-4.386,-4.335,-4.2794,-4.3123,-4.2909,-4.2676,-4.2868,-4.3624,-4.4412,-4.4778,-4.5267,-4.5998,-4.7336,-4.8971,-5.0394,-5.1241,-5.351,-5.4799,-5.3692,-5.4799,-5.5357,-5.4413,-5.5124,-5.5701,-5.569,-5.6569,-5.6753,0.0,-5.6154,-5.6233,-5.5722,-5.5703,-5.5703,-5.5703,-5.5703,-5.5649,-5.5504,-5.5428,-5.5403,-5.5403,-5.5403,-5.5403,-5.5403,-5.5403,-5.5403,-5.5403,0.0,-5.5403,-5.5403,-5.5403,-5.5174,-5.4817,-5.4569,-5.3745,-5.2567,-5.1793,-5.0879,-4.987,-4.8912,-4.8472,-4.8366,-4.8366,-4.8079,-4.7717,-4.7717,-4.7717,-4.7717,-4.7717,-4.7464,-4.6884,-4.5635,-4.5037,-4.4458,-4.3209,-4.2901,-4.2901,-4.2901,-4.2901,-4.2702,-4.1977,-4.1126,-4.0275,-3.9604,-3.8597,-3.788,-3.788,-3.7898,-3.8185,-3.8965,-3.8775,-3.8642,-3.8881,-3.7636,-3.6795,-3.6795,-3.6062,-3.56,-3.56,-3.56,-3.56,-3.56,-3.56,-3.56,-3.56,-3.56,-3.56,-3.56,-3.56,-3.6248,-3.7432,-3.7753,-3.8514,-4.3421,-4.2722,-4.2214,-4.2983,-4.2691,-4.2572,-4.3984,-4.4393,-4.4682,-4.5441,-4.5594,-4.5902,-4.6874,-4.8336,-4.976,-5.0846,-5.2972,-5.4434,-5.425,-5.5088,-5.5703,-5.5703,-5.5703,-5.5703,-5.5701,-5.5692,-5.5703,-5.5701,-5.5692,-5.5703,-5.5703,-5.5703,-5.5703,-5.5703,-5.5703,-5.5618,-5.5504,-5.544,-5.5403,-5.5403,-5.5403,-5.5403,-5.5403,-5.5403,-5.5403,-5.5403,-5.5288,0.0,-5.5231,-5.5097,-5.4619,-5.3932,-5.3932,-5.3133,-5.1842,-5.0845,-4.9997,-4.9229,-4.8287,-4.7842,-4.7717,-4.7717,-4.7717,-4.7717,-4.7717,-4.7717,-4.7717,-4.7717,-4.712,-4.6305,-4.5508,-4.4693,-4.3896,-4.31,-4.2901,-4.2901,-4.2901,-4.2901,-4.2448,-4.0963,-4.0564,-4.0039,-3.8625,-3.7934,-3.7578,-3.7578,-3.7246,-3.7224,-3.787,-3.816,-3.8167,-3.7878,-3.7123,-3.6643,-3.6643,-3.6011,-3.56,-3.56,-3.56,-3.56,-3.56,-3.56,-3.56,-3.56,-3.56,-3.56,-3.56,-3.56,-3.6011,-3.6829,-3.7449,-3.8159,-4.397,-4.2846,-4.1901,-4.2808,-4.347,-4.3962,-4.4239,-4.4855,-4.5421,-4.5575,-4.5594,-4.6075,-4.7605,-4.8721,-5.0144,-5.2395,-5.3741,-5.4703,-5.5318,-5.5568,-5.5703,-5.5703,-5.5703,-5.5703,-5.5703,-5.5703,0.0,0.0,-5.5703,-5.5703,-5.5703,-5.5703,-5.5703,-5.5703,-5.566,-5.5573,-5.5504,-5.542,-5.5396,-5.5403,-5.5403,-5.5403,-5.5403,-5.5403,-5.5403,-5.5365,-5.4639,0.0,-5.4276,-5.355,-5.3148,-5.3034,-5.3034,-5.2316,-5.1235,-5.0946,-4.991,-4.8643,-4.8402,-4.8034,-4.7717,-4.7717,-4.7717,-4.7717,-4.7717,-4.7717,-4.7717,-4.7717,-4.712,-4.6305,-4.5508,-4.4693,-4.3896,-4.31,-4.2901,-4.2901,-4.2901,-4.2901,-4.2611,-4.1669,-4.0945,-4.022,-3.9333,-3.8557,-3.8089,-3.8089,-3.7685,-3.7337,-3.7115,-3.6887,-3.6917,-3.7511,-3.6513,-3.5825,-3.5825,-3.5667,-3.56,-3.56,-3.56,-3.56,-3.56,-3.56,-3.56,-3.56,-3.56,-3.56,-3.56,-3.56,-3.6011,-3.6795,-3.6931,-3.7381,-4.424,-4.3542,-4.3053,-4.351,-4.4249,-4.4891,-4.4926,-4.5243,-4.5559,-4.5586,-4.5594,-4.5845,-4.6644,-4.8221,-4.9798,-5.1029,-5.2683,-5.4126,-5.4953,-5.5444,-5.5705,-5.5703,-5.5703,-5.5703,-5.5703,-5.5703,-5.5703,-5.5703,-5.5703,-5.5703,-5.5703,-5.5703,-5.5703,-5.5703,-5.5629,-5.5562,-5.5504,-5.5432,-5.5409,-5.5403,-5.5403,-5.5403,-5.5403,-5.5403,-5.5154,-5.4696,-5.4276,0.0,-5.3397,-5.2957,-5.2556,-5.2174,-5.2174,-5.1566,-5.0634,-5.0218,-4.9559,-4.8815,-4.8439,-4.809,-4.7801,-4.7801,-4.7759,-4.7717,-4.7717,-4.7428,-4.7083,-4.7083,-4.6196,-4.5164,-4.4784,-4.4077,-4.3371,-4.2992,-4.2901,-4.2901,-4.2901,-4.2574,-4.2049,-4.1234,-4.0438,-3.9677,-3.8898,-3.8237,-3.7845,-3.7845,-3.7301,-3.6801,-3.6618,-3.6199,-3.6073,-3.6471,-3.596,-3.543,-3.5064,-3.538,-3.543,-3.5064,-3.538,-3.56,-3.56,-3.56,-3.56,-3.56,-3.56,-3.56,-3.56,-3.56,-3.5785,-3.618,-3.6609,-3.6998,-4.4804,-4.4384,-4.4241,-4.4624,-4.5055,-4.5467,-4.5697,-4.5629,-4.5513,-4.5568,-4.5586,-4.5671,-4.5845,-4.7509,-4.9048,-4.9586,-5.1356,-5.3068,-5.4222,-5.5147,-5.5696,-5.5714,-5.5703,0.0,-5.5703,-5.5703,0.0,-5.5703,-5.5703,-5.5703,-5.5703,-5.5703,-5.5703,-5.5703,-5.564,-5.5585,-5.5504,-5.5456,-5.5402,-5.5403,-5.5212,-5.5116,-5.5116,-5.4925,-5.4467,-5.3817,-5.3645,0.0,0.0,-5.2346,-5.1888,-5.1322,-5.1322,-5.0913,-5.0224,-4.9632,-4.9317,-4.9099,-4.8514,-4.8148,-4.7922,-4.7902,-4.7819,-4.7681,-4.75,-4.7011,-4.6468,-4.6287,-4.52,-4.4095,-4.4095,-4.3498,-4.2901,-4.2901,-4.2901,-4.2865,-4.2683,-4.2158,-4.1415,-4.0438,-3.9804,-3.9134,-3.8354,-3.7809,-3.7505,-3.7505,-3.688,-3.6388,-3.6322,-3.598,-3.5694,-3.5622,-3.5447,-3.5131,-3.4539,-3.4895,-3.4895,-3.4303,-3.4827,-3.5126,-3.5126,-3.5278,-3.5346,-3.5346,-3.5515,-3.56,-3.56,-3.56,-3.56,-3.5616,-3.6248,-3.6535,-4.629,-4.5163,-4.44,-4.5981,-4.5887,-4.5619,-4.6406,-4.6023,-4.5504,-4.5504,-4.5559,-4.5845,-4.6624,-4.6971,-4.7894,-5.0212,-5.0789,-5.1664,-5.375,-5.5012,-5.5696,-5.5714,0.0,0.0,-5.5703,-5.5703,-5.5703,-5.5703,-5.5703,0.0,-5.5703,-5.5703,-5.5703,-5.5703,-5.5684,-5.5629,-5.5504,-5.5492,-5.547,-5.5403,-5.46,-5.4218,-5.4199,-5.3397,-5.2996,-5.2881,-5.2155,0.0,0.0,-5.0856,-5.0493,-5.0417,-5.0417,-5.0378,-5.0267,-4.9884,-4.9516,-4.915,-4.8782,-4.8364,-4.799,-4.7922,-4.7819,-4.7572,-4.683,-4.6558,-4.6359,-4.5617,-4.4784,-4.4095,-4.4095,-4.3498,-4.2901,-4.2901,-4.2901,-4.2701,-4.1958,-4.1741,-4.1252,-3.9786,-3.9441,-3.9134,-3.8354,-3.7809,-3.7505,-3.7505,-3.7132,-3.6719,-3.6364,-3.6259,-3.6067,-3.5644,-3.5013,-3.4573,-3.4506,-3.3947,-3.3575,-3.3508,-3.3575,-3.3609,-3.3609,-3.4252,-3.459,-3.459,-3.5267,-3.56,-3.56,-3.56,-3.56,-3.56,-3.5667,-3.5701,-4.7914,-4.757,-4.7111,-4.7286,-4.7087,-4.6821,-4.6722,-4.6052,-4.5457,-4.5531,-4.5577,-4.571,-4.6047,-4.6547,-4.7394,-4.8894,-4.9586,-5.0644,-5.274,-5.3703,-5.4579,-5.5568,-5.5703,-5.5703,0.0,0.0,-5.5491,-5.5011,-5.4972,0.0,-5.4222,-5.5145,-5.5703,-5.5703,-5.5703,-5.5649,-5.5504,-5.5025,-5.4717,-5.4619,-5.3722,-5.332,-5.3301,-5.2957,-5.2537,-5.2059,-5.1754,0.0,0.0,-5.0436,-5.0302,-5.0302,-5.0302,-5.0302,-5.0236,-4.9702,-4.9394,-4.9177,-4.8605,-4.7917,-4.7279,-4.7215,-4.6749,-4.6287,-4.645,-4.616,-4.5617,-4.4802,-4.3987,-4.3371,-4.3371,-4.3155,-4.2901,-4.2901,-4.252,-4.2103,-4.1759,-4.0963,-4.013,-3.9514,-3.9007,-3.8589,-3.8263,-3.8037,-3.7827,-3.7542,-3.717,-3.6741,-3.6364,-3.6045,-3.5635,-3.5018,-3.4675,-3.432,-3.388,-3.3575,-3.322,-3.2763,-3.3152,-3.3406,-3.3406,-3.4117,-3.4489,-3.4489,-3.5211,-3.56,-3.56,-3.56,-3.56,-3.56,-3.56,-3.56,-4.8852,-4.8986,-4.8719,-4.8346,-4.795,-4.7507,-4.7005,-4.6106,-4.5429,-4.5513,-4.5559,-4.5577,-4.5605,-4.6317,-4.7154,0.0,-4.9048,-5.0269,-5.1691,-5.2644,-5.3818,-5.5493,0.0,-5.4615,-5.5598,-5.5483,-5.4991,-5.4184,-5.4126,0.0,-5.3241,-5.4318,-5.4953,-5.4953,-5.5192,-5.5138,-5.4756,-5.4189,-5.3843,-5.3702,-5.2843,-5.2442,-5.2442,-5.2174,-5.1754,-5.1219,-5.1219,0.0,0.0,-5.0302,-5.0302,-5.0302,-5.0302,-5.0302,-5.0224,-4.966,-4.9394,-4.9187,-4.8309,-4.7515,-4.6829,-4.653,-4.5979,-4.5502,-4.5767,-4.5419,-4.4784,-4.3969,-4.3354,-4.2901,-4.2901,-4.2901,-4.2847,-4.2592,-4.2122,-4.1578,-4.1107,-4.0166,-3.9315,-3.9079,-3.8589,-3.8209,-3.8209,-3.8071,-3.7845,-3.7395,-3.6978,-3.6577,-3.6152,-3.5805,-3.5312,-3.4573,-3.4303,-3.388,-3.3136,-3.2865,-3.2527,-3.2005,-3.2459,-3.2763,-3.2763,-3.3677,-3.4167,-3.4167,-3.5092,-3.56,-3.56,-3.56,-3.56,-3.56,-3.56,-3.56,-4.8848,-4.872,-4.8292,-4.9092,-4.8296,-4.7295,-4.7308,-4.631,-4.5399,-4.54,-4.5448,-4.5513,-4.5586,-4.6317,-4.7154,-4.7971,-4.9548,-5.0692,-5.0701,-5.2144,-5.3809,0.0,0.0,-5.2055,-5.5388,-5.4983,-5.4145,-5.328,0.0,0.0,-5.3203,-5.3222,-5.3241,-5.3241,-5.4007,-5.3961,-5.3031,-5.2955,-5.2877,-5.2805,-5.2002,-5.1608,-5.157,-5.0722,-5.0321,0.0,0.0,0.0,0.0,-5.0302,-5.0302,-5.0302,-5.0302,-5.0302,-5.0248,-4.9929,-4.9584,-4.914,-4.8002,-4.7385,-4.6947,-4.6103,-4.5791,-4.5607,-4.4616,-4.4228,-4.3932,-4.3155,-4.2919,-4.2901,-4.2901,-4.2901,-4.2701,-4.1904,-4.1705,-4.127,-3.9749,-3.9405,-3.9152,-3.8372,-3.8209,-3.8209,-3.8209,-3.7809,-3.7377,-3.6958,-3.6557,-3.6131,-3.5667,-3.56,-3.5312,-3.4573,-3.3846,-3.3119,-3.2378,-3.165,-3.1207,-3.1207,-3.1207,-3.1207,-3.1207,-3.2628,-3.3423,-3.3423,-3.4839,-3.56,-3.56,-3.56,-3.56,-3.56,-3.56,-3.56,-4.8867,-4.9114,-4.8852,-4.8547,-4.7757,-4.6957,-4.6682,-4.5837,-4.5371,-4.6244,-4.6434,-4.6626,-4.7201,-4.7528,-4.8009,-4.8856,-4.9452,0.0,-5.2155,0.0,0.0,-5.223,-5.2354,-5.2969,0.0,0.0,-5.326,-5.2385,0.0,0.0,-5.151,-5.2587,-5.3203,-5.3203,-5.34,-5.3347,-5.2992,-5.2399,-5.2054,-5.1964,-5.1123,-5.0703,-5.0703,-5.0436,-5.0302,0.0,0.0,0.0,0.0,-5.0302,-5.0302,-5.0302,-5.0302,-5.0302,-5.0248,-4.991,-4.9245,-4.8389,-4.7748,-4.6577,-4.5334,-4.4967,-4.4473,-4.3962,-4.3652,-4.3869,-4.4066,-4.3155,-4.2901,-4.2901,-4.2901,-4.2484,-4.2012,-4.1759,-4.089,-3.9985,-3.9514,-3.897,-3.8517,-3.8263,-3.8209,-3.8106,-3.7774,-3.7596,-3.7283,-3.6577,-3.6367,-3.6131,-3.5667,-3.56,-3.5109,-3.388,-3.3541,-3.3102,-3.2361,-3.1633,-3.119,-3.119,-3.119,-3.119,-3.119,-3.2628,-3.3406,-3.3406,-3.4839,-3.56,-3.56,-3.56,-3.56,-3.56,-3.56,-3.56,-4.8561,-4.8915,-4.8803,-4.83,-4.7671,-4.7098,-4.685,-4.6207,-4.5918,-4.677,-4.7033,-4.7278,-4.7846,-4.8299,-4.8779,-4.9317,-4.9933,-5.0779,0.0,0.0,0.0,-5.1643,0.0,0.0,0.0,-5.2904,-5.2356,0.0,0.0,0.0,-5.0731,-5.1683,-5.225,-5.223,-5.2466,-5.2412,-5.202,-5.1465,-5.114,-5.1104,-5.0569,-5.0302,-5.0302,-5.0302,-5.0302,0.0,0.0,0.0,0.0,-5.0302,-5.0302,-5.0302,-5.0302,-5.0111,-4.982,-4.9467,-4.8636,-4.7545,-4.6873,-4.5764,-4.4565,-4.4199,-4.3688,-4.3287,-4.3287,-4.3543,-4.376,-4.3157,-4.2994,-4.2922,-4.2539,-4.2141,-4.1651,-4.0999,-4.0111,-3.9348,-3.9058,-3.8587,-3.8242,-3.8242,-3.8242,-3.8088,-3.7596,-3.7505,-3.7227,-3.6409,-3.6301,-3.6131,-3.5667,-3.56,-3.5025,-3.3558,-3.3406,-3.2983,-3.1972,-3.1464,-3.119,-3.119,-3.119,-3.119,-3.119,-3.2341,-3.3119,-3.3406,-3.459,-3.5312,-3.56,-3.56,-3.56,-3.56,-3.56,-3.56,0.0,-4.8306,-4.8306,-4.8233,-4.7886,-4.7559,-4.7519,-4.7133,0.0,-4.7057,-4.7346,-4.7638,-4.7842,-4.8736,-4.9452,-4.949,-5.0798,-5.1558,0.0,-5.2241,0.0,0.0,-5.2819,0.0,-5.1942,-5.1904,0.0,0.0,0.0,0.0,-5.0712,-5.0702,-5.0653,-5.0593,-5.1318,-5.1283,-5.0401,-5.0325,-5.0302,-5.0302,-5.0245,-5.0206,-5.0206,-5.0206,-5.0206,0.0,0.0,0.0,0.0,-5.0302,-5.0264,-5.0206,-5.0206,-4.971,-4.8961,-4.8656,-4.7799,-4.6663,-4.5609,-4.4961,-4.4488,-4.3736,-4.3464,-4.3412,-4.3412,-4.3323,-4.3196,-4.3123,-4.316,-4.296,-4.1978,-4.1814,-4.1484,-3.9819,-3.9419,-3.9216,-3.847,-3.8307,-3.8307,-3.8307,-3.8307,-3.8138,-3.7614,-3.7487,-3.719,-3.643,-3.628,-3.6088,-3.5667,-3.56,-3.5059,-3.3643,-3.344,-3.2831,-3.1393,-3.1224,-3.119,-3.119,-3.119,-3.119,-3.119,-3.1972,-3.2699,-3.3389,-3.4184,-3.4912,-3.56,-3.56,-3.56,-3.56,-3.56,-3.56,-4.8251,0.0,-4.8159,-4.7535,-4.7297,-4.7113,0.0,-4.6653,-4.6926,-4.7881,-4.8177,-4.8542,-4.9453,-4.9832,-5.0104,-5.0356,-5.0721,-5.0922,-5.0733,-5.3249,0.0,-5.3925,-5.3704,-5.3174,-5.2,-5.1904,0.0,0.0,0.0,-5.0712,-5.0712,-5.0643,-5.0593,-5.0521,-5.0648,-5.0615,-5.0401,-5.0325,-5.0302,-5.0283,-4.9671,-4.9366,-4.9366,-4.9366,-4.9366,0.0,0.0,0.0,-5.0302,-5.0302,-4.9939,-4.9366,-4.9366,-4.885,-4.8094,-4.8018,-4.7138,-4.5937,-4.5677,-4.4782,-4.3736,-4.3552,-4.3497,-4.348,-4.348,-4.3358,-4.3196,-4.3178,-4.3196,-4.2996,-4.2158,-4.1502,-4.0827,-3.9809,-3.9081,-3.8622,-3.8421,-3.8385,-3.8385,-3.8385,-3.8385,-3.8236,-3.7808,-3.7396,-3.696,-3.6437,-3.6028,-3.5717,-3.5622,-3.56,-3.5245,-3.4336,-3.3744,-3.3034,-3.2124,-3.1512,-3.119,-3.119,-3.119,-3.119,-3.119,-3.2442,-3.322,-3.3406,-3.467,-3.543,-3.56,-3.56,-3.56,-3.56,-3.56,-3.56,-4.8306,-4.8306,-4.8214,-4.7755,-4.7645,-4.7591,-4.7331,-4.7379,-4.7662,-4.8352,-4.8675,-4.9027,-4.9714,-4.9917,-5.0111,-5.0421,-5.0435,-5.049,0.0,0.0,-5.4156,-5.3114,-5.27,-5.2287,0.0,0.0,0.0,0.0,0.0,-5.0692,-5.0653,-5.0613,-5.0562,-5.0457,-5.0022,-4.9797,-4.9794,-4.9771,-4.9557,-4.9156,-4.8716,-4.8506,-4.8506,-4.8506,-4.8506,0.0,0.0,0.0,-4.9156,-4.9156,-4.8907,-4.8506,-4.8506,-4.7971,-4.7185,-4.7064,-4.6215,-4.5097,-4.4953,-4.431,-4.3515,-4.3515,-4.3515,-4.3515,-4.3515,-4.3171,-4.2864,-4.3195,-4.3048,-4.2573,-4.1682,-4.0913,-4.016,-3.9256,-3.8743,-3.8446,-3.8446,-3.8446,-3.8446,-3.8446,-3.8446,-3.8251,-3.7632,-3.7285,-3.6865,-3.6203,-3.5871,-3.5667,-3.56,-3.56,-3.5312,-3.4573,-3.4134,-3.3457,-3.2395,-3.1938,-3.1546,-3.1207,-3.119,-3.119,-3.119,-3.229,-3.3224,-3.3889,-3.5013,-3.56,-3.56,-3.56,-3.56,-3.56,-3.56,-3.56,-4.8306,-4.8398,-4.8471,-4.8343,-4.8306,-4.8306,-4.8306,-4.842,-4.8513,-4.8605,-4.8886,-4.9201,-4.9365,-4.9602,-4.9868,-5.0252,-5.017,0.0,-5.0505,-5.179,-5.2439,-5.1761,-5.1146,0.0,0.0,0.0,0.0,0.0,0.0,-5.0584,-5.0532,-5.0396,-5.0287,-5.0202,-4.9368,-4.8848,-4.8708,-4.8842,-4.8525,-4.7788,-4.7674,-4.7597,-4.7597,-4.7597,-4.7597,-4.7616,0.0,0.0,-4.7788,-4.7788,-4.7712,-4.7597,-4.7597,-4.7092,-4.6287,-4.6057,-4.5312,-4.436,-4.403,-4.3732,-4.3515,-4.3515,-4.3515,-4.3478,-4.3349,-4.2837,-4.2398,-4.2916,-4.2585,-4.1904,-4.0912,-4.0282,-3.9648,-3.8682,-3.8496,-3.8525,-3.8525,-3.8525,-3.8525,-3.8525,-3.846,-3.8165,-3.7433,-3.7173,-3.6803,-3.6002,-3.5839,-3.5728,-3.5622,-3.56,-3.5346,-3.4726,-3.4556,-3.3947,-3.2581,-3.2361,-3.1989,-3.1241,-3.119,-3.1292,-3.1529,-3.2242,-3.3279,-3.4643,-3.5289,-3.56,-3.56,-3.56,-3.56,-3.56,-3.56,-3.56,-4.8306,-4.8838,-4.9225,-4.8489,-4.8306,-4.8306,-4.8306,-4.8458,-4.8605,-4.8587,-4.8784,-4.9044,-4.9334,-4.9427,-4.977,-5.0713,0.0,-4.9872,0.0,0.0,-5.0539,-5.1142,0.0,0.0,0.0,0.0,0.0,0.0,0.0,-5.0183,-5.0171,-4.9415,-4.9089,-4.9291,-4.8444,-4.7646,-4.692,-4.7627,-4.7922,-4.7788,-4.7043,-4.671,-4.671,-4.671,-4.671,-4.6748,0.0,-4.7788,-4.7788,-4.7788,-4.7368,-4.671,-4.671,-4.6194,-4.5488,-4.5437,-4.4988,-4.4313,-4.3761,-4.3531,-4.3515,-4.3515,-4.3515,-4.3369,-4.269,-4.2396,-4.2194,-4.1609,-4.137,-4.1095,-4.0253,-3.9976,-3.9698,-3.886,-3.8658,-3.8658,-3.8658,-3.8658,-3.8658,-3.8658,-3.83,-3.7946,-3.7807,-3.7097,-3.6478,-3.6329,-3.592,-3.5622,-3.56,-3.56,-3.5549,-3.543,-3.4878,-3.415,-3.3305,-3.2666,-3.1989,-3.1241,-3.119,-3.1765,-3.3017,-3.3761,-3.4556,-3.5419,-3.5532,-3.56,-3.56,-3.56,-3.56,-3.56,-3.56,-3.56,-4.8306,-4.86,-4.8912,-4.8967,-4.9003,-4.8894,-4.8492,-4.8495,-4.8605,-4.8678,-4.8821,-4.896,-4.9094,0.0,-5.009,-5.1054,0.0,-4.9694,-4.937,-4.9309,-4.9531,0.0,0.0,0.0,0.0,0.0,0.0,0.0,0.0,0.0,-4.907,-4.824,-4.7818,-4.7909,-4.7093,-4.6537,-4.629,-4.6214,-4.6272,-4.6443,-4.6042,-4.5851,-4.5851,-4.5851,-4.5851,-4.587,0.0,-4.6443,-4.6443,-4.6443,-4.6214,-4.5851,-4.5851,-4.5621,-4.5256,-4.4941,-4.4643,-4.4299,-4.3695,-4.3515,-4.3441,-4.2983,-4.2837,-4.269,-4.1901,-4.135,-4.0928,-4.0561,-4.0451,-4.0377,-3.9992,-3.957,-3.9166,-3.8799,-3.8707,-3.8707,-3.8707,-3.8707,-3.8627,-3.8417,-3.8185,-3.7843,-3.7342,-3.6884,-3.644,-3.6114,-3.5866,-3.5667,-3.56,-3.56,-3.56,-3.56,-3.5295,-3.481,-3.4066,-3.3322,-3.2408,-3.1258,-3.1582,-3.2273,-3.3372,-3.4104,-3.4849,-3.5583,-3.56,-3.56,-3.56,-3.56,-3.56,-3.56,-3.56,-3.56,-4.8306,-4.8453,-4.8765,-4.9445,-4.961,-4.9501,-4.9118,-4.9103,-4.9215,-4.9325,-4.9248,-4.9187,0.0,-4.9746,0.0,-5.1263,-5.1019,-5.0323,-4.9064,-4.8893,-4.9005,-4.9246,-4.9465,0.0,0.0,0.0,0.0,0.0,0.0,0.0,-4.783,-4.7022,-4.659,-4.6623,-4.582,-4.5485,-4.5691,-4.5035,-4.491,-4.5307,-4.5307,-4.5307,-4.5307,-4.5307,-4.5307,-4.5307,-4.5307,-4.5307,-4.5307,-4.5307,-4.5307,-4.5307,-4.5307,-4.5246,-4.5109,-4.4591,-4.436,-4.4217,-4.3697,-4.3386,-4.3112,-4.2506,-4.2176,-4.1882,-4.1058,-4.0396,-3.9845,-3.9662,-3.9625,-3.9625,-3.9625,-3.9166,-3.8707,-3.8707,-3.8707,-3.8707,-3.8707,-3.8707,-3.8611,-3.8285,-3.805,-3.7685,-3.6964,-3.6666,-3.6374,-3.591,-3.5839,-3.5817,-3.5711,-3.5689,-3.5689,-3.5689,-3.5667,-3.534,-3.4556,-3.366,-3.2662,-3.1532,-3.2158,-3.2797,-3.3389,-3.4278,-3.5023,-3.5583,-3.56,-3.56,-3.56,-3.56,-3.56,-3.56,-3.56,-3.56,-4.8306,-4.8893,-4.9519,-4.9592,-4.961,-4.9776,-5.0492,-5.0797,-5.0914,-5.0914,-5.0435,-5.0042,-5.0098,-5.0359,-5.0748,-5.1315,-5.258,-5.2433,-4.9332,0.0,-4.8922,0.0,0.0,0.0,0.0,0.0,0.0,0.0,0.0,0.0,-4.6706,-4.5829,-4.5472,-4.5768,-4.4942,-4.4505,-4.4519,-4.4462,-4.472,-4.5307,-4.5307,-4.5307,-4.5307,-4.5307,-4.5307,-4.5307,-4.5307,-4.5307,-4.5307,-4.5307,-4.5307,-4.5307,-4.5307,-4.5109,-4.4807,-4.4506,-4.425,-4.3971,-4.3615,-4.3002,-4.2378,-4.2323,-4.1791,-4.104,-4.023,-3.9937,-3.9735,-3.9001,-3.8799,-3.8799,-3.8799,-3.8744,-3.8707,-3.8707,-3.8707,-3.8707,-3.8707,-3.8707,-3.8692,-3.8658,-3.7947,-3.7342,-3.7268,-3.6583,-3.6041,-3.5997,-3.5975,-3.5975,-3.5975,-3.5975,-3.5975,-3.5975,-3.5861,-3.5445,-3.4578,-3.3207,-3.2327,-3.2226,-3.2899,-3.3339,-3.3406,-3.4754,-3.5549,-3.56,-3.56,-3.56,-3.56,-3.56,-3.56,-3.56,-3.56,-3.56,-4.8306,-4.893,-4.961,-4.961,-5.0363,-5.1042,-5.0901,-5.0596,-5.0508,-5.1045,-5.1028,-5.0915,-5.0933,0.0,-5.1098,-5.2654,-5.2563,-5.1524,-4.9223,0.0,0.0,0.0,0.0,0.0,0.0,0.0,0.0,0.0,0.0,0.0,-4.5429,-4.462,-4.4208,-4.4337,-4.4006,-4.3934,-4.4151,-4.4151,-4.4351,-4.4733,-4.491,-4.5098,-4.5307,-4.5307,-4.5307,-4.5307,-4.5307,-4.5307,-4.5307,-4.5307,-4.5307,-4.5307,-4.5307,-4.5098,-4.4707,-4.3941,-4.3465,-4.3083,-4.2274,-4.1809,-4.1462,-4.0965,-4.0598,-4.0194,-3.9405,-3.9148,-3.9093,-3.8799,-3.8707,-3.8707,-3.8707,-3.8707,-3.8707,-3.8707,-3.8707,-3.8707,-3.8707,-3.8707,-3.8627,-3.8385,-3.7843,-3.7323,-3.6983,-3.6474,-3.6101,-3.6019,-3.5997,-3.5997,-3.5997,-3.5997,-3.5997,-3.5997,-3.5883,-3.5511,-3.4806,-3.366,-3.2822,-3.2445,-3.3042,-3.3186,-3.273,-3.4573,-3.5386,-3.4914,-3.5386,-3.56,-3.56,-3.56,-3.56,-3.56,-3.56,-3.56,-4.871,-4.9132,-4.9721,-5.0235,-5.0804,-5.132,-5.1584,-5.1335,-5.1211,-5.186,-5.1677,-5.1323,-5.1045,-5.0488,0.0,0.0,-5.1319,-5.019,0.0,0.0,0.0,0.0,0.0,0.0,0.0,0.0,0.0,0.0,0.0,0.0,0.0,-4.3791,-4.3515,-4.3513,-4.3515,-4.3615,-4.3878,-4.3862,-4.4002,-4.4294,-4.4546,-4.4831,-4.5151,-4.5246,-4.5307,-4.5307,-4.5307,-4.5307,-4.5307,-4.5307,-4.5307,-4.5239,-4.4622,-4.4349,-4.4159,-4.3055,-4.2462,-4.2091,-4.1358,-4.093,-4.0634,-4.0065,-3.9717,-3.9423,-3.8872,-3.8707,-3.8707,-3.8707,-3.8707,-3.8707,-3.8707,-3.8707,-3.8707,-3.8707,-3.8707,-3.8707,-3.8707,-3.8707,-3.858,-3.8186,-3.7791,-3.734,-3.6845,-3.6471,-3.6191,-3.6105,-3.6088,-3.6088,-3.6088,-3.6088,-3.6084,-3.6079,-3.5971,-3.5659,-3.4972,-3.4015,-3.3185,-3.2539,-3.2842,-3.2835,-3.2327,-3.4206,-3.5036,-3.451,-3.5211,-3.56,-3.56,-3.56,-3.56,-3.56,-3.56,-3.56,-4.9572,-4.9572,-4.9958,-5.1573,-5.0804,-5.0273,-5.2745,-5.3381,-5.3539,-5.3656,-5.2493,-5.1138,-5.0283,-4.9451,0.0,-4.8891,-4.8895,-4.8842,0.0,0.0,0.0,0.0,0.0,0.0,0.0,0.0,0.0,0.0,0.0,0.0,0.0,-4.3515,-4.3513,-4.3599,-4.3531,-4.3531,-4.3599,-4.3531,-4.3666,-4.4005,-4.426,-4.4533,-4.48,-4.5151,-4.5307,-4.5307,-4.5288,-4.5288,-4.5288,-4.5288,-4.5288,-4.5076,-4.3152,-4.2724,-4.3055,-4.1903,-4.132,-4.1077,-4.1077,-4.0561,-3.9882,-3.9882,-3.935,-3.8707,-3.8707,-3.8707,-3.8707,-3.8707,-3.8707,-3.8707,-3.8707,-3.8707,-3.8707,-3.8707,-3.8707,-3.8707,-3.8692,-3.8692,-3.858,-3.8168,-3.7774,-3.7377,-3.6978,-3.6557,-3.6301,-3.6301,-3.6301,-3.6301,-3.6301,-3.6301,-3.6259,-3.6225,-3.6187,-3.5852,-3.4972,-3.4116,-3.3284,-3.257,-3.2371,-3.2293,-3.2293,-3.3706,-3.4486,-3.4472,-3.5216,-3.5583,-3.5583,-3.56,-3.56,-3.56,-3.56,-3.56,-4.7835,-4.8345,-4.9143,-4.9634,-5.0524,-5.1485,-5.2267,-5.2493,-5.2699,-5.3408,-5.2765,-5.1786,-5.0972,-4.9769,0.0,-4.8899,-4.8769,-4.8676,0.0,0.0,0.0,0.0,0.0,0.0,0.0,0.0,0.0,0.0,0.0,0.0,0.0,-4.3515,-4.3515,-4.3513,-4.3515,-4.3515,-4.3513,-4.3515,-4.3565,-4.3732,-4.4231,-4.4585,-4.48,-4.5151,-4.5307,-4.5269,-4.4647,-4.4399,-4.4341,-4.3768,-4.3539,-4.3461,-4.2696,-4.2346,-4.2141,-4.1064,-4.0488,-4.0175,-3.9606,-3.9258,-3.9056,-3.9056,-3.8891,-3.8707,-3.8707,-3.8707,-3.8707,-3.8707,-3.8707,-3.8707,-3.8707,-3.8707,-3.8707,-3.8707,-3.8707,-3.8627,-3.8352,-3.8269,-3.8152,-3.7756,-3.7358,-3.7036,-3.6919,-3.6557,-3.6301,-3.6301,-3.6301,-3.6301,-3.6301,-3.6301,-3.6259,-3.6225,-3.5659,-3.539,-3.5638,-3.3849,-3.2866,-3.325,-3.2164,-3.1532,-3.1532,-3.2936,-3.3478,-3.297,-3.4184,-3.4827,-3.4827,-3.5346,-3.56,-3.56,-3.56,-3.56,-4.8901,-4.9488,-5.0135,-5.0463,-5.1276,-5.2089,-5.2445,-5.2602,-5.283,-5.3388,-5.2853,-5.2114,-5.1562,-4.999,0.0,-4.8901,-4.866,-4.8476,0.0,0.0,0.0,0.0,0.0,0.0,0.0,0.0,0.0,0.0,0.0,0.0,0.0,-4.3515,-4.3496,-4.3531,-4.3496,-4.3496,-4.3531,-4.3218,-4.307,-4.312,-4.3326,-4.3527,-4.3742,-4.4494,-4.462,-4.4276,-4.3759,-4.351,-4.3452,-4.2622,-4.2488,-4.2707,-4.1654,-4.1317,-4.1284,-4.0104,-3.9571,-3.935,-3.8872,-3.8707,-3.8707,-3.8707,-3.8707,-3.8707,-3.8707,-3.8707,-3.8707,-3.8707,-3.8707,-3.8707,-3.8707,-3.8707,-3.8707,-3.8707,-3.8707,-3.8596,-3.8203,-3.8101,-3.793,-3.7377,-3.7078,-3.6847,-3.6681,-3.6471,-3.6301,-3.6301,-3.6301,-3.6301,-3.6301,-3.6276,-3.6233,-3.6187,-3.5668,-3.5399,-3.5553,-3.3883,-3.2917,-3.3148,-3.1927,-3.119,-3.119,-3.2341,-3.2747,-3.231,-3.3457,-3.4201,-3.4489,-3.4945,-3.5295,-3.56,-3.56,-3.56,-5.1265,-5.1708,-5.2027,-5.2831,-5.2559,-5.2289,-5.2959,-5.3314,-5.3479,-5.3479,0.0,-5.2225,-5.2006,-5.023,-4.8808,-4.8846,-4.8532,0.0,0.0,0.0,0.0,0.0,0.0,0.0,0.0,0.0,0.0,0.0,0.0,0.0,0.0,-4.3441,-4.3422,-4.3471,-4.3365,-4.3293,-4.3378,-4.266,-4.2292,-4.2308,-4.1965,-4.1852,-4.2033,-4.3349,-4.3503,-4.2699,-4.269,-4.2641,-4.2507,-4.1724,-4.1858,-4.2372,-4.0302,-3.9946,-4.0446,-3.9169,-3.8707,-3.8707,-3.8707,-3.8707,-3.8707,-3.8707,-3.8707,-3.8707,-3.8707,-3.8707,-3.8689,-3.8615,-3.8652,-3.867,-3.8524,-3.8542,-3.8579,-3.8505,-3.8597,-3.858,-3.8135,-3.8051,-3.7809,-3.6997,-3.6849,-3.6735,-3.635,-3.6301,-3.6301,-3.6301,-3.6301,-3.6301,-3.6301,-3.6182,-3.6084,-3.6084,-3.593,-3.5553,-3.4933,-3.4027,-3.3233,-3.2618,-3.1707,-3.119,-3.119,-3.1853,-3.2209,-3.2209,-3.2916,-3.3626,-3.4286,-3.4421,-3.4844,-3.5498,-3.5566,-3.56,-4.8464,-4.9382,0.0,-5.1427,-5.2291,-5.288,-5.2617,-5.2915,-5.3251,-5.3251,-5.2608,-5.1987,-5.1715,-5.0946,-4.9914,-4.864,0.0,0.0,0.0,0.0,0.0,0.0,0.0,0.0,0.0,0.0,0.0,0.0,0.0,0.0,-4.3515,-4.2892,-4.2561,-4.2578,-4.1956,-4.164,-4.1703,-4.1537,-4.1544,0.0,-4.1763,-4.1515,-4.1036,-4.2329,-4.2525,-4.1848,-4.1858,-4.1466,-4.0817,-4.0635,-4.0664,-4.074,-3.9856,-3.9608,-3.9664,-3.8966,-3.8707,-3.8707,-3.8707,-3.8707,-3.8707,-3.8707,-3.8707,-3.8707,-3.8707,-3.8707,-3.8579,-3.7951,-3.8212,-3.8414,-3.7147,-3.7276,-3.7603,-3.6964,-3.779,-3.8499,-3.7773,-3.7632,-3.7395,-3.6577,-3.6433,-3.6412,-3.6305,-3.6301,-3.6301,-3.6301,-3.6301,-3.6301,-3.6301,-3.578,-3.5359,-3.5276,-3.4703,-3.4466,-3.4721,-3.3509,-3.2873,-3.3194,-3.1955,-3.119,-3.119,-3.1343,-3.1427,-3.1427,-3.2175,-3.2615,-3.2784,-3.3952,-3.4573,-3.4742,-3.5329,-3.56,-4.8682,-4.9502,0.0,-5.1191,0.0,-5.2739,-5.2454,-5.2806,-5.3185,-5.3185,-5.2564,-5.185,-5.1301,-5.0979,-5.0263,0.0,0.0,0.0,0.0,0.0,0.0,0.0,0.0,0.0,0.0,0.0,0.0,0.0,0.0,-4.3515,-4.3515,-4.2745,-4.2304,-4.2304,-4.1548,-4.1156,-4.1204,-4.0895,-4.0769,-4.0863,-4.0631,-4.0379,-4.0153,-4.0997,-4.1265,-4.1023,-4.0986,-4.0729,-4.03,-4.0291,-4.0215,-4.0077,-3.9658,-3.9408,-3.9259,-3.8851,-3.8707,-3.8707,-3.8707,-3.8707,-3.8707,-3.8707,-3.8707,-3.8707,-3.8707,-3.8707,-3.8524,-3.7731,-3.7804,-3.7845,-3.6615,-3.6611,-3.6831,-3.6395,-3.6945,-3.7332,-3.6574,-3.6399,-3.6272,-3.5844,-3.5773,-3.5889,-3.6228,-3.6301,-3.6301,-3.6301,-3.6301,-3.6163,-3.5818,-3.5707,-3.5373,-3.4572,-3.4425,-3.4343,-3.4214,-3.3196,-3.2678,-3.2947,-3.1896,-3.1232,-3.119,-3.1549,-3.1546,-3.1207,-3.1562,-3.2124,-3.2831,-3.3592,-3.4336,-3.5047,-3.5414,-3.56,-4.9437,0.0,-5.0559,-5.1279,-5.1866,0.0,-5.2132,-5.254,-5.2897,-5.2856,-5.2357,-5.1703,-5.0949,-5.055,0.0,0.0,0.0,0.0,0.0,0.0,0.0,0.0,0.0,0.0,0.0,0.0,0.0,0.0,0.0,-4.3407,-4.3172,-4.2491,-4.2029,-4.1882,-4.1174,-4.078,-4.0796,-4.0251,-3.9993,-3.9989,-3.9389,-3.9232,-3.9508,-3.9835,-4.0129,-4.0353,-4.0334,-4.0325,-4.0316,-4.03,-4.0147,-3.9873,-3.9592,-3.9337,-3.9073,-3.881,-3.8707,-3.8707,-3.8707,-3.8707,-3.8689,-3.8542,-3.8487,-3.8469,-3.834,-3.8285,-3.812,-3.7309,-3.718,-3.707,-3.6119,-3.5973,-3.6046,-3.5899,-3.5862,-3.5743,-3.5302,-3.5186,-3.5155,-3.5027,-3.5105,-3.5441,-3.6176,-3.6301,-3.6301,-3.6301,-3.6197,-3.5887,-3.5266,-3.5463,-3.5143,-3.3851,-3.4219,-3.4278,-3.3604,-3.2989,-3.2608,-3.2522,-3.1876,-3.1499,-3.1436,-3.2167,-3.2266,-3.1636,-3.1481,-3.1985,-3.322,-3.3339,-3.4078,-3.5397,-3.5532,-3.56,-4.7716,0.0,-5.0485,0.0,-5.1314,-5.1594,0.0,0.0,-5.1742,0.0,-5.1563,-5.1469,-5.0912,0.0,0.0,0.0,0.0,0.0,0.0,0.0,0.0,0.0,0.0,0.0,0.0,0.0,0.0,0.0,-4.3304,-4.301,-4.1905,-4.1477,-4.0946,-4.023,-3.9516,-3.915,-3.9209,-3.9172,-3.9202,-3.9254,-3.9157,-3.9232,-3.9495,-3.9556,-3.978,-4.0158,-4.0379,-4.0441,-4.0379,-4.0316,-4.0139,-3.9878,-3.9604,-3.9337,-3.9073,-3.881,-3.8707,-3.8707,-3.8707,-3.8707,-3.8597,-3.7896,-3.7658,-3.7529,-3.6817,-3.6615,-3.6431,-3.5573,-3.5881,-3.6101,-3.4541,-3.4637,-3.5004,-3.4302,-3.4137,-3.4337,-3.5052,-3.5186,-3.4996,-3.4357,-3.4751,-3.5441,-3.6176,-3.6301,-3.6301,-3.6301,-3.5749,-3.5301,-3.5197,-3.4128,-3.3264,-3.3057,-3.3106,-3.3102,-3.2919,-3.2833,-3.2706,-3.2591,-3.2485,-3.2417,-3.2397,-3.3168,-3.3485,-3.3281,-3.2537,-3.2259,-3.2446,-3.3085,-3.3829,-3.4658,-3.5295,-3.56,-4.7317,-4.8198,-4.9117,0.0,-5.0415,-5.0531,-5.0751,-5.121,-5.1622,-5.1688,-5.1401,-5.1093,0.0,0.0,0.0,0.0,0.0,0.0,0.0,0.0,0.0,0.0,0.0,0.0,0.0,0.0,0.0,0.0,-4.2447,-4.19,-4.135,-4.0545,-3.9951,-3.9635,-3.9121,-3.8896,-3.8968,-3.9021,-3.9059,-3.9101,-3.9101,-3.9151,-3.9285,-3.9439,-3.9736,-4.0148,-4.0243,-4.0334,-4.0441,-4.0334,-4.0042,-3.9664,-3.9556,-3.9245,-3.8866,-3.8735,-3.8707,-3.8707,-3.8707,-3.8395,-3.7955,-3.7621,-3.7199,-3.6758,-3.6413,-3.6303,-3.6119,-3.5261,-3.5279,-3.5298,-3.4119,-3.4064,-3.4247,-3.388,-3.3807,-3.3807,-3.385,-3.3865,-3.3771,-3.3476,-3.4051,-3.4814,-3.5565,-3.5671,-3.5817,-3.6228,-3.6025,-3.5683,-3.5238,-3.4596,-3.3852,-3.299,-3.2904,-3.2712,-3.2278,-3.2244,-3.2187,-3.2055,-3.2466,-3.2686,-3.2591,-3.3755,-3.4157,-3.3607,-3.2822,-3.2574,-3.2916,-3.2831,-3.3372,-3.4506,-3.4827,-3.5216,-4.7034,-4.7414,-4.7724,-4.9097,-4.9417,-4.9544,0.0,0.0,-5.1236,0.0,-5.098,0.0,0.0,0.0,0.0,0.0,0.0,0.0,0.0,0.0,0.0,0.0,0.0,0.0,0.0,0.0,0.0,0.0,-4.1642,-4.0947,-4.0631,-3.9769,-3.9238,-3.9088,-3.8977,-3.8921,-3.8993,-3.9059,-3.9101,-3.9101,-3.9101,-3.9101,-3.9115,-3.9311,-3.964,-4.0031,-4.0091,-4.0243,-4.0413,-4.0379,-4.0022,-3.9517,-3.9513,-3.9178,-3.8707,-3.8707,-3.8579,-3.8395,-3.8395,-3.7878,-3.7162,-3.6942,-3.645,-3.5936,-3.5734,-3.5661,-3.5532,-3.4876,-3.4692,-3.4564,-3.3954,-3.3807,-3.3807,-3.3807,-3.3807,-3.3606,-3.2937,-3.2684,-3.263,-3.2839,-3.338,-3.4042,-3.4788,-3.4926,-3.5172,-3.5907,-3.5851,-3.5593,-3.5249,-3.5025,-3.4404,-3.3041,-3.2904,-3.261,-3.1852,-3.18,-3.1746,-3.1671,-3.2393,-3.2784,-3.2667,-3.412,-3.4609,-3.3879,-3.3152,-3.2971,-3.3406,-3.2666,-3.297,-3.4218,-3.4404,-3.4793,-4.6414,-4.6665,-4.6855,-4.7603,-4.8321,0.0,0.0,0.0,0.0,0.0,0.0,0.0,0.0,0.0,0.0,0.0,0.0,0.0,0.0,0.0,0.0,0.0,0.0,0.0,0.0,0.0,0.0,0.0,-4.128,-4.0575,-3.9364,-3.9298,-3.8985,-3.8287,-3.8683,-3.8921,-3.8993,-3.9059,-3.9101,-3.9101,-3.9101,-3.9101,-3.9101,-3.9115,-3.9272,-3.9556,-3.9992,-4.0205,-4.0223,-4.0405,-4.0129,-3.9587,-3.9517,-3.9168,-3.8707,-3.8707,-3.8212,-3.7566,-3.7566,-3.7052,-3.6229,-3.5389,-3.5096,-3.4931,-3.4156,-3.3935,-3.3917,-3.388,-3.3862,-3.3844,-3.3807,-3.3807,-3.3807,-3.3807,-3.3807,-3.3606,-3.2937,-3.23,-3.2066,-3.2765,-3.2939,-3.3219,-3.4031,-3.4154,-3.4402,-3.5155,-3.4652,-3.4457,-3.5103,-3.4599,-3.3818,-3.299,-3.2904,-3.261,-3.1852,-3.18,-3.18,-3.18,-3.249,-3.2863,-3.2801,-3.4209,-3.4877,-3.4649,-3.3913,-3.3515,-3.3406,-3.2666,-3.2699,-3.3474,-3.4167,-3.4506,-4.5044,-4.5475,0.0,-4.6803,-4.72,-4.7596,-4.8422,-4.8819,-4.891,-4.8397,0.0,0.0,0.0,0.0,0.0,0.0,0.0,0.0,0.0,0.0,0.0,0.0,0.0,0.0,0.0,0.0,0.0,0.0,0.0,-3.9107,-3.8165,-3.7882,-3.7792,-3.7875,-3.8293,-3.8688,-3.9059,-3.9087,-3.9101,-3.9101,-3.9101,-3.9101,-3.9101,-3.9101,-3.9137,-3.9259,-3.9597,-3.991,-4.0205,-4.0223,-4.0012,-3.9641,-3.9402,-3.8767,-3.7993,-3.7948,-3.7419,-3.674,-3.674,-3.6174,-3.5408,-3.5096,-3.4656,-3.4192,-3.3899,-3.3807,-3.3807,-3.3807,-3.3807,-3.3807,-3.3807,-3.3807,-3.3748,-3.3522,-3.3317,-3.3029,-3.2569,-3.2109,-3.187,-3.2133,-3.2186,-3.2449,-3.3186,-3.333,-3.358,-3.4378,-3.4266,-3.4197,-3.4456,-3.382,-3.3214,-3.2938,-3.2472,-3.2093,-3.1817,-3.18,-3.1746,-3.169,-3.2412,-3.2803,-3.2686,-3.3662,-3.4165,-3.4002,-3.3271,-3.3056,-3.3406,-3.2171,-3.2222,-3.3406,-3.3677,-3.4303,-4.3931,-4.4285,0.0,0.0,0.0,-4.6544,-4.7921,0.0,-4.8083,0.0,0.0,0.0,0.0,0.0,0.0,0.0,0.0,0.0,0.0,0.0,0.0,0.0,0.0,0.0,0.0,0.0,0.0,0.0,0.0,0.0,-3.753,-3.7114,-3.721,-3.7874,-3.8065,-3.8343,-3.8692,-3.8692,-3.8692,-3.8692,-3.8692,-3.8692,-3.8692,-3.8414,-3.8284,-3.8297,-3.8559,-3.9033,-3.9652,-3.9604,-3.9321,-3.8833,-3.8515,-3.7895,-3.719,-3.7118,-3.656,-3.5862,-3.5862,-3.5298,-3.4601,-3.4601,-3.4247,-3.3807,-3.3807,-3.3807,-3.3807,-3.3807,-3.3807,-3.3862,-3.4137,-3.4197,-3.4083,-3.3581,-3.3139,-3.2749,-3.252,-3.2126,-3.18,-3.18,-3.18,-3.1958,-3.2449,-3.2536,-3.28,-3.3592,-3.3698,-3.3889,-3.4404,-3.379,-3.3404,-3.3645,-3.2766,-3.2162,-3.2162,-3.1938,-3.1727,-3.1598,-3.2115,-3.2432,-3.2551,-3.3318,-3.3788,-3.3905,-3.3175,-3.2998,-3.3406,-3.2171,-3.207,-3.3034,-3.3541,-3.4438,0.0,0.0,0.0,0.0,0.0,0.0,-4.7286,0.0,0.0,0.0,0.0,0.0,0.0,0.0,0.0,0.0,0.0,0.0,0.0,0.0,0.0,0.0,0.0,0.0,0.0,0.0,0.0,0.0,-3.8336,-3.7512,-3.7478,-3.7117,-3.7341,-3.8243,-3.8028,-3.7894,-3.7894,-3.7875,-3.7856,-3.7856,-3.7856,-3.7856,-3.7838,-3.7058,-3.6699,-3.6712,-3.6911,-3.7574,-3.8525,-3.8538,-3.8022,-3.719,-3.6897,-3.663,-3.6348,-3.6277,-3.5716,-3.4954,-3.4954,-3.4454,-3.3807,-3.3807,-3.3807,-3.3807,-3.3807,-3.3807,-3.3807,-3.3807,-3.3807,-3.3972,-3.4766,-3.4954,-3.4766,-3.3963,-3.3273,-3.2795,-3.2763,-3.2266,-3.18,-3.18,-3.18,-3.18,-3.18,-3.18,-3.2045,-3.2747,-3.2874,-3.3416,-3.4915,-3.4461,-3.432,-3.5007,-3.3766,-3.2869,-3.2869,-3.2214,-3.1727,-3.1598,-3.1615,-3.188,-3.2485,-3.3199,-3.3871,-3.4477,-3.3744,-3.3372,-3.3372,-3.2666,-3.231,-3.2361,-3.385,-3.4912,-4.1688,0.0,0.0,0.0,0.0,0.0,0.0,0.0,0.0,0.0,0.0,0.0,0.0,0.0,0.0,0.0,0.0,0.0,0.0,0.0,0.0,0.0,0.0,0.0,0.0,0.0,0.0,0.0,-3.8525,-3.7801,-3.668,-3.7164,-3.7613,-3.7857,-3.7893,-3.7894,-3.7894,-3.7318,-3.7021,-3.7021,-3.7021,-3.7021,-3.7021,-3.6811,-3.6699,-3.6699,-3.6758,-3.6688,-3.6607,-3.7205,-3.7387,-3.7224,-3.682,-3.6229,-3.5596,-3.5533,-3.4931,-3.4137,-3.4137,-3.399,-3.3807,-3.3807,-3.3807,-3.3807,-3.3807,-3.3807,-3.3807,-3.3807,-3.3807,-3.3844,-3.4082,-3.4137,-3.3954,-3.3235,-3.2937,-3.2684,-3.2179,-3.1929,-3.18,-3.18,-3.18,-3.18,-3.18,-3.18,-3.187,-3.2062,-3.2094,-3.2265,-3.2681,-3.256,-3.2507,-3.2714,-3.2352,-3.2093,-3.2093,-3.1921,-3.1727,-3.1598,-3.2072,-3.2366,-3.2502,-3.3117,-3.3529,-3.3694,-3.2966,-3.2615,-3.2615,-3.2395,-3.2581,-3.3136,-3.4624,-3.5397,-4.1015,-4.1567,-4.2206,-4.205,0.0,0.0,-4.5001,-4.5398,0.0,0.0,0.0,0.0,0.0,0.0,0.0,0.0,0.0,0.0,0.0,0.0,0.0,0.0,0.0,0.0,0.0,-4.0601,-3.9888,-3.8681,-3.8323,-3.7594,-3.637,-3.7194,-3.7701,-3.7701,-3.7485,-3.7392,-3.7392,-3.6593,-3.6197,-3.6197,-3.6197,-3.6197,-3.6197,-3.5813,-3.5646,-3.5646,-3.5646,-3.5515,-3.5323,-3.5675,-3.5965,-3.6117,-3.5715,-3.5227,-3.4755,-3.4676,-3.4283,-3.3807,-3.3807,-3.3807,-3.3807,-3.3807,-3.3807,-3.3807,-3.3807,-3.3807,-3.3807,-3.3807,-3.4045,-3.4215,-3.3899,-3.4045,-3.4078,-3.3215,-3.2901,-3.2654,-3.2108,-3.1914,-3.18,-3.18,-3.18,-3.18,-3.18,-3.18,-3.18,-3.18,-3.18,-3.1903,-3.2214,-3.199,-3.2041,-3.2679,-3.2179,-3.1921,-3.2231,-3.1972,-3.1727,-3.1598,-3.197,-3.2286,-3.2528,-3.3141,-3.3622,-3.3944,-3.3156,-3.2615,-3.2293,-3.2293,-3.2852,-3.3897,-3.5042,-3.56,-4.0912,-4.0912,-4.1067,-4.1723,-4.1895,0.0,-4.4449,-4.4906,-4.5122,0.0,0.0,0.0,0.0,0.0,0.0,0.0,0.0,0.0,0.0,0.0,0.0,0.0,0.0,0.0,-4.1032,-4.0394,-3.9577,-3.8663,-3.7818,-3.7042,-3.6335,-3.7123,-3.7575,-3.7575,-3.6916,-3.6569,-3.6569,-3.577,-3.5361,-3.5361,-3.5361,-3.5361,-3.5343,-3.455,-3.4197,-3.4197,-3.4197,-3.4328,-3.4528,-3.4293,-3.4351,-3.458,-3.4233,-3.4061,-3.3998,-3.3921,-3.3873,-3.3807,-3.3807,-3.3807,-3.3807,-3.3807,-3.3807,-3.3807,-3.3807,-3.3807,-3.3807,-3.3807,-3.4321,-3.4711,-3.399,-3.4325,-3.4591,-3.3497,-3.3031,-3.2693,-3.2327,-3.2022,-3.18,-3.18,-3.18,-3.18,-3.18,-3.18,-3.18,-3.18,-3.18,-3.2041,-3.2697,-3.2214,-3.2317,-3.3699,-3.261,-3.2059,-3.2714,-3.2179,-3.1746,-3.1617,-3.1684,-3.2006,-3.2613,-3.3243,-3.3913,-3.4572,-3.3719,-3.2899,-3.2175,-3.2344,-3.3139,-3.4506,-3.5267,-3.56,-4.0912,-4.0912,-4.0929,-4.1084,-4.1119,0.0,-4.169,-4.1788,-4.2033,0.0,0.0,0.0,0.0,0.0,0.0,0.0,0.0,0.0,0.0,0.0,0.0,0.0,0.0,0.0,-4.1861,-4.1654,-4.0716,-3.8732,-3.7318,-3.6473,-3.6301,-3.6572,-3.6732,-3.6732,-3.6089,-3.5733,-3.5733,-3.4878,-3.4439,-3.4439,-3.4439,-3.4439,-3.4439,-3.4271,-3.4197,-3.4197,-3.4197,-3.4233,-3.4269,-3.4221,-3.4351,-3.458,-3.4233,-3.4061,-3.3998,-3.3921,-3.3873,-3.3807,-3.3807,-3.3807,-3.3807,-3.3807,-3.3807,-3.3807,-3.3807,-3.3807,-3.3807,-3.3807,-3.3917,-3.4009,-3.3844,-3.3917,-3.384,-3.3082,-3.2862,-3.2639,-3.2039,-3.1858,-3.18,-3.18,-3.18,-3.18,-3.18,-3.18,-3.18,-3.18,-3.18,-3.1852,-3.199,-3.1886,-3.1921,-3.2214,-3.1972,-3.1852,-3.199,-3.1886,-3.18,-3.1746,-3.2256,-3.261,-3.2764,-3.3301,-3.3658,-3.3811,-3.2961,-3.2158,-3.141,-3.2611,-3.3643,-3.4506,-3.5267,-3.56,-4.0912,-4.0912,-4.0912,-4.0912,-4.0912,0.0,0.0,-4.1443,-4.1595,-4.2115,-4.1795,0.0,0.0,0.0,0.0,0.0,0.0,0.0,0.0,0.0,0.0,0.0,0.0,0.0,-4.2603,-4.224,-4.1222,-3.9284,-3.7749,-3.6994,-3.7206,-3.7126,-3.7194,-3.7397,-3.6947,-3.6513,-3.6105,-3.5268,-3.4637,-3.4197,-3.4197,-3.4197,-3.4197,-3.4197,-3.4197,-3.4197,-3.4197,-3.4197,-3.4197,-3.4197,-3.4281,-3.4374,-3.4221,-3.4086,-3.3998,-3.3959,-3.3881,-3.3807,-3.3807,-3.3807,-3.3807,-3.3807,-3.3807,-3.3807,-3.3807,-3.3807,-3.3807,-3.3807,-3.3807,-3.3807,-3.3807,-3.3807,-3.363,-3.2949,-3.2793,-3.2624,-3.1948,-3.18,-3.18,-3.18,-3.18,-3.18,-3.18,-3.18,-3.18,-3.18,-3.18,-3.18,-3.18,-3.18,-3.18,-3.18,-3.18,-3.18,-3.18,-3.18,-3.18,-3.18,-3.2125,-3.2294,-3.2294,-3.2877,-3.3148,-3.3046,-3.2632,-3.1995,-3.119,-3.2307,-3.322,-3.3981,-3.5076,-3.56,-4.0912,-4.0791,-4.067,-4.067,0.0,-4.0618,0.0,0.0,0.0,-4.136,0.0,0.0,0.0,0.0,0.0,0.0,0.0,0.0,0.0,0.0,0.0,0.0,0.0,0.0,0.0,-4.212,-4.1026,-3.9784,-3.8341,-3.7689,-3.8091,-3.77,-3.7657,-3.8057,-3.7806,-3.7294,-3.6495,-3.5974,-3.5306,-3.4439,-3.4606,-3.4587,-3.4439,-3.4439,-3.4364,-3.4197,-3.4197,-3.4104,-3.3974,-3.4141,-3.4104,-3.3974,-3.4129,-3.4111,-3.3998,-3.3985,-3.3895,-3.3807,-3.3807,-3.3807,-3.3807,-3.3807,-3.3807,-3.3807,-3.3807,-3.3807,-3.3807,-3.3807,-3.3807,-3.3807,-3.3807,-3.3752,-3.3543,-3.2946,-3.2755,-3.2535,-3.1931,-3.18,-3.18,-3.18,-3.18,-3.18,-3.18,-3.18,-3.18,-3.18,-3.18,-3.18,-3.18,-3.18,-3.18,-3.18,-3.18,-3.18,-3.18,-3.18,-3.18,-3.18,-3.18,-3.18,-3.18,-3.2309,-3.2481,-3.2301,-3.2301,-3.1956,-3.1249,-3.1995,-3.2699,-3.344,-3.4754,-3.5447,0.0,0.0,0.0,0.0,-3.9336,0.0,0.0,0.0,-3.8996,-3.8996,0.0,0.0,0.0,0.0,0.0,0.0,0.0,0.0,0.0,0.0,0.0,0.0,0.0,0.0,0.0,-4.0802,-3.9888,-3.9715,-3.8341,-3.7689,-3.8091,-3.7165,-3.6811,-3.7221,-3.6976,-3.6458,-3.564,-3.6253,-3.616,-3.5361,-3.6086,-3.6049,-3.5343,-3.5343,-3.4934,-3.4197,-3.4197,-3.3788,-3.3187,-3.39,-3.377,-3.3194,-3.3858,-3.4074,-3.3998,-3.3934,-3.3855,-3.3807,-3.3807,-3.3807,-3.3807,-3.3807,-3.3807,-3.3807,-3.3807,-3.3807,-3.3807,-3.3807,-3.3807,-3.3807,-3.3807,-3.3578,-3.325,-3.2899,-3.257,-3.2245,-3.1881,-3.18,-3.18,-3.18,-3.18,-3.18,-3.18,-3.18,-3.18,-3.18,-3.18,-3.18,-3.18,-3.18,-3.18,-3.18,-3.18,-3.18,-3.18,-3.18,-3.18,-3.18,-3.18,-3.18,-3.18,-3.1757,-3.1696,-3.1615,-3.1598,-3.1564,-3.146,-3.2148,-3.2795,-3.3423,-3.4235,-3.4979,0.0,0.0,0.0,0.0,0.0,0.0,-3.8594,0.0,-3.8496,0.0,0.0,0.0,0.0,0.0,0.0,0.0,0.0,0.0,0.0,0.0,0.0,0.0,0.0,0.0,0.0,0.0,0.0,0.0,-3.9388,-3.8868,-3.9082,-3.829,-3.7928,-3.8135,-3.8071,-3.7668,-3.6891,-3.7225,-3.6983,-3.6197,-3.6067,-3.5826,-3.5473,-3.499,-3.455,-3.416,-3.3714,-3.3317,-3.3039,-3.3361,-3.3287,-3.3064,-3.3809,-3.4061,-3.3998,-3.3972,-3.3881,-3.3807,-3.3807,-3.3807,-3.3807,-3.3807,-3.3807,-3.3807,-3.3807,-3.3807,-3.3807,-3.3807,-3.3807,-3.3807,-3.3807,-3.356,-3.3222,-3.288,-3.2544,-3.2209,-3.1864,-3.18,-3.18,-3.18,-3.18,-3.18,-3.18,-3.18,-3.18,-3.18,-3.18,-3.18,-3.18,-3.18,-3.18,-3.18,-3.18,-3.18,-3.18,-3.18,-3.18,-3.18,-3.18,-3.18,-3.18,-3.1746,-3.1671,-3.1559,-3.1559,-3.1538,-3.1498,-3.1784,-3.225,-3.2897,-3.4007,-3.4718,-4.0273,0.0,0.0,0.0,0.0,0.0,0.0,0.0,0.0,0.0,0.0,0.0,0.0,0.0,0.0,0.0,0.0,0.0,0.0,0.0,0.0,0.0,0.0,0.0,0.0,0.0,0.0,0.0,0.0,-3.9844,-4.0101,-3.9274,-3.8938,-3.9213,-3.9094,-3.8646,-3.7912,-3.8116,-3.7708,-3.6699,-3.6328,-3.5937,-3.5473,-3.4829,-3.442,-3.416,-3.3343,-3.3001,-3.3001,-3.3001,-3.3001,-3.3064,-3.3809,-3.4061,-3.3998,-3.3985,-3.3895,-3.3807,-3.3807,-3.3807,-3.3807,-3.3807,-3.3807,-3.3807,-3.3807,-3.3807,-3.3807,-3.3807,-3.3807,-3.3807,-3.3807,-3.3473,-3.3093,-3.2866,-3.2462,-3.211,-3.1862,-3.18,-3.18,-3.18,-3.18,-3.18,-3.18,-3.18,-3.18,-3.18,-3.18,-3.18,-3.18,-3.18,-3.18,-3.18,-3.18,-3.18,-3.18,-3.18,-3.18,-3.18,-3.18,-3.18,-3.18,-3.18,-3.1746,-3.1671,-3.1635,-3.1634,-3.1593,-3.1538,-3.1771,-3.2293,-3.3426,-3.4198,0.0,0.0,0.0,-3.7581,0.0,0.0,0.0,0.0,-3.6594,0.0,0.0,0.0,0.0,0.0,0.0,-3.8023,0.0,0.0,0.0,0.0,0.0,0.0,0.0,0.0,0.0,0.0,0.0,0.0,0.0,0.0,-4.0925,-3.9597,-3.9191,-4.0025,-3.9371,-3.8646,-3.7912,-3.8674,-3.8265,-3.6718,-3.7448,-3.7015,-3.551,-3.5473,-3.5008,-3.416,-3.3343,-3.3001,-3.3001,-3.3001,-3.3001,-3.3064,-3.3809,-3.4061,-3.3998,-3.3921,-3.3855,-3.3807,-3.3807,-3.3807,-3.3807,-3.3807,-3.3807,-3.3807,-3.3807,-3.3807,-3.3807,-3.3807,-3.3807,-3.3807,-3.3807,-3.3313,-3.2807,-3.2803,-3.2307,-3.1803,-3.1801,-3.18,-3.18,-3.18,-3.18,-3.18,-3.18,-3.18,-3.18,-3.18,-3.18,-3.18,-3.18,-3.18,-3.18,-3.18,-3.18,-3.18,-3.18,-3.18,-3.18,-3.18,-3.18,-3.18,-3.18,-3.18,-3.18,-3.18,-3.18,-3.18,-3.18,-3.1671,-3.1615,-3.1631,-3.2275,-3.3256,0.0,0.0,-3.7374,-3.6835,0.0,0.0,0.0,0.0,0.0,0.0,0.0,0.0,0.0,0.0,0.0,-3.8167,0.0,0.0,0.0,0.0,0.0,0.0,0.0,0.0,0.0,0.0,0.0,0.0,-4.0584,0.0,0.0,-4.0271,-3.9942,-4.0095,-3.9346,-3.8863,-3.8692,-3.8952,-3.8562,-3.7485,-3.7225,-3.6551,-3.5473,-3.4903,-3.4476,-3.416,-3.3343,-3.3001,-3.3001,-3.3001,-3.3001,-3.3083,-3.3759,-3.4023,-3.3998,-3.3921,-3.3873,-3.3807,-3.3807,-3.3807,-3.3807,-3.3807,-3.3807,-3.3807,-3.3807,-3.3807,-3.3807,-3.3807,-3.3807,-3.3752,-3.3542,-3.314,-3.2738,-3.2526,-3.2126,-3.18,-3.18,-3.18,-3.18,-3.18,-3.18,-3.18,-3.18,-3.18,-3.18,-3.18,-3.18,-3.18,-3.18,-3.18,-3.18,-3.18,-3.18,-3.18,-3.18,-3.18,-3.18,-3.18,-3.18,-3.18,-3.18,-3.18,-3.18,-3.18,-3.1709,-3.1671,-3.1671,-3.1595,-3.1483,-3.1408,-3.1623,-3.2227,-3.6059,-3.5852,0.0,-3.4887,-3.4697,0.0,-3.5714,0.0,0.0,0.0,0.0,0.0,0.0,0.0,0.0,0.0,0.0,0.0,0.0,-3.5943,0.0,0.0,0.0,0.0,0.0,0.0,-3.989,-4.0112,-4.0742,0.0,0.0,0.0,-4.0428,-4.0505,-3.9464,-3.8964,-3.9101,-3.9101,-3.8544,-3.7466,-3.6959,-3.6123,-3.5027,-3.4457,-3.4197,-3.416,-3.3343,-3.3169,-3.341,-3.3131,-3.3145,-3.3437,-3.3845,-3.3985,-3.3959,-3.3881,-3.3847,-3.3807,-3.3807,-3.3807,-3.3807,-3.3807,-3.3807,-3.3807,-3.3807,-3.3807,-3.3807,-3.3807,-3.3702,-3.3578,-3.335,-3.2962,-3.2571,-3.2354,-3.2045,-3.18,-3.18,-3.18,-3.18,-3.18,-3.18,-3.18,-3.18,-3.18,-3.18,-3.18,-3.18,-3.18,-3.18,-3.18,-3.18,-3.18,-3.18,-3.18,-3.18,-3.18,-3.18,-3.18,-3.18,-3.18,-3.18,-3.1746,-3.1727,-3.1727,-3.1615,-3.1559,-3.1559,-3.1519,-3.1443,-3.1295,-3.1295,-3.1565]},{"header":{"parameterUnit":"m.s-1","parameterCategory":1,"la1":30.6,"la2":29.2853,"lo1":-89.7004,"lo2":-87.6739,"dy":0.0162,"dx":0.0183,"nx":112,"ny":82,"refTime":"2026-04-26T12:00:00:Z","depth":0,"parameterNumber":3,"parameterNumberName":"V-component_of_WINDS"},"data":[0.0,0.0,0.0,0.0,0.0,0.0,0.0,0.0,0.0,0.0,0.0,0.0,0.0,0.0,0.0,0.0,0.0,0.0,0.0,0.0,0.0,0.0,0.0,0.0,0.0,0.0,0.0,0.0,0.0,0.0,0.0,0.0,0.0,0.0,0.0,0.0,0.0,0.0,0.0,0.0,0.0,0.0,0.0,0.0,0.0,0.0,0.0,0.0,0.0,0.0,0.0,0.0,0.0,0.0,0.0,0.0,0.0,0.0,0.0,0.0,0.0,0.0,0.0,0.0,0.0,0.0,0.0,0.0,0.0,0.0,0.0,0.0,0.0,0.0,0.0,0.0,0.0,0.0,0.0,0.0,0.0,0.0,0.0,0.0,0.0,0.0,0.0,0.0,0.0,0.0,-2.2589,-2.034,-2.0915,-2.1668,-2.2087,-2.3505,-2.4152,-2.3601,0.0,0.0,0.0,0.0,0.0,0.0,0.0,0.0,0.0,0.0,0.0,0.0,0.0,0.0,0.0,0.0,0.0,0.0,0.0,0.0,0.0,0.0,0.0,0.0,0.0,0.0,0.0,0.0,0.0,0.0,0.0,0.0,0.0,0.0,0.0,0.0,0.0,0.0,0.0,0.0,0.0,0.0,0.0,0.0,0.0,0.0,0.0,0.0,0.0,0.0,0.0,0.0,0.0,0.0,0.0,0.0,0.0,0.0,0.0,0.0,0.0,0.0,0.0,0.0,0.0,0.0,0.0,0.0,0.0,0.0,0.0,0.0,0.0,0.0,0.0,0.0,0.0,0.0,0.0,0.0,0.0,0.0,0.0,0.0,0.0,0.0,0.0,0.0,0.0,0.0,0.0,0.0,0.0,0.0,0.0,0.0,0.0,0.0,0.0,0.0,0.0,0.0,0.0,0.0,-2.1877,-2.1402,-2.1223,-2.1551,-2.2422,-2.3278,-2.3893,-2.4209,0.0,0.0,0.0,0.0,0.0,0.0,0.0,0.0,0.0,0.0,0.0,0.0,0.0,0.0,0.0,0.0,0.0,0.0,0.0,0.0,0.0,0.0,0.0,0.0,0.0,0.0,0.0,0.0,0.0,0.0,0.0,0.0,0.0,0.0,0.0,0.0,0.0,0.0,0.0,0.0,0.0,0.0,0.0,0.0,0.0,0.0,0.0,0.0,0.0,0.0,0.0,0.0,0.0,0.0,0.0,0.0,0.0,0.0,0.0,0.0,0.0,0.0,0.0,0.0,0.0,0.0,0.0,0.0,0.0,0.0,0.0,0.0,0.0,0.0,0.0,0.0,0.0,0.0,0.0,0.0,0.0,0.0,0.0,0.0,0.0,0.0,0.0,0.0,0.0,0.0,0.0,0.0,0.0,0.0,0.0,0.0,0.0,0.0,0.0,0.0,0.0,0.0,0.0,-2.1553,-2.092,-2.1538,-2.1289,-2.1724,-2.3226,-2.4286,-2.4964,-2.52,-2.6626,0.0,0.0,0.0,0.0,0.0,0.0,0.0,0.0,0.0,0.0,0.0,0.0,0.0,0.0,0.0,0.0,0.0,0.0,0.0,0.0,0.0,0.0,0.0,0.0,0.0,0.0,0.0,0.0,0.0,0.0,0.0,0.0,0.0,0.0,0.0,0.0,0.0,0.0,0.0,0.0,0.0,0.0,0.0,0.0,0.0,0.0,0.0,0.0,0.0,0.0,0.0,0.0,0.0,0.0,0.0,0.0,0.0,0.0,0.0,0.0,0.0,0.0,0.0,0.0,0.0,0.0,0.0,0.0,0.0,0.0,0.0,0.0,0.0,0.0,0.0,0.0,0.0,0.0,0.0,0.0,0.0,0.0,0.0,0.0,0.0,0.0,0.0,0.0,0.0,0.0,0.0,0.0,0.0,0.0,0.0,0.0,0.0,0.0,0.0,0.0,0.0,0.0,-2.084,-2.0454,-2.1349,-2.1554,-2.2251,-2.3862,-2.5322,-2.6122,-2.6035,-2.7267,0.0,0.0,0.0,0.0,0.0,0.0,0.0,0.0,0.0,0.0,0.0,0.0,0.0,0.0,0.0,0.0,0.0,0.0,0.0,0.0,0.0,0.0,0.0,0.0,0.0,0.0,0.0,0.0,0.0,0.0,0.0,0.0,0.0,0.0,0.0,0.0,0.0,0.0,0.0,0.0,0.0,0.0,0.0,0.0,0.0,0.0,0.0,0.0,0.0,0.0,0.0,0.0,0.0,0.0,0.0,0.0,0.0,0.0,0.0,0.0,0.0,0.0,0.0,0.0,0.0,0.0,0.0,0.0,0.0,0.0,0.0,0.0,0.0,0.0,0.0,0.0,0.0,0.0,0.0,0.0,0.0,0.0,0.0,0.0,0.0,0.0,0.0,0.0,0.0,0.0,0.0,0.0,0.0,0.0,0.0,0.0,0.0,0.0,0.0,0.0,0.0,0.0,-2.0598,-2.1049,-2.1129,-2.223,-2.327,-2.4046,-2.5636,-2.6569,-2.6373,-2.6798,0.0,0.0,0.0,0.0,0.0,0.0,0.0,0.0,0.0,0.0,0.0,0.0,0.0,0.0,0.0,0.0,0.0,0.0,0.0,0.0,0.0,0.0,0.0,0.0,0.0,0.0,0.0,0.0,0.0,0.0,0.0,0.0,0.0,0.0,0.0,0.0,0.0,0.0,0.0,0.0,0.0,0.0,0.0,0.0,0.0,0.0,0.0,0.0,0.0,0.0,0.0,0.0,0.0,0.0,0.0,0.0,0.0,0.0,0.0,0.0,0.0,0.0,0.0,0.0,0.0,0.0,0.0,0.0,0.0,0.0,0.0,0.0,0.0,0.0,0.0,0.0,0.0,0.0,0.0,0.0,0.0,0.0,0.0,0.0,0.0,0.0,0.0,0.0,0.0,0.0,0.0,0.0,0.0,0.0,0.0,0.0,0.0,0.0,0.0,0.0,0.0,0.0,-2.1181,-2.1558,0.0,-2.2592,-2.3955,-2.6313,-2.7049,-2.7466,-2.7596,0.0,0.0,0.0,0.0,0.0,0.0,0.0,0.0,0.0,0.0,0.0,0.0,0.0,0.0,0.0,0.0,0.0,0.0,0.0,0.0,0.0,0.0,0.0,0.0,0.0,0.0,0.0,0.0,0.0,0.0,0.0,0.0,0.0,0.0,0.0,0.0,0.0,0.0,0.0,0.0,0.0,0.0,0.0,0.0,0.0,0.0,0.0,0.0,0.0,0.0,0.0,0.0,0.0,0.0,0.0,0.0,0.0,0.0,0.0,0.0,0.0,0.0,0.0,0.0,0.0,0.0,0.0,0.0,0.0,0.0,0.0,0.0,0.0,0.0,0.0,0.0,0.0,0.0,0.0,0.0,0.0,0.0,0.0,0.0,0.0,0.0,0.0,0.0,0.0,0.0,0.0,0.0,0.0,0.0,0.0,0.0,0.0,0.0,0.0,0.0,0.0,0.0,-2.1706,-2.174,-2.2335,0.0,-2.3968,-2.5365,-2.7931,-2.8091,-2.8108,-2.8306,0.0,0.0,0.0,0.0,0.0,0.0,0.0,0.0,0.0,0.0,0.0,0.0,0.0,0.0,0.0,0.0,0.0,0.0,0.0,0.0,0.0,0.0,0.0,0.0,0.0,0.0,0.0,0.0,0.0,0.0,0.0,0.0,0.0,0.0,0.0,0.0,0.0,0.0,0.0,0.0,0.0,0.0,0.0,0.0,0.0,0.0,0.0,0.0,0.0,0.0,0.0,0.0,0.0,0.0,0.0,0.0,0.0,0.0,0.0,0.0,0.0,0.0,0.0,0.0,0.0,0.0,0.0,0.0,0.0,0.0,0.0,0.0,0.0,0.0,0.0,0.0,0.0,0.0,0.0,0.0,0.0,0.0,0.0,0.0,0.0,0.0,0.0,0.0,0.0,0.0,0.0,0.0,0.0,0.0,0.0,0.0,0.0,0.0,0.0,0.0,0.0,0.0,-2.1832,-2.2242,-2.3322,-2.531,-2.6568,-2.7623,-2.8381,-2.8464,-2.8433,0.0,0.0,0.0,0.0,0.0,0.0,0.0,0.0,0.0,0.0,0.0,0.0,0.0,0.0,0.0,0.0,0.0,0.0,0.0,0.0,0.0,0.0,0.0,0.0,0.0,0.0,0.0,0.0,0.0,0.0,0.0,0.0,0.0,0.0,0.0,0.0,0.0,0.0,0.0,0.0,0.0,0.0,0.0,0.0,0.0,0.0,0.0,0.0,0.0,0.0,0.0,0.0,0.0,0.0,0.0,0.0,0.0,0.0,0.0,0.0,0.0,0.0,0.0,0.0,0.0,0.0,0.0,0.0,0.0,0.0,0.0,0.0,0.0,0.0,0.0,0.0,0.0,0.0,0.0,0.0,0.0,0.0,0.0,0.0,0.0,0.0,0.0,0.0,0.0,0.0,0.0,0.0,0.0,0.0,0.0,0.0,0.0,0.0,0.0,0.0,0.0,0.0,0.0,-2.4427,-2.5275,-2.6219,-2.6873,-2.7376,-2.8128,-2.9274,-2.9315,-2.8709,-2.748,0.0,0.0,0.0,0.0,0.0,0.0,0.0,0.0,0.0,0.0,0.0,0.0,0.0,0.0,0.0,0.0,0.0,0.0,0.0,0.0,0.0,0.0,0.0,0.0,0.0,0.0,0.0,0.0,0.0,0.0,0.0,0.0,0.0,0.0,0.0,0.0,0.0,0.0,0.0,0.0,0.0,0.0,0.0,0.0,0.0,0.0,0.0,0.0,0.0,0.0,0.0,0.0,0.0,0.0,0.0,0.0,0.0,0.0,0.0,0.0,0.0,0.0,0.0,0.0,0.0,0.0,0.0,0.0,0.0,0.0,0.0,0.0,0.0,0.0,0.0,0.0,0.0,0.0,0.0,0.0,0.0,0.0,0.0,0.0,0.0,0.0,0.0,0.0,0.0,0.0,0.0,0.0,0.0,0.0,0.0,0.0,0.0,0.0,0.0,0.0,0.0,0.0,-2.5223,-2.6168,-2.7197,-2.8058,-2.8177,-2.8662,-2.9668,-2.9449,-2.873,-2.7363,0.0,0.0,0.0,0.0,0.0,0.0,0.0,0.0,0.0,0.0,0.0,0.0,0.0,0.0,0.0,0.0,0.0,0.0,0.0,0.0,0.0,0.0,0.0,0.0,0.0,0.0,0.0,0.0,0.0,0.0,0.0,0.0,0.0,0.0,0.0,0.0,0.0,0.0,0.0,0.0,0.0,0.0,0.0,0.0,0.0,0.0,0.0,0.0,0.0,0.0,0.0,0.0,0.0,0.0,0.0,0.0,0.0,0.0,0.0,0.0,0.0,0.0,0.0,0.0,0.0,0.0,0.0,0.0,0.0,0.0,0.0,0.0,0.0,0.0,0.0,0.0,0.0,0.0,0.0,0.0,0.0,0.0,0.0,0.0,0.0,0.0,0.0,0.0,0.0,0.0,0.0,0.0,0.0,0.0,0.0,0.0,0.0,0.0,0.0,0.0,0.0,0.0,-2.5099,-2.5926,-2.7114,-2.8924,-2.9053,-2.9121,-2.9482,-2.9141,-2.8525,-2.766,0.0,0.0,0.0,0.0,0.0,0.0,0.0,0.0,0.0,0.0,0.0,0.0,0.0,0.0,0.0,0.0,0.0,0.0,0.0,0.0,0.0,0.0,0.0,0.0,0.0,0.0,0.0,0.0,0.0,0.0,0.0,0.0,0.0,0.0,0.0,0.0,0.0,0.0,0.0,0.0,0.0,0.0,0.0,0.0,0.0,0.0,0.0,0.0,0.0,0.0,0.0,0.0,0.0,0.0,0.0,0.0,0.0,0.0,0.0,0.0,-1.5529,0.0,0.0,0.0,0.0,0.0,0.0,0.0,0.0,0.0,0.0,0.0,0.0,0.0,0.0,0.0,0.0,0.0,0.0,0.0,0.0,0.0,0.0,0.0,0.0,0.0,0.0,0.0,0.0,0.0,0.0,0.0,0.0,0.0,0.0,0.0,0.0,0.0,0.0,0.0,0.0,0.0,-2.6997,-2.8112,-2.9022,-2.9439,-2.9482,-2.9326,-2.9082,-2.8975,-2.8271,-2.6758,-2.6172,0.0,0.0,0.0,0.0,0.0,0.0,0.0,0.0,0.0,0.0,0.0,0.0,0.0,0.0,0.0,0.0,0.0,0.0,0.0,0.0,0.0,0.0,0.0,0.0,0.0,0.0,0.0,0.0,0.0,0.0,0.0,0.0,0.0,0.0,0.0,0.0,0.0,0.0,0.0,0.0,0.0,0.0,0.0,0.0,0.0,0.0,0.0,0.0,0.0,0.0,0.0,0.0,0.0,0.0,0.0,0.0,0.0,0.0,0.0,0.0,-1.571,0.0,0.0,0.0,0.0,0.0,0.0,0.0,0.0,0.0,0.0,0.0,0.0,0.0,0.0,0.0,0.0,0.0,0.0,0.0,0.0,0.0,0.0,0.0,0.0,0.0,0.0,0.0,0.0,0.0,0.0,0.0,0.0,0.0,0.0,0.0,0.0,0.0,0.0,0.0,0.0,-2.668,-2.8037,-2.8877,-2.8726,-2.8706,-2.8476,-2.8047,-2.8193,-2.7764,-2.6465,-2.5977,0.0,0.0,0.0,0.0,0.0,0.0,0.0,0.0,0.0,0.0,0.0,0.0,0.0,0.0,0.0,0.0,0.0,0.0,0.0,0.0,0.0,0.0,0.0,0.0,0.0,0.0,0.0,0.0,0.0,0.0,0.0,0.0,0.0,0.0,0.0,0.0,0.0,0.0,0.0,0.0,0.0,0.0,0.0,0.0,0.0,0.0,0.0,0.0,0.0,0.0,0.0,0.0,0.0,-1.178,-1.187,-1.1878,-1.2174,-1.2162,-1.1963,-1.2984,-1.4138,-1.5357,-1.7102,0.0,0.0,0.0,0.0,0.0,0.0,0.0,0.0,0.0,0.0,0.0,0.0,0.0,0.0,0.0,0.0,0.0,0.0,0.0,0.0,0.0,0.0,0.0,0.0,-2.2433,-2.2872,0.0,0.0,0.0,0.0,0.0,0.0,0.0,0.0,0.0,0.0,0.0,0.0,-2.5888,-2.7324,-2.8135,-2.7767,-2.7718,-2.749,-2.7051,-2.7344,-2.7217,-2.6435,-2.5977,-2.5333,0.0,0.0,0.0,0.0,0.0,0.0,0.0,0.0,0.0,0.0,0.0,0.0,0.0,0.0,0.0,0.0,0.0,0.0,0.0,0.0,0.0,0.0,0.0,0.0,0.0,0.0,0.0,0.0,0.0,0.0,0.0,0.0,-0.8366,-0.7679,0.0,0.0,0.0,0.0,0.0,0.0,0.0,0.0,0.0,0.0,0.0,0.0,0.0,-1.1269,-1.1427,-1.1756,-1.1935,-1.1963,-1.2146,-1.2235,-1.2239,-1.2284,-1.2361,-1.2522,-1.2685,0.0,-1.4321,-1.7049,0.0,0.0,0.0,0.0,0.0,0.0,0.0,0.0,0.0,0.0,0.0,0.0,0.0,0.0,0.0,0.0,0.0,0.0,0.0,0.0,0.0,0.0,-2.1104,-2.1232,-2.1412,-2.1283,0.0,-2.1406,-2.2173,-2.1844,-2.1827,0.0,0.0,0.0,0.0,0.0,0.0,0.0,-2.6748,-2.7695,-2.8135,-2.7767,-2.7718,-2.749,-2.7051,-2.707,-2.6894,-2.6416,-2.5977,-2.5508,-2.5047,-2.416,0.0,0.0,0.0,0.0,0.0,0.0,0.0,0.0,0.0,0.0,0.0,0.0,0.0,0.0,0.0,0.0,0.0,0.0,0.0,0.0,0.0,0.0,0.0,0.0,0.0,0.0,0.0,0.0,0.0,-0.7988,-0.6998,-0.6304,-0.6352,-0.6572,0.0,0.0,0.0,0.0,0.0,0.0,0.0,0.0,0.0,-1.0821,-1.1269,-1.1618,-1.1797,-1.2056,-1.2235,-1.2333,-1.2414,-1.2503,-1.2605,-1.2605,-1.2645,-1.2718,-1.2718,-1.2899,-1.3469,-1.6176,-1.763,-1.8276,0.0,0.0,0.0,0.0,-2.0183,-2.0205,-2.045,-2.0413,0.0,-2.0197,0.0,0.0,0.0,0.0,0.0,0.0,0.0,0.0,0.0,0.0,-2.0801,-2.113,-2.1072,-2.0859,-2.0518,-2.0778,-2.1113,0.0,-2.1159,-2.1321,-2.18,0.0,0.0,0.0,0.0,-2.5144,-2.6141,-2.7041,-2.7412,-2.6992,-2.6943,-2.6768,-2.6288,-2.6523,-2.6484,-2.6045,-2.5791,-2.5596,-2.5449,-2.4609,-2.4053,0.0,0.0,0.0,0.0,0.0,0.0,0.0,0.0,0.0,0.0,0.0,0.0,0.0,0.0,0.0,0.0,0.0,0.0,0.0,0.0,0.0,0.0,0.0,0.0,0.0,0.0,0.0,0.0,-0.6813,-0.5877,-0.5113,-0.5135,-0.5322,0.0,0.0,0.0,0.0,0.0,0.0,-0.8912,-1.0131,-1.0821,-1.0899,-1.1603,-1.2036,-1.2162,-1.2349,-1.2507,-1.2633,-1.2633,-1.2706,-1.277,-1.277,-1.277,-1.277,-1.277,-1.277,-1.3005,-1.5572,-1.7114,-1.8064,-1.9866,-2.06,-2.0616,-2.0672,-2.0684,-2.0647,-2.0889,-2.0859,-2.0698,-2.0537,0.0,-2.0095,-1.9667,0.0,0.0,0.0,0.0,-2.0011,-2.0581,-2.072,-2.0786,-2.1028,-2.0903,-2.0676,-2.0508,-2.0289,-2.0182,0.0,-2.0467,-2.0625,-2.104,0.0,0.0,0.0,0.0,-2.4538,-2.5732,-2.6553,-2.6855,-2.6435,-2.6387,-2.6211,-2.5723,-2.6035,-2.6084,-2.5703,-2.5693,-2.5693,-2.5693,-2.506,-2.4697,-2.459,0.0,0.0,0.0,0.0,0.0,0.0,0.0,0.0,0.0,0.0,0.0,0.0,0.0,0.0,0.0,0.0,0.0,0.0,0.0,0.0,0.0,0.0,0.0,0.0,0.0,0.0,0.0,0.0,0.0,-0.4585,-0.4598,0.0,0.0,0.0,0.0,-0.5026,-0.7235,-0.8551,-0.8551,-1.0595,-1.1662,-1.1499,-1.221,-1.2592,-1.26,-1.2718,-1.2746,-1.2824,-1.2824,-1.2762,-1.277,-1.277,-1.277,-1.277,-1.277,-1.277,-1.3017,-1.5808,-1.7017,-1.7343,-2.0422,-2.1589,-2.1642,-2.1955,-2.1891,-2.1628,-2.1642,-2.124,-2.0772,-2.1064,-2.0742,-2.0176,-2.0139,-1.9981,0.0,0.0,-1.9981,-2.0234,-2.0633,-2.072,-2.0728,-2.0742,-2.0735,-2.0552,-1.9999,-1.9852,-1.983,0.0,-1.9839,-2.0091,-2.0798,0.0,-2.1122,-2.3646,-2.4051,-2.4641,-2.619,-2.6738,-2.6855,-2.6435,-2.6387,-2.6211,-2.5723,-2.5703,-2.5713,-2.5693,-2.5693,-2.5693,-2.5693,-2.5645,-2.5469,-2.5086,-2.4199,0.0,0.0,0.0,0.0,0.0,0.0,0.0,0.0,0.0,0.0,0.0,0.0,0.0,0.0,0.0,0.0,0.0,0.0,0.0,0.0,0.0,0.0,0.0,0.0,0.0,0.0,0.0,0.0,-0.3929,-0.4058,0.0,-0.3656,-0.4277,-0.4608,-0.4201,-0.6684,-0.8033,-0.76,-1.0212,-1.1607,-1.1546,-1.2354,-1.2739,-1.2739,-1.2804,-1.277,-1.277,-1.277,-1.277,-1.277,-1.277,-1.277,-1.277,-1.277,-1.277,-1.296,-1.4887,-1.6179,-1.7228,-1.9447,-2.0916,-2.1735,-2.2057,-2.1979,-2.1693,-2.1693,-2.1408,-2.1057,-2.1174,-2.0911,-2.0489,-2.0489,-2.0325,-2.0113,-2.0325,-2.0464,-2.0625,-2.0947,-2.0881,-2.072,-2.072,-2.0406,-2.004,-1.9867,-1.9647,-1.95,-1.95,-1.95,-1.9568,-1.985,-1.973,-2.012,-2.1503,-2.2479,-2.3398,-2.4401,-2.5516,-2.6025,-2.5634,-2.5801,-2.5859,-2.5703,-2.5693,-2.5693,-2.5693,-2.5693,-2.5693,-2.5693,-2.5693,-2.5527,-2.5125,-2.4492,-2.3643,0.0,0.0,0.0,0.0,0.0,0.0,0.0,0.0,0.0,0.0,0.0,0.0,0.0,0.0,0.0,0.0,0.0,0.0,0.0,0.0,0.0,0.0,0.0,0.0,0.0,0.0,-0.354,-0.333,-0.3443,-0.3439,-0.3151,-0.3506,-0.3661,-0.322,-0.5856,-0.728,-0.6839,-0.9748,-1.1482,-1.1482,-1.2246,-1.2638,-1.2638,-1.277,-1.277,-1.277,-1.277,-1.277,-1.277,-1.277,-1.277,-1.277,-1.277,-1.277,-1.2902,-1.3809,-1.5276,-1.7177,-1.8884,-2.0476,-2.1868,-2.2187,-2.2168,-2.1832,-2.1606,-2.1393,-2.1211,-2.1211,-2.1064,-2.0889,-2.0889,-2.0735,-2.0555,-2.0823,-2.0889,-2.0911,-2.102,-2.0889,-2.0669,-2.045,-2.0077,-1.9786,-1.9676,-1.9485,-1.9279,-1.9279,-1.9279,-1.9279,-1.9279,-1.9279,-1.9671,-2.0758,-2.1703,-2.2661,-2.3689,-2.467,-2.5234,-2.5135,-2.5332,-2.5528,-2.5674,-2.5596,-2.5576,-2.5674,-2.5411,-2.5313,-2.5508,-2.5371,-2.5146,-2.4853,-2.4277,-2.3496,-2.251,0.0,0.0,0.0,0.0,0.0,0.0,0.0,0.0,0.0,0.0,0.0,0.0,0.0,0.0,0.0,0.0,0.0,0.0,0.0,0.0,0.0,0.0,0.0,-0.3301,-0.3459,-0.3333,-0.2754,-0.2801,-0.261,-0.199,-0.1933,-0.1946,-0.1975,-0.4619,-0.6232,-0.63,-0.9362,-1.1178,-1.1181,-1.1912,-1.2309,-1.2309,-1.2638,-1.277,-1.277,-1.277,-1.277,-1.277,-1.277,-1.277,-1.277,-1.277,-1.277,-1.277,-1.277,-1.4455,-1.7168,-1.8832,-2.05,-2.2174,-2.2473,-2.2396,-2.2081,-2.143,-2.1211,-2.1211,-2.1211,-2.1211,-2.1211,-2.1211,-2.1211,-2.1211,-2.1211,-2.1203,-2.1123,-2.0801,-2.0706,-2.0537,-1.9962,-1.9808,-1.9713,-1.9345,-1.9279,-1.9324,-1.9264,-1.9257,-1.9257,-1.9257,-1.9302,-1.9838,-2.1535,-2.1837,0.0,-2.4026,-2.4285,-2.4507,-2.4933,-2.5049,-2.5244,-2.5635,-2.5303,-2.5244,-2.5635,-2.4902,-2.4609,-2.5077,-2.4639,-2.4414,-2.4414,-2.353,-2.2896,-2.2529,0.0,0.0,0.0,0.0,0.0,0.0,0.0,0.0,0.0,0.0,0.0,0.0,0.0,0.0,0.0,0.0,0.0,0.0,0.0,0.0,0.0,-0.2827,-0.2602,-0.2805,-0.2536,-0.2329,-0.2164,-0.2218,-0.2198,-0.1963,-0.1982,-0.199,-0.1977,-0.3701,-0.5215,-0.6232,-0.8423,-1.0133,-1.1178,-1.1912,-1.2309,-1.2309,-1.2638,-1.277,-1.277,-1.277,-1.277,-1.277,-1.277,-1.277,-1.277,-1.277,-1.277,-1.277,-1.277,-1.4455,-1.7044,-1.7736,-1.9725,-2.2083,-2.2224,-2.2064,-2.1774,-2.1357,-2.1211,-2.1211,-2.1211,-2.1211,-2.1211,-2.1211,-2.1211,-2.1211,-2.1211,-2.1035,-2.0837,-2.075,-2.0377,-1.9981,-1.9859,-1.9632,-1.9389,-1.9294,-1.9279,-1.9206,-1.8964,-1.8921,-1.8921,-1.8921,-1.873,-1.8733,-1.9224,-2.0144,0.0,-2.0715,-2.2057,-2.303,-2.3075,-2.3579,-2.4278,-2.5187,-2.4853,-2.4775,-2.5225,-2.4727,-2.4473,-2.459,-2.4482,-2.4414,-2.4414,-2.353,-2.3042,0.0,0.0,0.0,0.0,0.0,0.0,0.0,0.0,0.0,0.0,0.0,0.0,0.0,0.0,0.0,0.0,0.0,0.0,0.0,0.0,0.0,0.0,-0.2339,-0.2263,-0.2255,-0.2037,-0.1857,-0.1883,-0.1917,-0.1949,-0.1974,-0.1991,-0.1994,-0.1978,-0.3375,-0.4813,-0.623,-0.7938,-0.9565,-1.1178,-1.1644,-1.1978,-1.2309,-1.2507,-1.2638,-1.277,-1.277,-1.277,-1.277,-1.277,-1.277,0.0,-1.277,-1.277,-1.277,-1.277,-1.4083,0.0,0.0,0.0,0.0,0.0,-2.183,-2.165,-2.132,-2.1211,-2.1211,-2.1211,-2.1211,-2.1211,-2.1211,-2.1211,-2.1181,-2.1042,-2.0867,-2.0662,-2.0391,-2.004,-1.9786,-1.9647,-1.9463,-1.9279,-1.9279,-1.9169,-1.9016,-1.8825,-1.8569,0.0,-1.8379,-1.8343,-1.8447,-1.8882,-1.9626,-2.0142,-2.0108,-2.1562,-2.265,-2.2803,-2.3606,-2.4507,-2.5284,-2.4775,0.0,0.0,0.0,-2.3842,-2.3842,-2.3842,0.0,0.0,0.0,0.0,0.0,0.0,0.0,0.0,-2.2529,-2.248,0.0,0.0,0.0,0.0,0.0,0.0,0.0,0.0,0.0,0.0,0.0,0.0,0.0,0.0,0.0,0.0,-0.2044,-0.1795,-0.1795,-0.1795,-0.1818,-0.1879,-0.1886,-0.1909,-0.1971,-0.1977,-0.1977,-0.1977,-0.3369,-0.48,-0.6213,0.0,0.0,0.0,0.0,-1.1494,-1.2243,-1.2309,-1.2441,-1.277,-1.277,-1.277,-1.277,-1.277,-1.277,-1.277,-1.277,-1.277,-1.277,-1.2746,-1.3466,-1.4763,-1.6493,-1.8965,-2.1535,-2.1602,-2.1613,-2.1598,-2.1313,0.0,0.0,-2.1211,-2.1211,-2.1211,-2.1211,-2.1181,-2.1094,-2.0801,-2.0669,-2.0486,-1.9962,-1.9786,-1.9683,-1.9345,-1.9279,-1.9264,-1.9228,-1.8994,-1.8767,-1.8694,-1.8211,-1.7801,-1.7765,-1.7999,-1.8491,-1.9441,-1.9626,-1.9974,-2.0889,-2.1856,-2.2711,-2.3224,0.0,0.0,-2.544,-2.4709,-2.4463,-2.4893,-2.3799,-2.3091,-2.3091,-2.3091,-2.3091,-2.3091,-2.3091,-2.3091,-2.3091,-2.3091,-2.3091,-2.3081,-2.2373,-2.2227,0.0,0.0,0.0,0.0,0.0,0.0,0.0,0.0,0.0,0.0,0.0,0.0,0.0,0.0,0.0,-0.1977,-0.1868,-0.1795,-0.1795,-0.1795,-0.1818,-0.1879,-0.1886,-0.1909,-0.1971,-0.1977,-0.1977,-0.1977,-0.3212,-0.46,-0.6055,-0.7464,-0.8909,-1.0593,-1.0925,-1.1315,-1.1909,-1.2177,-1.2441,-1.277,0.0,0.0,-1.277,-1.277,-1.277,-1.277,-1.277,-1.277,-1.2762,-1.2678,-1.3336,-1.4726,-1.7433,-1.9447,-2.0886,-2.1187,-2.1285,-2.1298,-2.1233,-2.1211,-2.1211,-2.1211,-2.1211,-2.1211,-2.1211,-2.1028,0.0,-2.0742,-2.0347,-1.9977,-1.9852,-1.9625,-1.9404,-1.9346,-1.9279,-1.9258,-1.8942,-1.8833,-1.8635,-1.8108,-1.7904,-1.7728,-1.7417,-1.7425,-1.7651,-1.8108,-1.8424,-1.8833,-1.955,-2.0289,-2.1065,-2.1953,-2.2483,-2.3129,-2.4114,-2.3691,-2.3574,-2.4014,-2.3432,-2.3091,-2.3091,-2.3091,-2.3091,-2.3091,-2.3091,-2.3091,-2.3091,-2.3091,-2.3091,-2.3091,-2.2925,-2.2896,0.0,0.0,0.0,0.0,0.0,0.0,0.0,0.0,0.0,0.0,0.0,-0.3949,-0.3199,0.0,-0.2061,-0.1816,-0.1782,-0.1795,-0.1795,-0.1795,-0.1813,-0.1864,-0.1887,-0.192,-0.1972,-0.1977,-0.2284,-0.2898,-0.357,-0.4827,-0.6966,-0.7726,-0.891,-1.0674,-1.0879,-1.1348,-1.2041,-1.2243,-1.2441,-1.277,-1.277,-1.277,-1.277,-1.277,-1.277,-1.277,-1.277,-1.2783,-1.2678,-1.2406,-1.3421,-1.5222,-1.6799,-1.8373,-1.9865,-2.066,-2.1039,-2.1211,-2.1211,-2.1211,-2.1211,-2.1211,-2.1211,-2.1181,-2.1013,-2.0852,-2.0655,-2.0333,-2.0011,-1.9779,-1.961,-1.9448,-1.9279,-1.9279,-1.9147,-1.8986,-1.8825,-1.8533,-1.8203,-1.7882,-1.7684,-1.7523,-1.7308,-1.7279,-1.7388,-1.7765,-1.7955,-1.839,-1.9438,-2.0265,-2.1191,-2.2125,-2.2897,-2.3534,-2.4056,-2.3711,-2.3467,-2.3467,-2.3218,-2.3091,-2.3091,-2.3091,-2.3091,-2.3091,-2.3091,-2.3091,-2.3091,-2.3091,-2.3091,-2.3091,-2.3091,-2.3091,0.0,0.0,0.0,0.0,0.0,0.0,0.0,-0.5105,-0.4683,-0.4532,-0.3802,-0.3108,-0.2707,-0.2354,-0.2198,-0.2458,-0.2297,-0.213,-0.2132,-0.1964,-0.1807,-0.1896,-0.1885,-0.193,-0.1973,-0.2222,-0.2774,-0.3815,-0.4366,-0.5683,-0.7938,-0.8316,-0.9177,-1.0781,-1.0791,-1.1268,-1.2192,-1.2192,-1.2405,-1.277,-1.277,-1.277,-1.277,-1.277,-1.282,-1.2783,-1.2747,-1.2629,-1.2438,-1.215,-1.3342,-1.5461,-1.5807,-1.7097,-1.8872,-2.0224,-2.0902,-2.1211,-2.1211,-2.1211,-2.1211,-2.1211,-2.1211,-2.1152,-2.0823,-2.0676,-2.0508,-1.9923,-1.9771,-1.9661,-1.9345,-1.9279,-1.9279,-1.9279,-1.903,-1.8774,-1.8708,-1.8233,-1.7794,-1.7735,-1.7461,-1.7279,-1.7279,-1.7279,-1.7388,-1.7765,-1.7816,-1.8241,-1.9564,-2.0599,-2.1613,-2.248,-2.3509,-2.417,-2.417,-2.3857,-2.3516,-2.312,-2.3091,-2.3091,-2.3091,-2.3091,-2.3091,-2.3091,-2.3091,-2.3091,-2.3091,-2.3091,-2.3091,-2.3091,-2.3091,-2.3091,-0.8951,-0.7585,-0.6352,-0.5829,-0.5076,-0.4434,0.0,-0.4116,-0.3739,-0.2897,-0.2654,-0.276,-0.328,-0.3339,-0.3674,-0.4792,-0.4081,-0.3415,-0.3423,-0.2469,-0.1853,-0.1914,-0.1926,-0.193,-0.1973,-0.302,-0.3753,-0.3875,-0.608,-0.7617,-0.7877,-0.8983,-0.9739,-1.0093,-1.01,-1.0612,-1.1682,-1.1686,-1.2088,-1.277,-1.277,-1.277,-1.277,-1.277,-1.2747,-1.2588,-1.2434,-1.2264,-1.2085,-1.2048,-1.2782,-1.4052,-1.5219,-1.6762,-1.8609,-2.0148,-2.0902,-2.1211,-2.1211,-2.1211,-2.1211,-2.1211,-2.1211,-2.1152,-2.0823,-2.0467,-2.0216,-1.9918,-1.961,-1.9375,-1.9286,-1.9279,-1.9279,-1.9279,-1.903,-1.8708,-1.8423,-1.8072,-1.7728,-1.7388,-1.7355,-1.7279,-1.7279,-1.7279,-1.7388,-1.7765,-1.7816,-1.8159,-1.9233,-2.0171,-2.1061,-2.1725,-2.2688,-2.3237,-2.3237,-2.3198,-2.3149,-2.3101,-2.3091,-2.3091,-2.3091,-2.3091,-2.3091,-2.3091,-2.3091,-2.3091,-2.3091,-2.3091,-2.3091,-2.3091,-2.3091,-2.3091,-0.744,-0.6215,-0.5254,-0.4877,-0.4808,-0.4888,-0.4908,-0.4593,-0.4297,-0.4481,-0.3741,-0.3361,-0.4254,-0.4508,-0.4764,-0.5299,-0.4972,-0.4643,-0.4653,-0.4211,-0.3932,-0.4046,-0.4135,-0.3916,-0.3202,-0.357,-0.455,-0.608,-0.7243,-0.8224,-0.8961,-0.9515,-0.989,-0.998,-1.0236,-1.0719,-1.1389,-1.1743,-1.2148,-1.2678,-1.2787,-1.2779,-1.2678,-1.2678,-1.258,-1.2402,-1.2223,-1.2101,-1.202,-1.1922,-1.3036,-1.4857,-1.5564,-1.7325,-1.9564,-2.0206,-2.0795,-2.1211,-2.1211,-2.1211,-2.1211,-2.1211,-2.1079,-2.0867,-2.0482,-2.0216,-1.9894,-1.9625,-1.9434,-1.9279,-1.9279,-1.9279,-1.9228,-1.9038,-1.8745,-1.8416,-1.8094,-1.7765,-1.7494,-1.7308,-1.7279,-1.7279,-1.7279,-1.7279,-1.7311,-1.726,-1.7413,-1.7854,-1.887,-1.9328,-2.0146,-2.1535,-2.2555,-2.3091,-2.3091,-2.3091,-2.3091,-2.3091,-2.2867,-2.273,-2.273,-2.273,-2.273,-2.273,-2.2974,-2.3091,-2.3091,-2.3091,-2.3091,-2.3091,-2.3091,-2.3091,-0.6034,-0.5141,-0.4457,-0.4507,-0.4741,-0.5069,-0.5394,-0.5127,-0.4922,-0.5504,-0.4725,-0.4288,-0.5369,-0.5764,-0.5999,-0.6304,-0.6086,-0.5866,-0.5873,-0.5607,-0.5502,-0.5609,-0.5761,-0.5706,-0.5091,-0.5089,-0.5837,-0.7736,-0.8224,-0.8836,-0.9761,-0.9822,-0.9873,-0.992,-1.0232,-1.0681,-1.1221,-1.1655,-1.2059,-1.2495,-1.2629,-1.2621,-1.2491,-1.2438,-1.2349,-1.2219,-1.204,-1.1959,-1.1951,-1.1829,-1.3084,-1.5154,-1.5677,-1.7443,-1.9679,-2.0155,-2.068,-2.1211,-2.1211,-2.1211,-2.1196,-2.1101,-2.0911,-2.0647,-2.023,-1.9945,-1.9749,-1.9367,-1.9279,-1.9279,-1.9279,-1.9213,-1.9081,-1.8847,-1.8474,-1.8101,-1.7867,-1.756,-1.7279,-1.7279,-1.7279,-1.7279,-1.7279,-1.726,-1.7121,-1.6939,-1.6974,-1.7368,-1.8187,-1.8824,-1.9923,-2.1872,-2.2687,-2.3091,-2.3091,-2.3091,-2.3042,-2.2925,-2.2643,-2.2461,-2.2344,-2.2344,-2.2344,-2.2344,-2.2637,-2.275,-2.275,-2.275,-2.2808,-2.2925,-2.2925,-2.2984,-0.4848,-0.4237,-0.3901,-0.4996,-0.4835,-0.4562,-0.5115,-0.5312,-0.524,-0.4751,-0.4845,-0.541,-0.6611,-0.6947,-0.7454,-0.8579,-0.7823,-0.7035,-0.7072,-0.6193,-0.5579,-0.5614,-0.576,-0.6436,-0.781,-0.7999,-0.793,-0.7919,-0.9022,-0.9758,-0.9822,-0.9822,-0.9822,-0.9829,-0.9829,-1.0267,-1.1112,-1.1116,-1.1514,-1.2316,-1.232,-1.232,-1.2308,-1.213,-1.1978,-1.2028,-1.1857,-1.1784,-1.1784,-1.178,-1.2548,-1.3904,-1.5154,-1.6562,-1.8137,-1.9737,-2.068,-2.1211,-2.1211,-2.1211,-2.1159,-2.0837,-2.0728,-2.0603,-1.9967,-1.9823,-1.9749,-1.9367,-1.9279,-1.9279,-1.9279,-1.9038,-1.8803,-1.8789,-1.8299,-1.783,-1.7816,-1.756,-1.7279,-1.7279,-1.7279,-1.7279,-1.7279,-1.7069,-1.691,-1.6903,-1.6639,-1.6558,-1.6919,-1.8846,-2.0917,-2.2862,-2.3091,-2.3091,-2.3091,-2.3091,-2.2916,-2.2559,-2.2519,-2.2334,-2.1924,-2.1904,-2.1904,-2.1904,-2.1924,-2.1924,-2.1924,-2.1924,-2.2129,-2.2529,-2.2529,-2.2711,-0.4574,-0.3996,-0.37,-0.4789,-0.5014,-0.5087,-0.5405,-0.583,-0.6201,-0.6203,-0.6192,-0.654,-0.7716,-0.8148,-0.8436,-0.8819,-0.8762,-0.853,-0.8341,-0.8211,-0.8114,-0.8096,-0.8405,-0.883,-0.9331,-0.8591,0.0,-0.923,-0.9663,-0.9866,-0.9825,-0.9822,-0.9822,-0.9822,-0.9822,-1.015,-1.0875,-1.1048,-1.1445,-1.2121,-1.2121,-1.2121,-1.2117,-1.1943,-1.1861,-1.1857,-1.1801,-1.1776,-1.1776,-1.1776,-1.2543,-1.3844,-1.5095,-1.6562,-1.8079,-1.9448,-2.0328,-2.0902,-2.1146,-2.1064,-2.0867,-2.0757,-2.0435,-2.0047,-1.9881,-1.9669,-1.9418,-1.9308,-1.9279,-1.9228,-1.9008,-1.8869,-1.8679,-1.8247,-1.7969,-1.7757,-1.7538,-1.7359,-1.7279,-1.7279,-1.7279,-1.726,-1.7055,-1.6969,-1.6756,-1.6294,-1.7053,-1.7691,-1.7807,-1.9785,-2.1463,-2.2104,-2.2491,-2.2682,-2.2682,-2.2471,-2.2246,-2.2109,-2.1826,-2.1561,-2.1455,-2.1455,-2.1455,-2.1455,-2.1738,-2.1885,-2.1885,-2.1885,-2.21,-2.251,-2.251,-2.2744,-0.4233,-0.3586,-0.3305,-0.4649,-0.498,-0.5169,-0.6051,-0.6626,-0.702,-0.7263,-0.7297,-0.7528,-0.8347,-0.8686,-0.8821,-0.8875,-0.9144,-0.9272,-0.903,-0.9282,-0.9486,-0.9462,-0.9753,-0.9968,-1.012,-0.9314,0.0,-0.9958,-0.9947,-0.9862,-0.9825,-0.9822,-0.9822,-0.9822,-0.9822,-1.0126,-1.0789,-1.0958,-1.1321,-1.1939,-1.1939,-1.1939,-1.1935,-1.1829,-1.1776,-1.1776,-1.1776,-1.1776,-1.1776,-1.1776,-1.2251,-1.3135,-1.4441,-1.5854,-1.736,-1.8628,-1.9759,-2.0566,-2.0808,-2.079,-2.0684,-2.0457,-2.0098,-1.9793,-1.9676,-1.9492,-1.9279,-1.9279,-1.9279,-1.9199,-1.8877,-1.8701,-1.8482,-1.794,-1.7728,-1.7582,-1.7377,-1.7279,-1.7279,-1.7279,-1.7238,-1.7099,-1.6939,-1.6712,-1.6345,-1.5818,-1.7031,-1.8157,-1.8586,-2.0102,-2.1418,-2.2148,-2.2366,-2.251,-2.251,-2.2129,-2.1816,-2.166,-2.1387,-2.1122,-2.0996,-2.0996,-2.0996,-2.0996,-2.1269,-2.1456,-2.1456,-2.1456,-2.1709,-2.2295,-2.2295,-2.2598,-0.3976,-0.3244,-0.2884,-0.4821,-0.4844,-0.4952,-0.6927,-0.7495,-0.7648,-0.7784,-0.8048,-0.8303,-0.8455,-0.8615,-0.8771,-0.8868,-0.9083,-0.925,-0.9213,-0.9436,-0.9609,-0.9595,-0.9714,-0.9918,-1.028,-1.0103,0.0,-0.9985,0.0,-0.9829,-0.9822,-0.9822,-0.9822,-0.9822,-0.9822,-1.0126,-1.0789,-1.0849,-1.116,-1.1776,-1.1776,-1.1776,-1.1776,-1.1776,-1.1776,-1.1776,-1.1776,-1.1776,-1.1776,-1.1776,-1.1776,-1.1957,-1.3195,-1.4604,-1.6093,-1.7428,-1.8885,-2.0258,-2.0243,-2.0404,-2.0574,-1.9967,-1.9808,-1.9735,-1.9419,-1.9279,-1.9279,-1.9279,-1.9279,-1.9199,-1.8855,-1.8533,-1.8218,-1.7874,-1.7505,-1.7279,-1.7279,-1.7279,-1.7279,-1.7279,-1.7062,-1.6873,-1.6873,-1.6309,-1.5789,-1.5433,-1.6556,-1.785,-1.9067,-1.9823,-2.0953,-2.279,-2.2662,-2.2451,-2.2451,-2.206,-2.1641,-2.119,-2.1161,-2.1016,-2.0625,-2.0605,-2.0605,-2.0605,-2.0605,-2.0605,-2.0605,-2.0605,-2.1055,-2.1885,-2.1885,-2.2334,-0.5833,-0.5573,-0.5331,-0.6167,-0.6172,-0.6201,-0.7158,-0.7573,-0.7767,-0.7804,-0.7963,-0.8177,-0.8435,-0.8699,-0.893,-0.9076,-0.9408,-0.9561,-0.9364,-0.958,-0.9697,-0.9591,-0.978,-1.0005,-1.0101,-1.0059,-0.9979,0.0,-0.9958,-0.9879,-0.9825,-0.9822,-0.9822,-0.9822,-0.9822,-1.0126,-1.0789,-1.1281,-1.1651,-1.1776,-1.1776,-1.1776,-1.1776,-1.1776,-1.1776,-1.1776,-1.1776,-1.1776,-1.1776,-1.1776,-1.1776,-1.1957,-1.3195,-1.4395,-1.5527,-1.6966,-1.8413,-1.961,-1.9548,-1.974,-1.9981,-1.9867,-1.9647,-1.9389,-1.9353,-1.9279,-1.9279,-1.9279,-1.9279,-1.9147,-1.8577,-1.8364,-1.816,-1.7589,-1.7344,-1.7279,-1.7279,-1.7279,-1.7279,-1.7279,-1.6879,-1.6536,-1.6536,-1.5972,-1.5484,-1.5396,-1.6473,-1.7477,-1.8116,-1.954,-2.0786,-2.1531,-2.1575,-2.1522,-2.1522,-2.1152,-2.0899,-2.0742,-2.0732,-2.0723,-2.0605,-2.0605,-2.0605,-2.0605,-2.0605,-2.0605,-2.0605,-2.0605,-2.1055,-2.1885,-2.1885,-2.2334,-0.6067,-0.5755,-0.5491,-0.6253,-0.6365,-0.6473,-0.7366,-0.7692,-0.7831,-0.7896,-0.7931,-0.8059,-0.8347,-0.8635,-0.8886,-0.9035,-0.9435,-0.9663,-0.9528,-0.9663,-0.9761,-0.9717,-0.9844,-0.9947,-1.0008,-0.9975,-0.9943,0.0,-0.9965,-0.9852,-0.9825,-0.9822,-0.9822,-0.9822,-0.9822,-1.0126,-1.0789,-1.1466,-1.1776,-1.1776,-1.1776,-1.1776,-1.1776,-1.1776,-1.1776,-1.1776,0.0,-1.1776,-1.1776,-1.1776,-1.1727,-1.1714,-1.2473,-1.34,-1.4578,-1.5835,-1.7271,-1.8646,-1.9021,-1.9338,-1.9603,-1.9603,-1.9425,-1.9279,-1.9279,-1.9279,-1.9279,-1.9279,-1.9177,-1.8942,-1.8438,-1.8196,-1.7962,-1.7403,-1.7279,-1.7279,-1.7279,-1.7279,-1.7198,-1.696,-1.6616,-1.6323,-1.6001,-1.5987,-1.5982,-1.5982,-1.6873,-1.7705,-1.8066,-1.9491,-2.0763,-2.1386,-2.1293,-2.119,-2.119,-2.082,-2.0605,-2.0605,-2.0605,-2.0605,-2.0605,-2.0605,-2.0605,-2.0605,-2.0605,-2.0605,-2.0605,-2.0605,-2.0928,-2.1611,-2.1797,-2.2236,-0.5958,-0.5435,-0.509,-0.5993,-0.6237,-0.6505,-0.7558,-0.7828,-0.7879,-0.7961,-0.7988,-0.8042,-0.8265,-0.8523,-0.8774,-0.8908,-0.934,-0.9598,-0.9627,-0.9713,-0.9822,-0.9822,-0.9822,-0.9822,-0.9947,-0.9883,-0.9822,-0.9947,-0.9883,-0.9822,-0.9822,-0.9822,-0.9822,-0.9822,-0.9822,-1.0183,-1.0789,-1.1405,-1.1776,-1.1776,-1.1776,-1.1776,-1.1776,-1.1776,-1.1776,-1.1776,-1.1752,0.0,-1.174,-1.1711,-1.161,-1.1464,-1.1464,-1.2267,-1.3588,-1.428,-1.5824,-1.7614,-1.8415,-1.8966,-1.9279,-1.9279,-1.9279,-1.9279,-1.9279,-1.9279,-1.9279,-1.9279,-1.9038,-1.8708,-1.8386,-1.8057,-1.7735,-1.7359,-1.7279,-1.7279,-1.7279,-1.7279,-1.715,-1.655,-1.6441,-1.6177,-1.5557,-1.6053,-1.6535,-1.6535,-1.7269,-1.7955,-1.8368,-1.9496,-2.0615,-2.154,-2.1325,-2.1103,-2.1103,-2.0791,-2.0605,-2.0605,-2.0605,-2.0605,-2.0605,-2.0605,-2.0605,-2.0605,-2.0605,-2.0605,-2.0605,-2.0605,-2.0791,-2.121,-2.1621,-2.2031,-0.8298,-0.8038,-0.7671,-0.7596,-0.7665,-0.7801,-0.7801,-0.7909,-0.7958,-0.7985,-0.7988,-0.8073,-0.8394,-0.8591,-0.8842,-0.9239,-0.9476,-0.9646,-0.9754,-0.9798,-0.9822,-0.9822,-0.9822,-0.9822,-0.9822,-0.9822,0.0,0.0,-0.9822,-0.9822,-0.9822,-0.9822,-0.9822,-0.9822,-1.0065,-1.0425,-1.0789,-1.1212,-1.1522,-1.1776,-1.1776,-1.1776,-1.1776,-1.1776,-1.1776,-1.1768,-1.1614,0.0,-1.1537,-1.1382,-1.1297,-1.1273,-1.1273,-1.1898,-1.2893,-1.3235,-1.4843,-1.6927,-1.7259,-1.8258,-1.9279,-1.9279,-1.9279,-1.9279,-1.9279,-1.9279,-1.9279,-1.9279,-1.9038,-1.8708,-1.8386,-1.8057,-1.7735,-1.7359,-1.7279,-1.7279,-1.7279,-1.7279,-1.7216,-1.6888,-1.6595,-1.6301,-1.5891,-1.5725,-1.5631,-1.5631,-1.6386,-1.7212,-1.8002,-1.8896,-1.9681,-2.0103,-2.0501,-2.0684,-2.0684,-2.0644,-2.0605,-2.0605,-2.0605,-2.0605,-2.0605,-2.0605,-2.0605,-2.0605,-2.0605,-2.0605,-2.0605,-2.0605,-2.0791,-2.119,-2.1268,-2.1582,-0.8951,-0.876,-0.8515,-0.831,-0.8401,-0.8472,-0.8175,-0.8181,-0.8187,-0.8038,-0.7988,-0.8032,-0.8225,-0.8503,-0.8781,-0.8998,-0.9289,-0.9544,-0.969,-0.9714,-0.9697,-0.9822,-0.9822,-0.9822,-0.9822,-0.9822,-0.9822,-0.9822,-0.9822,-0.9822,-0.9822,-0.9822,-0.9822,-0.9822,-1.0122,-1.0486,-1.0789,-1.1152,-1.1462,-1.1776,-1.1776,-1.1776,-1.1776,-1.1776,-1.1723,-1.1626,-1.1537,0.0,-1.135,-1.1256,-1.1171,-1.109,-1.109,-1.1314,-1.1806,-1.3163,-1.4445,-1.5802,-1.7094,-1.822,-1.9071,-1.9071,-1.9175,-1.9279,-1.9279,-1.9162,-1.9023,-1.9023,-1.8664,-1.8247,-1.8094,-1.7808,-1.7523,-1.7315,-1.7279,-1.7279,-1.7279,-1.7201,-1.6989,-1.6712,-1.6389,-1.603,-1.5716,-1.5887,-1.6064,-1.6064,-1.7196,-1.8198,-1.8607,-1.945,-2.0047,-2.0216,-2.0449,-2.0507,-2.0244,-2.0478,-2.0507,-2.0244,-2.0478,-2.0605,-2.0605,-2.0605,-2.0605,-2.0605,-2.0605,-2.0605,-2.0605,-2.0605,-2.0713,-2.0889,-2.1083,-2.1307,-0.9217,-0.903,-0.885,-0.8826,-0.886,-0.8889,-0.8624,-0.8457,-0.8333,-0.8137,-0.8038,-0.8002,-0.8032,-0.8377,-0.8648,-0.8743,-0.9055,-0.9357,-0.9561,-0.96,-0.9633,-0.9761,-0.9822,0.0,-0.9822,-0.9822,0.0,-0.9822,-0.9822,-0.9822,-0.9822,-0.9822,-0.9822,-0.9822,-1.0061,-1.0365,-1.0789,-1.1031,-1.1398,-1.1776,-1.1736,-1.1715,-1.1715,-1.1675,-1.1577,-1.1439,-1.1403,0.0,0.0,-1.1126,-1.1029,-1.0967,-1.0967,-1.0822,-1.0962,-1.3009,-1.4083,-1.4894,-1.6942,-1.8122,-1.8817,-1.8869,-1.9078,-1.9264,-1.9191,-1.8994,-1.8774,-1.8701,-1.8262,-1.7816,-1.7816,-1.7574,-1.7279,-1.7279,-1.7279,-1.7264,-1.7245,-1.7033,-1.6785,-1.6389,-1.6082,-1.5811,-1.5447,-1.6098,-1.6698,-1.6698,-1.8037,-1.9094,-1.9262,-1.9893,-2.0401,-2.0566,-2.0517,-2.0283,-1.9941,-2.0146,-2.0146,-1.9805,-2.0107,-2.0331,-2.0331,-2.0419,-2.0458,-2.0458,-2.0556,-2.0605,-2.0605,-2.0605,-2.0605,-2.0615,-2.0928,-2.1094,-0.9839,-0.96,-0.9336,-0.9407,-0.9284,-0.9126,-0.9073,-0.8686,-0.8382,-0.8382,-0.8187,-0.8032,-0.8221,-0.8282,-0.8445,-0.8797,-0.8898,-0.911,-0.9538,-0.9576,-0.9633,-0.9761,0.0,0.0,-0.9822,-0.9822,-0.9822,-0.9822,-0.9822,0.0,-0.9822,-0.9822,-0.9822,-0.9822,-0.9819,-1.0122,-1.0789,-1.0849,-1.116,-1.1776,-1.1606,-1.1524,-1.152,-1.135,-1.1265,-1.124,-1.1086,0.0,0.0,-1.081,-1.0733,-1.0716,-1.0716,-1.0708,-1.0857,-1.2091,-1.3442,-1.4793,-1.6027,-1.7305,-1.8482,-1.8817,-1.9078,-1.922,-1.8921,-1.8811,-1.873,-1.843,-1.8094,-1.7816,-1.7816,-1.7574,-1.7279,-1.7279,-1.7279,-1.7252,-1.7005,-1.6917,-1.6719,-1.6074,-1.5935,-1.5811,-1.5447,-1.6098,-1.6698,-1.6698,-1.7513,-1.8407,-1.9183,-1.9381,-1.9736,-2.0527,-2.0215,-1.9961,-1.9922,-1.96,-1.9385,-1.9346,-1.9385,-1.9404,-1.9404,-1.9775,-1.9971,-1.9971,-2.0361,-2.0605,-2.0605,-2.0605,-2.0605,-2.0605,-2.0644,-2.0664,-1.0184,-1.0111,-1.0014,-0.9943,-0.9848,-0.9686,-0.9188,-0.8847,-0.8528,-0.8233,-0.8088,-0.8008,-0.8119,-0.8208,-0.8357,-0.8621,-0.8743,-0.893,-0.9418,-0.9469,-0.9562,-0.9798,-0.9822,-0.9822,0.0,0.0,-0.9785,-0.97,-0.9693,0.0,-0.9561,-0.9724,-0.9822,-0.9822,-0.9822,-1.0126,-1.0789,-1.0696,-1.0946,-1.161,-1.1419,-1.1334,-1.133,-1.1256,-1.1167,-1.1066,-1.1001,0.0,0.0,-1.072,-1.0692,-1.0692,-1.0692,-1.0692,-1.0907,-1.2738,-1.3814,-1.4567,-1.6617,-1.7678,-1.8208,-1.848,-1.8651,-1.8701,-1.8767,-1.865,-1.843,-1.8101,-1.7772,-1.7523,-1.7523,-1.7381,-1.7279,-1.7279,-1.7179,-1.7011,-1.6925,-1.6602,-1.6213,-1.5965,-1.576,-1.5542,-1.5411,-1.5707,-1.6105,-1.6617,-1.7432,-1.8318,-1.9183,-1.9775,-2.011,-2.0167,-2.0019,-1.9814,-1.9561,-1.9385,-1.918,-1.8916,-1.9141,-1.9287,-1.9287,-1.9697,-1.9912,-1.9912,-2.038,-2.0605,-2.0605,-2.0605,-2.0605,-2.0605,-2.0605,-2.0605,-1.1447,-1.1478,-1.1416,-1.1384,-1.1015,-1.0586,-1.0045,-0.938,-0.8779,-0.8333,-0.8187,-0.8088,-0.8041,-0.8167,-0.8368,0.0,-0.8648,-0.892,-0.9289,-0.9401,-0.949,-0.966,0.0,-0.9692,-0.9741,-0.9721,-0.9696,-0.9554,-0.9544,0.0,-0.9388,-0.9578,-0.969,-0.969,-0.9794,-1.0095,-1.0644,-1.0595,-1.0832,-1.1415,-1.1232,-1.1147,-1.1147,-1.109,-1.1001,-1.0887,-1.0887,0.0,0.0,-1.0692,-1.0692,-1.0692,-1.0692,-1.0692,-1.0962,-1.2901,-1.3814,-1.4395,-1.6516,-1.747,-1.78,-1.7978,-1.7996,-1.7981,-1.8317,-1.8293,-1.8094,-1.7765,-1.7461,-1.7279,-1.7279,-1.7279,-1.7257,-1.7208,-1.7018,-1.6851,-1.6661,-1.6228,-1.5884,-1.5789,-1.5542,-1.5389,-1.5389,-1.5624,-1.6064,-1.6944,-1.7836,-1.8687,-1.9578,-2.0206,-2.0439,-1.9961,-1.9805,-1.9561,-1.9131,-1.8975,-1.8779,-1.8432,-1.874,-1.8916,-1.8916,-1.9443,-1.9727,-1.9727,-2.0312,-2.0605,-2.0605,-2.0605,-2.0605,-2.0605,-2.0605,-2.0605,-1.3949,-1.397,-1.3905,-1.4019,-1.2941,-1.1902,-1.185,-1.0479,-0.9133,-0.8825,-0.8577,-0.8333,-0.8038,-0.8167,-0.8368,-0.8459,-0.8737,-0.8995,-0.9168,-0.9312,-0.9427,0.0,0.0,-0.9472,-0.958,-0.9633,-0.9547,-0.9395,0.0,0.0,-0.9381,-0.9384,-0.9388,-0.9388,-0.9766,-1.0123,-1.0308,-1.0593,-1.0878,-1.1224,-1.1053,-1.1028,-1.102,-1.0781,-1.0696,0.0,0.0,0.0,0.0,-1.0692,-1.0692,-1.0692,-1.0692,-1.0692,-1.0852,-1.1987,-1.3112,-1.4207,-1.5135,-1.62,-1.7203,-1.7123,-1.712,-1.7165,-1.735,-1.7589,-1.775,-1.7381,-1.7286,-1.7279,-1.7279,-1.7279,-1.7252,-1.6983,-1.6903,-1.6727,-1.606,-1.5921,-1.5818,-1.5455,-1.5389,-1.5389,-1.5389,-1.6098,-1.6984,-1.7876,-1.8727,-1.9618,-2.0489,-2.0605,-2.0439,-1.9961,-1.9541,-1.9121,-1.8646,-1.8227,-1.8018,-1.8018,-1.8018,-1.8018,-1.8018,-1.8838,-1.9297,-1.9297,-2.0165,-2.0605,-2.0605,-2.0605,-2.0605,-2.0605,-2.0605,-2.0605,-1.3955,-1.4083,-1.4008,-1.3863,-1.3357,-1.2582,-1.1369,-1.053,-0.9747,-0.8675,-0.8397,-0.8326,-0.8323,-0.8381,-0.8465,-0.8615,-0.872,0.0,-0.9138,0.0,0.0,-0.9386,-0.9467,-0.9578,0.0,0.0,-0.9391,-0.9296,0.0,0.0,-0.9083,-0.9273,-0.9381,-0.9381,-0.9717,-1.0008,-1.0301,-1.0482,-1.0709,-1.1045,-1.0867,-1.0777,-1.0777,-1.072,-1.0692,0.0,0.0,0.0,0.0,-1.0692,-1.0692,-1.0692,-1.0692,-1.0692,-1.0852,-1.1982,-1.3022,-1.399,-1.5227,-1.6208,-1.6893,-1.7036,-1.696,-1.6766,-1.6811,-1.717,-1.7469,-1.7327,-1.7279,-1.7279,-1.7279,-1.7165,-1.7027,-1.6925,-1.6573,-1.6155,-1.5965,-1.5695,-1.5513,-1.5411,-1.5389,-1.559,-1.618,-1.6542,-1.7188,-1.8687,-1.9134,-1.9618,-2.0489,-2.0605,-2.0321,-1.9561,-1.9365,-1.9111,-1.8637,-1.8217,-1.8008,-1.8008,-1.8008,-1.8008,-1.8008,-1.8838,-1.9287,-1.9287,-2.0165,-2.0605,-2.0605,-2.0605,-2.0605,-2.0605,-2.0605,-2.0605,-1.5311,-1.5423,-1.5388,-1.5229,-1.4688,-1.3951,-1.2828,-1.2057,-1.1289,-1.0208,-0.9623,-0.9297,-0.9138,-0.8843,-0.8601,-0.8696,-0.8804,-0.8954,0.0,0.0,0.0,-0.9339,0.0,0.0,0.0,-0.9388,-0.9232,0.0,0.0,0.0,-0.8888,-0.9113,-0.9272,-0.9386,-0.9724,-1.001,-1.0288,-1.0471,-1.0695,-1.0863,-1.0749,-1.0692,-1.0692,-1.0692,-1.0692,0.0,0.0,0.0,0.0,-1.0692,-1.0692,-1.0692,-1.0692,-1.0651,-1.0703,-1.1819,-1.2805,-1.3746,-1.4948,-1.587,-1.6551,-1.658,-1.6552,-1.6454,-1.6454,-1.6769,-1.7127,-1.7164,-1.7099,-1.707,-1.7133,-1.6866,-1.6564,-1.6513,-1.6155,-1.5748,-1.5632,-1.5443,-1.5305,-1.5305,-1.5305,-1.5582,-1.6542,-1.6698,-1.731,-1.9054,-1.9301,-1.9618,-2.0489,-2.0605,-2.0273,-1.9375,-1.9287,-1.9043,-1.8412,-1.812,-1.8008,-1.8008,-1.8008,-1.8008,-1.8008,-1.8672,-1.9121,-1.9287,-1.9971,-2.0439,-2.0605,-2.0605,-2.0605,-2.0605,-2.0605,-2.0605,0.0,-1.7582,-1.7582,-1.7555,-1.6664,-1.5683,-1.5555,-1.4579,0.0,-1.2884,-1.1859,-1.0889,-1.0333,-0.9473,-0.8831,-0.8726,-0.8957,-0.9149,0.0,-0.9211,0.0,0.0,-0.9195,0.0,-0.9217,-0.921,0.0,0.0,0.0,0.0,-0.8885,-0.894,-0.9103,-0.9434,-0.9801,-1.0085,-1.0312,-1.0582,-1.0692,-1.0692,-1.068,-1.0672,-1.0672,-1.0672,-1.0672,0.0,0.0,0.0,0.0,-1.0692,-1.0684,-1.0672,-1.0672,-1.0566,-1.0519,-1.1513,-1.2529,-1.3491,-1.4217,-1.5262,-1.6192,-1.5919,-1.5981,-1.6177,-1.6177,-1.6359,-1.6636,-1.6878,-1.6784,-1.6652,-1.68,-1.6471,-1.6028,-1.5886,-1.5677,-1.5447,-1.5154,-1.509,-1.509,-1.509,-1.509,-1.5409,-1.6453,-1.6739,-1.7342,-1.9015,-1.9341,-1.9696,-2.0489,-2.0605,-2.0292,-1.9424,-1.9307,-1.8955,-1.8125,-1.8027,-1.8008,-1.8008,-1.8008,-1.8008,-1.8008,-1.8412,-1.8831,-1.9277,-1.9736,-2.0156,-2.0605,-2.0605,-2.0605,-2.0605,-2.0605,-2.0605,-1.7562,0.0,-1.7528,-1.736,-1.704,-1.651,0.0,-1.4542,-1.3844,-1.283,-1.2236,-1.1654,-1.0737,-1.0365,-0.9909,-0.8992,-0.8944,-0.9265,-1.0149,-1.0411,0.0,-0.9448,-0.9349,-0.9316,-0.9228,-0.921,0.0,0.0,0.0,-0.8885,-0.8885,-0.9158,-0.9434,-0.9706,-1.0075,-1.024,-1.0312,-1.0582,-1.0692,-1.0688,-1.0558,-1.0493,-1.0493,-1.0493,-1.0493,0.0,0.0,0.0,-1.0692,-1.0692,-1.0615,-1.0493,-1.0493,-1.0383,-1.0277,-1.0535,-1.1644,-1.3118,-1.3314,-1.4497,-1.5919,-1.5852,-1.5832,-1.5879,-1.5879,-1.6211,-1.6636,-1.6683,-1.6636,-1.6558,-1.6342,-1.6035,-1.5723,-1.5431,-1.5149,-1.4874,-1.4797,-1.4783,-1.4783,-1.4783,-1.4783,-1.511,-1.6,-1.6895,-1.7827,-1.8917,-1.9766,-2.0362,-2.0566,-2.0605,-2.04,-1.9824,-1.9482,-1.9072,-1.85,-1.8193,-1.8008,-1.8008,-1.8008,-1.8008,-1.8008,-1.873,-1.918,-1.9287,-2.0067,-2.0507,-2.0605,-2.0605,-2.0605,-2.0605,-2.0605,-2.0605,-1.7582,-1.7582,-1.7549,-1.744,-1.74,-1.7146,-1.6297,-1.5853,-1.5429,-1.4667,-1.3843,-1.308,-1.2453,-1.1869,-1.1109,-0.9915,-1.0147,-1.0559,0.0,0.0,-1.0037,-1.0084,-0.953,-0.9396,0.0,0.0,0.0,0.0,0.0,-0.8995,-0.9103,-0.9323,-0.9599,-1.0036,-1.012,-1.0244,-1.0357,-1.0466,-1.0534,-1.0448,-1.0355,-1.031,-1.031,-1.031,-1.031,0.0,0.0,0.0,-1.0448,-1.0448,-1.0396,-1.031,-1.031,-1.0197,-1.0137,-1.0596,-1.163,-1.2931,-1.3422,-1.4558,-1.5784,-1.5784,-1.5784,-1.5784,-1.5784,-1.5927,-1.608,-1.6365,-1.6256,-1.6023,-1.5948,-1.5552,-1.5115,-1.502,-1.4775,-1.4566,-1.4566,-1.4566,-1.4566,-1.4566,-1.4566,-1.5019,-1.6363,-1.709,-1.798,-1.9402,-2.0089,-2.0489,-2.0605,-2.0605,-2.0439,-1.9961,-1.9707,-1.9316,-1.8656,-1.8393,-1.8213,-1.8018,-1.8008,-1.8008,-1.8008,-1.8643,-1.9134,-1.9467,-2.0215,-2.0605,-2.0605,-2.0605,-2.0605,-2.0605,-2.0605,-2.0605,-1.7582,-1.7615,-1.7642,-1.7595,-1.7582,-1.7582,-1.7582,-1.7325,-1.706,-1.6736,-1.5707,-1.4691,-1.4272,-1.3349,-1.2318,-1.1198,-1.1987,0.0,-1.1139,-1.0243,-1.0074,-1.1061,-1.0174,0.0,0.0,0.0,0.0,0.0,0.0,-0.9375,-0.9651,-0.9739,-0.9889,-1.0214,-1.01,-1.0105,-1.0298,-1.0326,-1.0314,-1.0212,-1.0188,-1.0171,-1.0171,-1.0171,-1.0171,-1.0175,0.0,0.0,-1.0212,-1.0212,-1.0196,-1.0171,-1.0171,-1.001,-0.9944,-1.0792,-1.1771,-1.2877,-1.4094,-1.5112,-1.5784,-1.5784,-1.5784,-1.5771,-1.5724,-1.5591,-1.5484,-1.5886,-1.571,-1.5355,-1.55,-1.5011,-1.4529,-1.4607,-1.4489,-1.4356,-1.4356,-1.4356,-1.4356,-1.4356,-1.4475,-1.513,-1.6764,-1.7334,-1.8149,-1.9854,-2.0225,-2.042,-2.0566,-2.0605,-2.0458,-2.0049,-1.9951,-1.96,-1.8763,-1.8637,-1.8422,-1.8037,-1.8008,-1.8066,-1.8203,-1.8568,-1.9117,-1.98,-2.0323,-2.0605,-2.0605,-2.0605,-2.0605,-2.0605,-2.0605,-2.0605,-1.7582,-1.7776,-1.7856,-1.7649,-1.7582,-1.7582,-1.7582,-1.716,-1.6736,-1.673,-1.6146,-1.5405,-1.4379,-1.4056,-1.3627,-1.2644,0.0,-1.3772,0.0,0.0,-1.3247,-1.2455,0.0,0.0,0.0,0.0,0.0,0.0,0.0,-1.0781,-1.0836,-1.1181,-1.0939,-1.0084,-1.0132,-1.0128,-0.9973,-1.0123,-1.0241,-1.0212,-1.0053,-0.9929,-0.9929,-0.9929,-0.9929,-0.9937,0.0,-1.0212,-1.0212,-1.0212,-1.0122,-0.9929,-0.9929,-0.9819,-0.9669,-0.9813,-1.1061,-1.2969,-1.4908,-1.5683,-1.5784,-1.5784,-1.5784,-1.5785,-1.5538,-1.5431,-1.5357,-1.5196,-1.5109,-1.5008,-1.4751,-1.4599,-1.4449,-1.424,-1.4166,-1.4166,-1.4166,-1.4166,-1.4166,-1.4166,-1.4894,-1.5621,-1.5902,-1.7496,-1.8838,-1.9164,-1.9962,-2.0566,-2.0605,-2.0605,-2.0576,-2.0507,-2.0137,-1.9717,-1.9228,-1.8812,-1.8422,-1.8037,-1.8008,-1.834,-1.9062,-1.9492,-1.9951,-2.0449,-2.0566,-2.0605,-2.0605,-2.0605,-2.0605,-2.0605,-2.0605,-2.0605,-1.7582,-1.7689,-1.7802,-1.7822,-1.7836,-1.7736,-1.747,-1.7054,-1.6677,-1.6524,-1.6158,-1.5731,-1.5244,0.0,-1.5195,-1.476,0.0,-1.3606,-1.346,-1.3385,-1.3388,0.0,0.0,0.0,0.0,0.0,0.0,0.0,0.0,0.0,-1.2291,-1.2307,-1.2144,-1.1779,-1.1742,-1.1388,-1.074,-1.0722,-1.047,-0.9872,-0.9786,-0.9746,-0.9746,-0.9746,-0.9746,-0.975,0.0,-0.9872,-0.9872,-0.9872,-0.9823,-0.9746,-0.9746,-0.9697,-0.9723,-1.0841,-1.1858,-1.3017,-1.5099,-1.5784,-1.5758,-1.5645,-1.5591,-1.5538,-1.5251,-1.505,-1.4897,-1.4763,-1.4723,-1.4696,-1.4556,-1.4402,-1.4255,-1.4122,-1.4088,-1.4088,-1.4088,-1.4088,-1.425,-1.4699,-1.5186,-1.5869,-1.6919,-1.794,-1.8868,-1.9608,-2.0137,-2.0489,-2.0605,-2.0605,-2.0605,-2.0605,-2.0429,-2.0098,-1.9668,-1.9238,-1.8711,-1.8047,-1.8188,-1.8633,-1.9268,-1.964,-2.0069,-2.0595,-2.0605,-2.0605,-2.0605,-2.0605,-2.0605,-2.0605,-2.0605,-2.0605,-1.7582,-1.7635,-1.7749,-1.7935,-1.7995,-1.7895,-1.7575,-1.7208,-1.6826,-1.6624,-1.6299,-1.5982,0.0,-1.6223,0.0,-1.6225,-1.481,-1.3897,-1.4534,-1.3789,-1.3533,-1.4471,-1.3776,0.0,0.0,0.0,0.0,0.0,0.0,0.0,-1.3602,-1.3372,-1.325,-1.3204,-1.303,-1.2561,-1.171,-1.1595,-1.0886,-0.9579,-0.9579,-0.9579,-0.9579,-0.9579,-0.9579,-0.9579,-0.9579,-0.9579,-0.9579,-0.9579,-0.9579,-0.9579,-0.9579,-0.9772,-1.0207,-1.2052,-1.2877,-1.336,-1.5153,-1.5738,-1.5691,-1.5471,-1.5351,-1.5244,-1.4995,-1.4703,-1.4502,-1.4436,-1.4422,-1.4422,-1.4422,-1.4255,-1.4088,-1.4088,-1.4088,-1.4088,-1.4088,-1.4088,-1.4292,-1.4985,-1.547,-1.6239,-1.773,-1.8381,-1.9036,-2.0059,-2.0225,-2.0264,-2.0411,-2.045,-2.045,-2.045,-2.0489,-2.0352,-1.9951,-1.9434,-1.8857,-1.8159,-1.852,-1.8936,-1.9277,-1.9691,-2.0119,-2.0595,-2.0605,-2.0605,-2.0605,-2.0605,-2.0605,-2.0605,-2.0605,-2.0605,-1.7582,-1.7796,-1.7962,-1.7989,-1.7995,-1.8055,-1.8315,-1.7926,-1.7531,-1.7531,-1.6875,-1.626,-1.6278,-1.6484,-1.6489,-1.5995,-1.6201,-1.6281,-1.5851,0.0,-1.566,0.0,0.0,0.0,0.0,0.0,0.0,0.0,0.0,0.0,-1.4503,-1.456,-1.4065,-1.307,-1.2834,-1.2657,-1.2608,-1.2592,-1.1565,-0.9579,-0.9579,-0.9579,-0.9579,-0.9579,-0.9579,-0.9579,-0.9579,-0.9579,-0.9579,-0.9579,-0.9579,-0.9579,-0.9579,-1.0207,-1.1224,-1.229,-1.3318,-1.434,-1.5445,-1.5651,-1.5424,-1.5404,-1.5211,-1.4988,-1.4643,-1.4536,-1.4462,-1.4195,-1.4122,-1.4122,-1.4122,-1.4102,-1.4088,-1.4088,-1.4088,-1.4088,-1.4088,-1.4088,-1.413,-1.4166,-1.567,-1.6919,-1.7082,-1.859,-1.9824,-1.9902,-1.9942,-1.9942,-1.9942,-1.9942,-1.9942,-1.9942,-2.0186,-2.0207,-1.9913,-1.9124,-1.8617,-1.8559,-1.8994,-1.9248,-1.9287,-2.0116,-2.0576,-2.0605,-2.0605,-2.0605,-2.0605,-2.0605,-2.0605,-2.0605,-2.0605,-2.0605,-1.7582,-1.7809,-1.7995,-1.7995,-1.8268,-1.8515,-1.8275,-1.7731,-1.733,-1.7328,-1.695,-1.6543,-1.6549,0.0,-1.6357,-1.6161,-1.6321,-1.6307,-1.5934,0.0,0.0,0.0,0.0,0.0,0.0,0.0,0.0,0.0,0.0,0.0,-1.5642,-1.5473,-1.5168,-1.4727,-1.4671,-1.4328,-1.3709,-1.3709,-1.298,-1.1517,-1.0886,-1.0256,-0.9579,-0.9579,-0.9579,-0.9579,-0.9579,-0.9579,-0.9579,-0.9579,-0.9579,-0.9579,-0.9579,-1.0256,-1.1302,-1.2134,-1.3081,-1.4102,-1.5022,-1.5217,-1.5142,-1.491,-1.4776,-1.4629,-1.4342,-1.4249,-1.4229,-1.4122,-1.4088,-1.4088,-1.4088,-1.4088,-1.4088,-1.4088,-1.4088,-1.4088,-1.4088,-1.4088,-1.425,-1.4783,-1.5918,-1.7009,-1.769,-1.8886,-1.9754,-1.9863,-1.9902,-1.9902,-1.9902,-1.9902,-1.9902,-1.9902,-2.0147,-2.0091,-1.9592,-1.9238,-1.8854,-1.845,-1.8981,-1.916,-1.8896,-1.9961,-2.0585,-2.0617,-2.0585,-2.0605,-2.0605,-2.0605,-2.0605,-2.0605,-2.0605,-2.0605,-1.7729,-1.7883,-1.8035,-1.8222,-1.8428,-1.8552,-1.8394,-1.7927,-1.7508,-1.7478,-1.704,-1.6676,-1.6585,-1.6404,0.0,0.0,-1.6242,-1.6247,0.0,0.0,0.0,0.0,0.0,0.0,0.0,0.0,0.0,0.0,0.0,0.0,0.0,-1.5939,-1.5784,-1.573,-1.5784,-1.5445,-1.4682,-1.4729,-1.4244,-1.3173,-1.2145,-1.1126,-1.0113,-0.9772,-0.9579,-0.9579,-0.9579,-0.9579,-0.9579,-0.9579,-0.9579,-0.9616,-0.979,-1.0545,-1.1626,-1.2397,-1.3286,-1.4237,-1.4798,-1.4948,-1.479,-1.4583,-1.4456,-1.4349,-1.4148,-1.4088,-1.4088,-1.4088,-1.4088,-1.4088,-1.4088,-1.4088,-1.4088,-1.4088,-1.4088,-1.4088,-1.4088,-1.4088,-1.4377,-1.5235,-1.609,-1.7017,-1.802,-1.8935,-1.9548,-1.9706,-1.9696,-1.9696,-1.9696,-1.9696,-1.9745,-1.9794,-1.999,-1.9868,-1.9335,-1.9245,-1.8967,-1.8363,-1.8818,-1.8909,-1.8617,-1.9699,-2.033,-2.0379,-2.0535,-2.0605,-2.0605,-2.0605,-2.0605,-2.0605,-2.0605,-2.0605,-1.8043,-1.8043,-1.8183,-1.8771,-1.8428,-1.8174,-1.8743,-1.8642,-1.8305,-1.8083,-1.731,-1.6616,-1.6338,-1.6306,0.0,-1.5945,-1.6123,-1.6283,0.0,0.0,0.0,0.0,0.0,0.0,0.0,0.0,0.0,0.0,0.0,0.0,0.0,-1.5784,-1.573,-1.5493,-1.5683,-1.5683,-1.5493,-1.5683,-1.5302,-1.4298,-1.3216,-1.2193,-1.117,-1.0113,-0.9579,-0.9579,-0.9575,-0.9575,-0.9575,-0.9575,-0.9575,-0.9633,-1.026,-1.1248,-1.2397,-1.3111,-1.4077,-1.5001,-1.5001,-1.4763,-1.4516,-1.4516,-1.4322,-1.4088,-1.4088,-1.4088,-1.4088,-1.4088,-1.4088,-1.4088,-1.4088,-1.4088,-1.4088,-1.4088,-1.4088,-1.4088,-1.413,-1.413,-1.4377,-1.5228,-1.6131,-1.6984,-1.7836,-1.8727,-1.9301,-1.9301,-1.9301,-1.9301,-1.9301,-1.9301,-1.9381,-1.9566,-1.9597,-1.9517,-1.9335,-1.9106,-1.8831,-1.8427,-1.8501,-1.8598,-1.8598,-1.9314,-1.976,-1.9902,-2.0332,-2.0595,-2.0595,-2.0605,-2.0605,-2.0605,-2.0605,-2.0605,-2.012,-1.9655,-1.9234,-1.9427,-1.9016,-1.8612,-1.8573,-1.846,-1.8403,-1.8325,-1.7911,-1.7516,-1.7241,-1.6894,0.0,-1.648,-1.6377,-1.6346,0.0,0.0,0.0,0.0,0.0,0.0,0.0,0.0,0.0,0.0,0.0,0.0,0.0,-1.5784,-1.5784,-1.573,-1.5784,-1.5784,-1.573,-1.5784,-1.5588,-1.5112,-1.3312,-1.1999,-1.117,-1.0113,-0.9579,-0.9571,-0.949,-0.9437,-0.9425,-0.9303,-0.9254,-0.9337,-1.0152,-1.1149,-1.2183,-1.2849,-1.3793,-1.4623,-1.4416,-1.4289,-1.4215,-1.4215,-1.4155,-1.4088,-1.4088,-1.4088,-1.4088,-1.4088,-1.4088,-1.4088,-1.4088,-1.4088,-1.4088,-1.4088,-1.4088,-1.425,-1.4866,-1.5026,-1.5269,-1.6173,-1.7025,-1.7715,-1.7957,-1.8727,-1.9301,-1.9301,-1.9301,-1.9301,-1.9301,-1.9301,-1.9381,-1.9566,-1.9462,-1.9466,-1.9704,-1.9102,-1.8737,-1.8812,-1.843,-1.8159,-1.8159,-1.8968,-1.928,-1.8987,-1.9736,-2.0107,-2.0107,-2.0458,-2.0605,-2.0605,-2.0605,-2.0605,-2.0255,-1.9744,-1.9433,-1.956,-1.9235,-1.8895,-1.883,-1.8563,-1.8384,-1.8383,-1.8199,-1.7944,-1.7628,-1.7274,0.0,-1.6719,-1.6577,-1.6573,0.0,0.0,0.0,0.0,0.0,0.0,0.0,0.0,0.0,0.0,0.0,0.0,0.0,-1.5784,-1.5778,-1.5683,-1.5778,-1.5778,-1.5683,-1.557,-1.5464,-1.5323,-1.3401,-1.202,-1.1211,-0.9915,-0.9332,-0.926,-0.9251,-0.9298,-0.9286,-0.906,-0.9031,-0.9224,-1.0386,-1.1216,-1.1984,-1.3031,-1.3819,-1.4322,-1.4148,-1.4088,-1.4088,-1.4088,-1.4088,-1.4088,-1.4088,-1.4088,-1.4088,-1.4088,-1.4088,-1.4088,-1.4088,-1.4088,-1.4088,-1.4088,-1.4088,-1.4334,-1.5193,-1.5394,-1.576,-1.6984,-1.7536,-1.7971,-1.8439,-1.8935,-1.9301,-1.9301,-1.9301,-1.9301,-1.9301,-1.939,-1.9469,-1.9597,-1.9568,-1.9572,-1.9657,-1.9121,-1.8766,-1.8754,-1.8294,-1.8008,-1.8008,-1.8672,-1.8906,-1.8607,-1.9316,-1.9746,-1.9912,-2.0176,-2.0429,-2.0605,-2.0605,-2.0605,-1.9487,-1.914,-1.9065,-1.9425,-1.926,-1.9032,-1.9472,-1.901,-1.848,-1.848,0.0,-1.7983,-1.7717,-1.7418,-1.7164,-1.6819,-1.677,0.0,0.0,0.0,0.0,0.0,0.0,0.0,0.0,0.0,0.0,0.0,0.0,0.0,0.0,-1.5758,-1.5697,-1.5501,-1.5623,-1.5651,-1.5414,-1.5159,-1.5028,-1.4982,-1.3433,-1.2199,-1.1263,-0.9759,-0.895,-0.8687,-0.8928,-0.9064,-0.9035,-0.8869,-0.8897,-0.92,-1.0705,-1.1407,-1.1789,-1.3487,-1.4088,-1.4088,-1.4088,-1.4088,-1.4088,-1.4088,-1.4088,-1.4088,-1.4088,-1.4088,-1.4082,-1.4055,-1.4068,-1.4075,-1.4021,-1.4028,-1.4041,-1.4015,-1.4048,-1.4377,-1.5311,-1.5519,-1.6049,-1.7796,-1.7923,-1.8066,-1.9125,-1.9301,-1.9301,-1.9301,-1.9301,-1.9301,-1.9301,-1.9441,-1.9541,-1.9541,-1.9661,-1.9657,-1.9364,-1.9105,-1.8802,-1.8501,-1.8168,-1.8008,-1.8008,-1.8344,-1.8549,-1.8549,-1.9004,-1.9414,-1.9795,-1.9873,-2.0117,-2.0546,-2.0586,-2.0605,-2.2278,-2.1025,0.0,-2.0258,-1.9811,-1.9574,-2.0594,-1.9982,-1.9185,-1.9185,-1.8953,-1.8601,-1.8377,-1.7854,-1.7492,-1.7404,0.0,0.0,0.0,0.0,0.0,0.0,0.0,0.0,0.0,0.0,0.0,0.0,0.0,0.0,-1.5784,-1.5611,-1.5491,-1.5445,-1.5271,-1.5053,-1.4819,-1.476,-1.4508,0.0,-1.2968,-1.21,-1.1573,-1.026,-0.9233,-0.8562,-0.8611,-0.8672,-0.8722,-0.8637,-0.869,-0.8892,-1.0633,-1.1311,-1.1608,-1.3417,-1.4088,-1.4088,-1.4088,-1.4088,-1.4088,-1.4088,-1.4088,-1.4088,-1.4088,-1.4088,-1.4041,-1.3766,-1.3908,-1.3981,-1.352,-1.3567,-1.364,-1.3454,-1.3754,-1.4538,-1.6083,-1.6412,-1.6944,-1.8687,-1.8966,-1.9006,-1.9253,-1.9301,-1.9301,-1.9301,-1.9301,-1.9301,-1.9301,-1.9075,-1.895,-1.9104,-1.8891,-1.8958,-1.9544,-1.891,-1.8646,-1.9068,-1.8403,-1.8008,-1.8008,-1.8096,-1.8144,-1.8144,-1.8529,-1.8783,-1.888,-1.9553,-1.9961,-2.0059,-2.0449,-2.0605,-2.283,-2.1975,0.0,-2.1663,0.0,-2.0443,-2.106,-2.027,-1.9424,-1.9424,-1.9132,-1.8808,-1.8546,-1.8115,-1.7737,0.0,0.0,0.0,0.0,0.0,0.0,0.0,0.0,0.0,0.0,0.0,0.0,0.0,0.0,-1.5784,-1.5784,-1.5558,-1.5398,-1.5398,-1.502,-1.4726,-1.4591,-1.4231,-1.3938,-1.3722,-1.286,-1.2153,-1.1466,-1.0032,-0.896,-0.8207,-0.8292,-0.8379,-0.8428,-0.8564,-0.8823,-0.9345,-1.0766,-1.158,-1.2143,-1.3568,-1.4088,-1.4088,-1.4088,-1.4088,-1.4088,-1.4088,-1.4088,-1.4088,-1.4088,-1.4088,-1.4021,-1.3686,-1.3713,-1.3774,-1.3327,-1.328,-1.336,-1.3247,-1.3447,-1.4144,-1.5856,-1.6206,-1.677,-1.8659,-1.9171,-1.9284,-1.9313,-1.9301,-1.9301,-1.9301,-1.9301,-1.9228,-1.9045,-1.9086,-1.9007,-1.8722,-1.8789,-1.8939,-1.921,-1.859,-1.8395,-1.8831,-1.823,-1.7896,-1.8008,-1.8169,-1.8213,-1.8018,-1.8223,-1.85,-1.8955,-1.9394,-1.9824,-2.0234,-2.0498,-2.0605,-2.2595,0.0,-2.2577,-2.3167,-2.2418,0.0,-2.1794,-2.0895,-1.9975,-1.9696,-1.9186,-1.8755,-1.8544,-1.8212,0.0,0.0,0.0,0.0,0.0,0.0,0.0,0.0,0.0,0.0,0.0,0.0,0.0,0.0,0.0,-1.5852,-1.5981,-1.557,-1.5297,-1.5244,-1.4732,-1.4441,-1.4397,-1.3762,-1.343,-1.338,-1.2893,-1.2229,-1.1235,-0.9932,-0.8851,-0.8072,-0.8069,-0.8113,-0.8157,-0.8428,-0.9038,-0.9941,-1.0933,-1.1886,-1.279,-1.3743,-1.4088,-1.4088,-1.4088,-1.4088,-1.4082,-1.4028,-1.4008,-1.4001,-1.3955,-1.3935,-1.3874,-1.3533,-1.3487,-1.3447,-1.3146,-1.3093,-1.312,-1.3066,-1.3053,-1.3542,-1.5304,-1.5712,-1.63,-1.8283,-1.9011,-1.9293,-1.9286,-1.9301,-1.9301,-1.9301,-1.9246,-1.9081,-1.8751,-1.9005,-1.8982,-1.8332,-1.8676,-1.8854,-1.8579,-1.8239,-1.8121,-1.8353,-1.7989,-1.7821,-1.8012,-1.8385,-1.8488,-1.8173,-1.813,-1.8467,-1.918,-1.9248,-1.9725,-2.0488,-2.0566,-2.0605,-2.2951,0.0,-2.2742,0.0,-2.3656,-2.3038,0.0,0.0,-2.2163,0.0,-1.9471,-1.8543,-1.8531,0.0,0.0,0.0,0.0,0.0,0.0,0.0,0.0,0.0,0.0,0.0,0.0,0.0,0.0,0.0,-1.6298,-1.6081,-1.6718,-1.5663,-1.4903,-1.4643,-1.409,-1.372,-1.3549,-1.3297,-1.3022,-1.2802,-1.2723,-1.2229,-1.1278,-1.1063,-1.0149,-0.8719,-0.794,-0.7724,-0.794,-0.8157,-0.8807,-0.9758,-1.089,-1.1886,-1.279,-1.3743,-1.4088,-1.4088,-1.4088,-1.4088,-1.4048,-1.3746,-1.366,-1.3613,-1.34,-1.3327,-1.326,-1.2991,-1.306,-1.314,-1.2572,-1.265,-1.2784,-1.2485,-1.2425,-1.3009,-1.5241,-1.5712,-1.6272,-1.8172,-1.8966,-1.9293,-1.9286,-1.9301,-1.9301,-1.9301,-1.9008,-1.877,-1.8715,-1.8146,-1.7733,-1.7623,-1.7696,-1.7786,-1.792,-1.7873,-1.7943,-1.8112,-1.81,-1.8062,-1.8097,-1.848,-1.8753,-1.8877,-1.8644,-1.8578,-1.8685,-1.9102,-1.9531,-2.001,-2.0429,-2.0605,-2.4239,-2.4228,-2.4355,0.0,-2.4726,-2.39,-2.4616,-2.388,-2.2782,-2.214,-2.116,-1.9933,0.0,0.0,0.0,0.0,0.0,0.0,0.0,0.0,0.0,0.0,0.0,0.0,0.0,0.0,0.0,0.0,-1.7204,-1.7302,-1.7605,-1.6227,-1.5336,-1.5066,-1.4094,-1.344,-1.3228,-1.3009,-1.2833,-1.2705,-1.2705,-1.2485,-1.2057,-1.1542,-1.0323,-0.8671,-0.8416,-0.8069,-0.7724,-0.8069,-0.9061,-1.0443,-1.1063,-1.2186,-1.3525,-1.3955,-1.4088,-1.4088,-1.4088,-1.3975,-1.3814,-1.3646,-1.3493,-1.3333,-1.3253,-1.3213,-1.3146,-1.2878,-1.2884,-1.2891,-1.2418,-1.2398,-1.2465,-1.2331,-1.2305,-1.2808,-1.4675,-1.5078,-1.5569,-1.7287,-1.8536,-1.9298,-1.931,-1.9318,-1.9295,-1.9313,-1.9155,-1.8923,-1.8638,-1.8347,-1.7999,-1.7541,-1.7495,-1.7439,-1.7298,-1.728,-1.7385,-1.7586,-1.7812,-1.7979,-1.8112,-1.8711,-1.9031,-1.9014,-1.8617,-1.8618,-1.9004,-1.8955,-1.9268,-1.9922,-2.0107,-2.0332,-2.5074,-2.5277,-2.5442,-2.6105,-2.5451,-2.4769,0.0,0.0,-2.3824,0.0,-2.2831,0.0,0.0,0.0,0.0,0.0,0.0,0.0,0.0,0.0,0.0,0.0,0.0,0.0,0.0,0.0,0.0,0.0,-1.816,-1.8284,-1.8463,-1.6779,-1.5655,-1.5397,-1.409,-1.3307,-1.3094,-1.2833,-1.2705,-1.2705,-1.2705,-1.2705,-1.2662,-1.1972,-1.0761,-0.9196,-0.8934,-0.8416,-0.7764,-0.794,-0.9148,-1.0913,-1.1144,-1.24,-1.4088,-1.4088,-1.4041,-1.3975,-1.3975,-1.374,-1.348,-1.34,-1.3267,-1.308,-1.3006,-1.2979,-1.2933,-1.2737,-1.267,-1.2623,-1.2358,-1.2305,-1.2305,-1.2305,-1.2305,-1.2732,-1.4279,-1.4895,-1.552,-1.6687,-1.7889,-1.8676,-1.8692,-1.9013,-1.9296,-1.9293,-1.9314,-1.9175,-1.8742,-1.8623,-1.8293,-1.7568,-1.7495,-1.7339,-1.6936,-1.6908,-1.6968,-1.7107,-1.7497,-1.78,-1.8014,-1.8816,-1.9184,-1.9168,-1.8709,-1.8749,-1.9287,-1.8812,-1.8987,-1.9756,-1.9863,-2.0088,-2.4744,-2.4812,-2.4913,-2.5378,-2.5693,0.0,0.0,0.0,0.0,0.0,0.0,0.0,0.0,0.0,0.0,0.0,0.0,0.0,0.0,0.0,0.0,0.0,0.0,0.0,0.0,0.0,0.0,0.0,-1.8921,-1.8491,-1.9093,-1.7036,-1.5553,-1.5033,-1.3984,-1.3307,-1.3094,-1.2833,-1.2705,-1.2705,-1.2705,-1.2705,-1.2705,-1.2662,-1.21,-1.1063,-0.9279,-0.85,-0.8412,-0.7808,-0.8759,-1.0654,-1.0913,-1.2303,-1.4088,-1.4088,-1.3908,-1.3626,-1.3626,-1.344,-1.3186,-1.2924,-1.2817,-1.2757,-1.2432,-1.2351,-1.2345,-1.2331,-1.2325,-1.2318,-1.2305,-1.2305,-1.2305,-1.2305,-1.2305,-1.2732,-1.4279,-1.5754,-1.6781,-1.6875,-1.6965,-1.7017,-1.7014,-1.8304,-1.9315,-1.9286,-1.9307,-1.9297,-1.9258,-1.8591,-1.7981,-1.7541,-1.7495,-1.7339,-1.6936,-1.6908,-1.6908,-1.6908,-1.7275,-1.7612,-1.781,-1.8574,-1.9184,-1.9553,-1.9187,-1.9058,-1.9287,-1.8812,-1.8831,-1.9326,-1.9727,-1.9922,-2.395,-2.418,0.0,-2.4886,-2.5096,-2.5307,-2.5543,-2.5753,-2.5665,-2.5127,0.0,0.0,0.0,0.0,0.0,0.0,0.0,0.0,0.0,0.0,0.0,0.0,0.0,0.0,0.0,0.0,0.0,0.0,0.0,-1.9658,-1.9656,-1.8119,-1.6727,-1.5688,-1.4747,-1.3795,-1.2833,-1.2747,-1.2705,-1.2705,-1.2705,-1.2705,-1.2705,-1.2705,-1.2528,-1.2143,-1.0842,-0.9628,-0.85,-0.8412,-0.9192,-1.0529,-1.1531,-1.2596,-1.3594,-1.3718,-1.3573,-1.3327,-1.3327,-1.3166,-1.2931,-1.2817,-1.2656,-1.2445,-1.2338,-1.2305,-1.2305,-1.2305,-1.2305,-1.2305,-1.2305,-1.2305,-1.2409,-1.2952,-1.3419,-1.4063,-1.5144,-1.6184,-1.6901,-1.6906,-1.6889,-1.6892,-1.6909,-1.7397,-1.7761,-1.7753,-1.8219,-1.8471,-1.832,-1.7935,-1.766,-1.7513,-1.7266,-1.7064,-1.6917,-1.6908,-1.6968,-1.7072,-1.7461,-1.7764,-1.7979,-1.8515,-1.8938,-1.9189,-1.8776,-1.8798,-1.9287,-1.8574,-1.8603,-1.9287,-1.9443,-1.9805,-2.3297,-2.3547,0.0,0.0,0.0,-2.4748,-2.5279,0.0,-2.5432,0.0,0.0,0.0,0.0,0.0,0.0,0.0,0.0,0.0,0.0,0.0,0.0,0.0,0.0,0.0,0.0,0.0,0.0,0.0,0.0,0.0,-1.9902,-1.8707,-1.7253,-1.564,-1.4469,-1.3484,-1.2572,-1.2572,-1.2572,-1.2572,-1.2572,-1.2572,-1.2572,-1.2481,-1.2439,-1.2397,-1.1422,-1.0231,-0.8927,-0.9052,-0.9486,-1.0224,-1.15,-1.2496,-1.317,-1.3372,-1.3307,-1.3053,-1.3053,-1.2891,-1.2636,-1.2636,-1.2465,-1.2305,-1.2305,-1.2305,-1.2305,-1.2305,-1.2305,-1.2325,-1.2425,-1.2489,-1.2574,-1.3017,-1.3854,-1.4752,-1.5294,-1.6193,-1.6908,-1.6908,-1.6908,-1.6903,-1.6892,-1.6892,-1.6893,-1.6886,-1.7495,-1.7972,-1.7957,-1.7825,-1.7761,-1.7889,-1.7422,-1.7101,-1.7101,-1.6982,-1.7003,-1.7201,-1.7437,-1.7793,-1.8183,-1.8611,-1.8971,-1.928,-1.8865,-1.886,-1.9287,-1.8574,-1.8516,-1.9072,-1.9365,-1.9883,0.0,0.0,0.0,0.0,0.0,0.0,-2.5142,0.0,0.0,0.0,0.0,0.0,0.0,0.0,0.0,0.0,0.0,0.0,0.0,0.0,0.0,0.0,0.0,0.0,0.0,0.0,0.0,0.0,-2.0383,-1.9893,-1.9875,-1.8658,-1.6968,-1.4824,-1.314,-1.2312,-1.2312,-1.2306,-1.23,-1.23,-1.23,-1.23,-1.2294,-1.2041,-1.188,-1.184,-1.0933,-1.0244,-0.9695,-0.9564,-0.9612,-0.9791,-1.0842,-1.1902,-1.2916,-1.3114,-1.2999,-1.2808,-1.2808,-1.2583,-1.2305,-1.2305,-1.2305,-1.2305,-1.2305,-1.2305,-1.2305,-1.2305,-1.2305,-1.2365,-1.2697,-1.2808,-1.2697,-1.2446,-1.3528,-1.4601,-1.4673,-1.5824,-1.6908,-1.6908,-1.6908,-1.6908,-1.6908,-1.6908,-1.6904,-1.6911,-1.7342,-1.7861,-1.837,-1.8227,-1.82,-1.8614,-1.7954,-1.7477,-1.7477,-1.7128,-1.7003,-1.7201,-1.721,-1.7581,-1.8379,-1.8783,-1.9261,-1.9855,-1.9482,-1.9268,-1.9268,-1.8812,-1.8607,-1.8637,-1.9494,-2.0156,-2.2108,0.0,0.0,0.0,0.0,0.0,0.0,0.0,0.0,0.0,0.0,0.0,0.0,0.0,0.0,0.0,0.0,0.0,0.0,0.0,0.0,0.0,0.0,0.0,0.0,0.0,0.0,0.0,-2.0484,-2.0099,-1.9503,-1.7627,-1.6257,-1.5681,-1.3465,-1.2312,-1.2312,-1.2125,-1.2029,-1.2029,-1.2029,-1.2029,-1.2029,-1.1916,-1.188,-1.188,-1.1634,-1.0998,-1.0152,-1.0187,-0.9887,-0.9583,-1.1301,-1.2122,-1.2344,-1.2583,-1.2585,-1.2425,-1.2425,-1.2371,-1.2305,-1.2305,-1.2305,-1.2305,-1.2305,-1.2305,-1.2305,-1.2305,-1.2305,-1.2318,-1.2405,-1.2425,-1.2695,-1.3724,-1.4279,-1.4895,-1.6,-1.6621,-1.6908,-1.6908,-1.6908,-1.6908,-1.6908,-1.6908,-1.6901,-1.6913,-1.702,-1.7156,-1.7331,-1.7267,-1.7284,-1.7394,-1.7202,-1.7064,-1.7064,-1.6972,-1.7003,-1.7201,-1.7596,-1.8033,-1.8389,-1.8928,-1.9309,-1.9453,-1.9033,-1.8783,-1.8783,-1.8656,-1.8763,-1.9131,-1.999,-2.0488,-2.1751,-2.2044,-2.2382,-2.23,0.0,0.0,-2.3614,-2.3444,0.0,0.0,0.0,0.0,0.0,0.0,0.0,0.0,0.0,0.0,0.0,0.0,0.0,0.0,0.0,0.0,0.0,-2.1531,-2.1209,-2.0567,-2.0323,-1.9989,-1.9338,-1.7196,-1.6003,-1.6003,-1.3505,-1.2149,-1.2149,-1.189,-1.1718,-1.1718,-1.1718,-1.1718,-1.1718,-1.1636,-1.1582,-1.1582,-1.1582,-1.1028,-1.017,-1.0567,-1.027,-0.972,-1.1304,-1.1915,-1.1967,-1.2194,-1.2309,-1.2305,-1.2305,-1.2305,-1.2305,-1.2305,-1.2305,-1.2305,-1.2305,-1.2305,-1.2305,-1.2305,-1.2392,-1.2496,-1.2338,-1.2392,-1.2699,-1.3462,-1.3966,-1.4581,-1.5703,-1.6437,-1.6908,-1.6908,-1.6908,-1.6908,-1.6908,-1.6908,-1.6908,-1.6908,-1.6908,-1.6963,-1.7128,-1.7009,-1.7037,-1.7376,-1.711,-1.6972,-1.7138,-1.7,-1.7003,-1.7201,-1.7539,-1.7896,-1.8263,-1.8846,-1.9265,-1.945,-1.9095,-1.8783,-1.8598,-1.8598,-1.8919,-1.957,-2.0282,-2.0605,-2.1696,-2.1696,-2.1778,-2.2126,-2.2217,0.0,-2.3696,-2.3626,-2.3551,0.0,0.0,0.0,0.0,0.0,0.0,0.0,0.0,0.0,0.0,0.0,0.0,0.0,0.0,0.0,-2.176,-2.1421,-2.1044,-2.0558,-2.0108,-1.9696,-1.932,-1.7163,-1.595,-1.595,-1.33,-1.1838,-1.1838,-1.1579,-1.1447,-1.1447,-1.1447,-1.1447,-1.1441,-1.1226,-1.1111,-1.1111,-1.1111,-1.07,-1.0105,-1.0812,-1.0625,-0.9997,-1.0999,-1.1521,-1.1706,-1.1929,-1.212,-1.2305,-1.2305,-1.2305,-1.2305,-1.2305,-1.2305,-1.2305,-1.2305,-1.2305,-1.2305,-1.2305,-1.2492,-1.2677,-1.2371,-1.2536,-1.2719,-1.2524,-1.3136,-1.4004,-1.469,-1.5922,-1.6908,-1.6908,-1.6908,-1.6908,-1.6908,-1.6908,-1.6908,-1.6908,-1.6908,-1.7037,-1.7385,-1.7128,-1.7183,-1.7871,-1.7339,-1.7046,-1.7394,-1.711,-1.6968,-1.7166,-1.7248,-1.7514,-1.8031,-1.8665,-1.9187,-1.961,-1.937,-1.8994,-1.8529,-1.8627,-1.9085,-1.9922,-2.0361,-2.0605,-2.1696,-2.1696,-2.1705,-2.1787,-2.1806,0.0,-2.2518,-2.2336,-2.2291,0.0,0.0,0.0,0.0,0.0,0.0,0.0,0.0,0.0,0.0,0.0,0.0,0.0,0.0,0.0,-2.2199,-2.2089,-2.1649,-2.0594,-1.9842,-1.9393,-1.9301,-1.7005,-1.5686,-1.5686,-1.3002,-1.1567,-1.1567,-1.1291,-1.119,-1.119,-1.119,-1.119,-1.119,-1.1135,-1.1111,-1.1111,-1.1111,-1.0999,-1.0887,-1.1037,-1.0625,-0.9997,-1.0999,-1.1521,-1.1706,-1.1929,-1.212,-1.2305,-1.2305,-1.2305,-1.2305,-1.2305,-1.2305,-1.2305,-1.2305,-1.2305,-1.2305,-1.2305,-1.2345,-1.2378,-1.2318,-1.2345,-1.261,-1.3324,-1.3654,-1.4277,-1.6062,-1.6673,-1.6908,-1.6908,-1.6908,-1.6908,-1.6908,-1.6908,-1.6908,-1.6908,-1.6908,-1.6936,-1.7009,-1.6954,-1.6972,-1.7128,-1.7,-1.6936,-1.7009,-1.6954,-1.6908,-1.6968,-1.7422,-1.7752,-1.7836,-1.8602,-1.9043,-1.9129,-1.8886,-1.852,-1.8135,-1.8828,-1.9424,-1.9922,-2.0361,-2.0605,-2.1696,-2.1696,-2.1696,-2.1696,-2.1696,0.0,0.0,-2.2152,-2.2116,-2.2511,-2.2281,0.0,0.0,0.0,0.0,0.0,0.0,0.0,0.0,0.0,0.0,0.0,0.0,0.0,-2.2593,-2.24,-2.1861,-2.0888,-2.0072,-1.9412,-1.8958,-1.6968,-1.5597,-1.5157,-1.3038,-1.182,-1.1688,-1.1417,-1.1212,-1.1111,-1.1111,-1.1111,-1.1111,-1.1111,-1.1111,-1.1111,-1.1111,-1.1111,-1.1111,-1.1111,-1.085,-1.055,-1.1037,-1.1446,-1.1706,-1.1818,-1.204,-1.2305,-1.2305,-1.2305,-1.2305,-1.2305,-1.2305,-1.2305,-1.2305,-1.2305,-1.2305,-1.2305,-1.2305,-1.2305,-1.2305,-1.2305,-1.2615,-1.3901,-1.4216,-1.4696,-1.6499,-1.6908,-1.6908,-1.6908,-1.6908,-1.6908,-1.6908,-1.6908,-1.6908,-1.6908,-1.6908,-1.6908,-1.6908,-1.6908,-1.6908,-1.6908,-1.6908,-1.6908,-1.6908,-1.6908,-1.6908,-1.6908,-1.7171,-1.7352,-1.7352,-1.8037,-1.8516,-1.8697,-1.8556,-1.8333,-1.8008,-1.8652,-1.918,-1.9619,-2.0302,-2.0605,-2.1696,-2.1632,-2.1568,-2.1568,0.0,-2.154,0.0,0.0,0.0,-2.1934,0.0,0.0,0.0,0.0,0.0,0.0,0.0,0.0,0.0,0.0,0.0,0.0,0.0,0.0,0.0,-2.2336,-2.1814,-2.1154,-2.0332,-1.9515,-1.8629,-1.6884,-1.5502,-1.4656,-1.3064,-1.2073,-1.1814,-1.1645,-1.1429,-1.119,-1.1244,-1.1238,-1.119,-1.119,-1.1166,-1.1111,-1.1111,-1.1081,-1.1039,-1.1093,-1.1081,-1.1039,-1.113,-1.1372,-1.1706,-1.1744,-1.2003,-1.2305,-1.2305,-1.2305,-1.2305,-1.2305,-1.2305,-1.2305,-1.2305,-1.2305,-1.2305,-1.2305,-1.2305,-1.2305,-1.2305,-1.2285,-1.2625,-1.3858,-1.4157,-1.4656,-1.649,-1.6908,-1.6908,-1.6908,-1.6908,-1.6908,-1.6908,-1.6908,-1.6908,-1.6908,-1.6908,-1.6908,-1.6908,-1.6908,-1.6908,-1.6908,-1.6908,-1.6908,-1.6908,-1.6908,-1.6908,-1.6908,-1.6908,-1.6908,-1.6908,-1.7406,-1.7866,-1.8229,-1.8229,-1.8126,-1.7906,-1.8333,-1.8831,-1.9307,-2.0116,-2.0517,0.0,0.0,0.0,0.0,-2.0915,0.0,0.0,0.0,-2.068,-2.068,0.0,0.0,0.0,0.0,0.0,0.0,0.0,0.0,0.0,0.0,0.0,0.0,0.0,0.0,0.0,-2.1695,-2.1209,-2.1117,-2.0332,-1.9515,-1.8629,-1.6742,-1.5248,-1.4381,-1.2777,-1.1802,-1.1537,-1.1736,-1.1706,-1.1447,-1.1682,-1.167,-1.1441,-1.1441,-1.1309,-1.1111,-1.1111,-1.0979,-1.0743,-1.1015,-1.0972,-1.0785,-1.1206,-1.1484,-1.1706,-1.1892,-1.2114,-1.2305,-1.2305,-1.2305,-1.2305,-1.2305,-1.2305,-1.2305,-1.2305,-1.2305,-1.2305,-1.2305,-1.2305,-1.2305,-1.2305,-1.2304,-1.2349,-1.2505,-1.2543,-1.3357,-1.6288,-1.6908,-1.6908,-1.6908,-1.6908,-1.6908,-1.6908,-1.6908,-1.6908,-1.6908,-1.6908,-1.6908,-1.6908,-1.6908,-1.6908,-1.6908,-1.6908,-1.6908,-1.6908,-1.6908,-1.6908,-1.6908,-1.6908,-1.6908,-1.6908,-1.7153,-1.7389,-1.7615,-1.7605,-1.7586,-1.7573,-1.8142,-1.8744,-1.9297,-1.9766,-2.0195,0.0,0.0,0.0,0.0,0.0,0.0,-2.0521,0.0,-2.0415,0.0,0.0,0.0,0.0,0.0,0.0,0.0,0.0,0.0,0.0,0.0,0.0,0.0,0.0,0.0,0.0,0.0,0.0,0.0,-2.0943,-1.9911,-1.8276,-1.7048,-1.5613,-1.3833,-1.3016,-1.2375,-1.1986,-1.2095,-1.2017,-1.1718,-1.1676,-1.1597,-1.1483,-1.1327,-1.1226,-1.1099,-1.0954,-1.0785,-1.0695,-1.084,-1.0816,-1.0743,-1.123,-1.1521,-1.1706,-1.1781,-1.204,-1.2305,-1.2305,-1.2305,-1.2305,-1.2305,-1.2305,-1.2305,-1.2305,-1.2305,-1.2305,-1.2305,-1.2305,-1.2305,-1.2305,-1.2298,-1.2753,-1.4553,-1.3605,-1.3136,-1.6235,-1.6908,-1.6908,-1.6908,-1.6908,-1.6908,-1.6908,-1.6908,-1.6908,-1.6908,-1.6908,-1.6908,-1.6908,-1.6908,-1.6908,-1.6908,-1.6908,-1.6908,-1.6908,-1.6908,-1.6908,-1.6908,-1.6908,-1.6908,-1.6908,-1.6968,-1.7107,-1.7314,-1.7314,-1.7392,-1.7505,-1.7754,-1.82,-1.8802,-1.9535,-1.9944,-2.1357,0.0,0.0,0.0,0.0,0.0,0.0,0.0,0.0,0.0,0.0,0.0,0.0,0.0,0.0,0.0,0.0,0.0,0.0,0.0,0.0,0.0,0.0,0.0,0.0,0.0,0.0,0.0,0.0,-2.0192,-1.8117,-1.7383,-1.593,-1.3598,-1.3223,-1.2837,-1.2318,-1.2385,-1.2252,-1.188,-1.176,-1.1633,-1.1483,-1.1317,-1.1184,-1.1099,-1.0834,-1.0683,-1.0683,-1.0683,-1.0683,-1.0743,-1.123,-1.1521,-1.1706,-1.1744,-1.2003,-1.2305,-1.2305,-1.2305,-1.2305,-1.2305,-1.2305,-1.2305,-1.2305,-1.2305,-1.2305,-1.2305,-1.2305,-1.2305,-1.2305,-1.2307,-1.2869,-1.5108,-1.458,-1.417,-1.641,-1.6908,-1.6908,-1.6908,-1.6908,-1.6908,-1.6908,-1.6908,-1.6908,-1.6908,-1.6908,-1.6908,-1.6908,-1.6908,-1.6908,-1.6908,-1.6908,-1.6908,-1.6908,-1.6908,-1.6908,-1.6908,-1.6908,-1.6908,-1.6908,-1.6908,-1.6968,-1.7107,-1.7132,-1.7176,-1.7332,-1.7392,-1.7656,-1.8085,-1.9056,-1.9595,0.0,0.0,0.0,-1.993,0.0,0.0,0.0,0.0,-1.9457,0.0,0.0,0.0,0.0,0.0,0.0,-2.1403,0.0,0.0,0.0,0.0,0.0,0.0,0.0,0.0,0.0,0.0,0.0,0.0,0.0,0.0,-1.8382,-1.7475,-1.6033,-1.3879,-1.3317,-1.2837,-1.2318,-1.2566,-1.2433,-1.1886,-1.2168,-1.1982,-1.1495,-1.1483,-1.1333,-1.1099,-1.0834,-1.0683,-1.0683,-1.0683,-1.0683,-1.0743,-1.123,-1.1521,-1.1706,-1.1929,-1.2114,-1.2305,-1.2305,-1.2305,-1.2305,-1.2305,-1.2305,-1.2305,-1.2305,-1.2305,-1.2305,-1.2305,-1.2305,-1.2305,-1.2305,-1.229,-1.2307,-1.2428,-1.4638,-1.6777,-1.6864,-1.6908,-1.6908,-1.6908,-1.6908,-1.6908,-1.6908,-1.6908,-1.6908,-1.6908,-1.6908,-1.6908,-1.6908,-1.6908,-1.6908,-1.6908,-1.6908,-1.6908,-1.6908,-1.6908,-1.6908,-1.6908,-1.6908,-1.6908,-1.6908,-1.6908,-1.6908,-1.6908,-1.6908,-1.6908,-1.6908,-1.7107,-1.721,-1.7263,-1.8075,-1.8959,0.0,0.0,-1.982,-1.9586,0.0,0.0,0.0,0.0,0.0,0.0,0.0,0.0,0.0,0.0,0.0,-2.1265,0.0,0.0,0.0,0.0,0.0,0.0,0.0,0.0,0.0,0.0,0.0,0.0,-2.0846,0.0,0.0,-1.7198,-1.5734,-1.3855,-1.3452,-1.3051,-1.2572,-1.2656,-1.253,-1.218,-1.2095,-1.1832,-1.1483,-1.1341,-1.1202,-1.1099,-1.0834,-1.0683,-1.0683,-1.0683,-1.0683,-1.0749,-1.1378,-1.1632,-1.1706,-1.1929,-1.212,-1.2305,-1.2305,-1.2305,-1.2305,-1.2305,-1.2305,-1.2305,-1.2305,-1.2305,-1.2305,-1.2305,-1.2305,-1.2285,-1.2291,-1.2308,-1.2813,-1.4866,-1.6149,-1.6908,-1.6908,-1.6908,-1.6908,-1.6908,-1.6908,-1.6908,-1.6908,-1.6908,-1.6908,-1.6908,-1.6908,-1.6908,-1.6908,-1.6908,-1.6908,-1.6908,-1.6908,-1.6908,-1.6908,-1.6908,-1.6908,-1.6908,-1.6908,-1.6908,-1.6908,-1.6908,-1.6908,-1.6908,-1.7038,-1.7107,-1.7107,-1.7289,-1.7451,-1.7545,-1.7801,-1.828,-1.9173,-1.9063,0.0,-1.855,-1.8449,0.0,-1.899,0.0,0.0,0.0,0.0,0.0,0.0,0.0,0.0,0.0,0.0,0.0,0.0,-2.0752,0.0,0.0,0.0,0.0,0.0,0.0,-2.1658,-2.1328,-2.0536,0.0,0.0,0.0,-1.5671,-1.4046,-1.3589,-1.3179,-1.2705,-1.2705,-1.2524,-1.2174,-1.1964,-1.1694,-1.1339,-1.1196,-1.1111,-1.1099,-1.0834,-1.0737,-1.0815,-1.0725,-1.0809,-1.0985,-1.1489,-1.1744,-1.1818,-1.204,-1.2194,-1.2305,-1.2305,-1.2305,-1.2305,-1.2305,-1.2305,-1.2305,-1.2305,-1.2305,-1.2305,-1.2305,-1.2308,-1.2304,-1.2303,-1.2283,-1.3077,-1.6175,-1.6904,-1.6908,-1.6908,-1.6908,-1.6908,-1.6908,-1.6908,-1.6908,-1.6908,-1.6908,-1.6908,-1.6908,-1.6908,-1.6908,-1.6908,-1.6908,-1.6908,-1.6908,-1.6908,-1.6908,-1.6908,-1.6908,-1.6908,-1.6908,-1.6908,-1.6908,-1.6908,-1.6968,-1.7003,-1.7003,-1.721,-1.7314,-1.7314,-1.7426,-1.7564,-1.7706,-1.7706,-1.7904]}]]